[[{"header":{"parameterUnit":"m.s-1","parameterCategory":1,"la1":30.6,"la2":29.2853,"lo1":-89.7004,"lo2":-87.6739,"dy":0.0162,"dx":0.0183,"nx":112,"ny":82,"refTime":"2024-08-31T18:00:00:Z","depth":0,"parameterNumber":2,"parameterNumberName":"U-component_of_WINDS"},"data":[0.0,0.0,0.0,0.0,0.0,0.0,0.0,0.0,0.0,0.0,0.0,0.0,0.0,0.0,0.0,0.0,0.0,0.0,0.0,0.0,0.0,0.0,0.0,0.0,0.0,0.0,0.0,0.0,0.0,0.0,0.0,0.0,0.0,0.0,0.0,0.0,0.0,0.0,0.0,0.0,0.0,0.0,0.0,0.0,0.0,0.0,0.0,0.0,0.0,0.0,0.0,0.0,0.0,0.0,0.0,0.0,0.0,0.0,0.0,0.0,0.0,0.0,0.0,0.0,0.0,0.0,0.0,0.0,0.0,0.0,0.0,0.0,0.0,0.0,0.0,0.0,0.0,0.0,0.0,0.0,0.0,0.0,0.0,0.0,0.0,0.0,0.0,0.0,0.0,0.0,-1.5251,-1.7387,-1.9686,-2.1009,-2.0762,-2.0581,-1.9312,-1.663,0.0,0.0,0.0,0.0,0.0,0.0,0.0,0.0,0.0,0.0,0.0,0.0,0.0,0.0,0.0,0.0,0.0,0.0,0.0,0.0,0.0,0.0,0.0,0.0,0.0,0.0,0.0,0.0,0.0,0.0,0.0,0.0,0.0,0.0,0.0,0.0,0.0,0.0,0.0,0.0,0.0,0.0,0.0,0.0,0.0,0.0,0.0,0.0,0.0,0.0,0.0,0.0,0.0,0.0,0.0,0.0,0.0,0.0,0.0,0.0,0.0,0.0,0.0,0.0,0.0,0.0,0.0,0.0,0.0,0.0,0.0,0.0,0.0,0.0,0.0,0.0,0.0,0.0,0.0,0.0,0.0,0.0,0.0,0.0,0.0,0.0,0.0,0.0,0.0,0.0,0.0,0.0,0.0,0.0,0.0,0.0,0.0,0.0,0.0,0.0,0.0,0.0,0.0,0.0,-1.5498,-1.9025,-2.0428,-2.1089,-2.1049,-2.0134,-1.8894,-1.7172,0.0,0.0,0.0,0.0,0.0,0.0,0.0,0.0,0.0,0.0,0.0,0.0,0.0,0.0,0.0,0.0,0.0,0.0,0.0,0.0,0.0,0.0,0.0,0.0,0.0,0.0,0.0,0.0,0.0,0.0,0.0,0.0,0.0,0.0,0.0,0.0,0.0,0.0,0.0,0.0,0.0,0.0,0.0,0.0,0.0,0.0,0.0,0.0,0.0,0.0,0.0,0.0,0.0,0.0,0.0,0.0,0.0,0.0,0.0,0.0,0.0,0.0,0.0,0.0,0.0,0.0,0.0,0.0,0.0,0.0,0.0,0.0,0.0,0.0,0.0,0.0,0.0,0.0,0.0,0.0,0.0,0.0,0.0,0.0,0.0,0.0,0.0,0.0,0.0,0.0,0.0,0.0,0.0,0.0,0.0,0.0,0.0,0.0,0.0,0.0,0.0,0.0,0.0,-1.5231,-1.6847,-1.9726,-2.0681,-2.1109,-2.1109,-2.018,-1.8831,-1.7021,-1.5104,0.0,0.0,0.0,0.0,0.0,0.0,0.0,0.0,0.0,0.0,0.0,0.0,0.0,0.0,0.0,0.0,0.0,0.0,0.0,0.0,0.0,0.0,0.0,0.0,0.0,0.0,0.0,0.0,0.0,0.0,0.0,0.0,0.0,0.0,0.0,0.0,0.0,0.0,0.0,0.0,0.0,0.0,0.0,0.0,0.0,0.0,0.0,0.0,0.0,0.0,0.0,0.0,0.0,0.0,0.0,0.0,0.0,0.0,0.0,0.0,0.0,0.0,0.0,0.0,0.0,0.0,0.0,0.0,0.0,0.0,0.0,0.0,0.0,0.0,0.0,0.0,0.0,0.0,0.0,0.0,0.0,0.0,0.0,0.0,0.0,0.0,0.0,0.0,0.0,0.0,0.0,0.0,0.0,0.0,0.0,0.0,0.0,0.0,0.0,0.0,0.0,0.0,-1.7187,-1.825,-2.004,-2.0762,-2.1082,-2.1009,-1.994,-1.8484,-1.662,-1.4332,0.0,0.0,0.0,0.0,0.0,0.0,0.0,0.0,0.0,0.0,0.0,0.0,0.0,0.0,0.0,0.0,0.0,0.0,0.0,0.0,0.0,0.0,0.0,0.0,0.0,0.0,0.0,0.0,0.0,0.0,0.0,0.0,0.0,0.0,0.0,0.0,0.0,0.0,0.0,0.0,0.0,0.0,0.0,0.0,0.0,0.0,0.0,0.0,0.0,0.0,0.0,0.0,0.0,0.0,0.0,0.0,0.0,0.0,0.0,0.0,0.0,0.0,0.0,0.0,0.0,0.0,0.0,0.0,0.0,0.0,0.0,0.0,0.0,0.0,0.0,0.0,0.0,0.0,0.0,0.0,0.0,0.0,0.0,0.0,0.0,0.0,0.0,0.0,0.0,0.0,0.0,0.0,0.0,0.0,0.0,0.0,0.0,0.0,0.0,0.0,0.0,0.0,-1.7705,-1.9165,-2.0073,-2.0762,-2.1002,-2.0728,-1.8885,-1.7208,-1.5917,-1.314,0.0,0.0,0.0,0.0,0.0,0.0,0.0,0.0,0.0,0.0,0.0,0.0,0.0,0.0,0.0,0.0,0.0,0.0,0.0,0.0,0.0,0.0,0.0,0.0,0.0,0.0,0.0,0.0,0.0,0.0,0.0,0.0,0.0,0.0,0.0,0.0,0.0,0.0,0.0,0.0,0.0,0.0,0.0,0.0,0.0,0.0,0.0,0.0,0.0,0.0,0.0,0.0,0.0,0.0,0.0,0.0,0.0,0.0,0.0,0.0,0.0,0.0,0.0,0.0,0.0,0.0,0.0,0.0,0.0,0.0,0.0,0.0,0.0,0.0,0.0,0.0,0.0,0.0,0.0,0.0,0.0,0.0,0.0,0.0,0.0,0.0,0.0,0.0,0.0,0.0,0.0,0.0,0.0,0.0,0.0,0.0,0.0,0.0,0.0,0.0,0.0,0.0,-1.8052,-1.9563,-2.014,-2.0762,-2.0989,-2.0702,-1.9459,-1.7876,-1.5904,0.0,0.0,0.0,0.0,0.0,0.0,0.0,0.0,0.0,0.0,0.0,0.0,0.0,0.0,0.0,0.0,0.0,0.0,0.0,0.0,0.0,0.0,0.0,0.0,0.0,0.0,0.0,0.0,0.0,0.0,0.0,0.0,0.0,0.0,0.0,0.0,0.0,0.0,0.0,0.0,0.0,0.0,0.0,0.0,0.0,0.0,0.0,0.0,0.0,0.0,0.0,0.0,0.0,0.0,0.0,0.0,0.0,0.0,0.0,0.0,0.0,0.0,0.0,0.0,0.0,0.0,0.0,0.0,0.0,0.0,0.0,0.0,0.0,0.0,0.0,0.0,0.0,0.0,0.0,0.0,0.0,0.0,0.0,0.0,0.0,0.0,0.0,0.0,0.0,0.0,0.0,0.0,0.0,0.0,0.0,0.0,0.0,0.0,0.0,0.0,0.0,0.0,-1.7114,-1.9056,-2.0468,-2.09,-2.1486,-2.1506,-2.063,-1.9386,-1.7736,-1.5551,0.0,0.0,0.0,0.0,0.0,0.0,0.0,0.0,0.0,0.0,0.0,0.0,0.0,0.0,0.0,0.0,0.0,0.0,0.0,0.0,0.0,0.0,0.0,0.0,0.0,0.0,0.0,0.0,0.0,0.0,0.0,0.0,0.0,0.0,0.0,0.0,0.0,0.0,0.0,0.0,0.0,0.0,0.0,0.0,0.0,0.0,0.0,0.0,0.0,0.0,0.0,0.0,0.0,0.0,0.0,0.0,0.0,0.0,0.0,0.0,0.0,0.0,0.0,0.0,0.0,0.0,0.0,0.0,0.0,0.0,0.0,0.0,0.0,0.0,0.0,0.0,0.0,0.0,0.0,0.0,0.0,0.0,0.0,0.0,0.0,0.0,0.0,0.0,0.0,0.0,0.0,0.0,0.0,0.0,0.0,0.0,0.0,0.0,0.0,0.0,0.0,0.0,-1.9234,-2.091,-2.2012,-2.2468,-2.3124,-2.2643,-2.0395,-1.835,-1.6462,0.0,0.0,0.0,0.0,0.0,0.0,0.0,0.0,0.0,0.0,0.0,0.0,0.0,0.0,0.0,0.0,0.0,0.0,0.0,0.0,0.0,0.0,0.0,0.0,0.0,0.0,0.0,0.0,0.0,0.0,0.0,0.0,0.0,0.0,0.0,0.0,0.0,0.0,0.0,0.0,0.0,0.0,0.0,0.0,0.0,0.0,0.0,0.0,0.0,0.0,0.0,0.0,0.0,0.0,0.0,0.0,0.0,0.0,0.0,0.0,0.0,0.0,0.0,0.0,0.0,0.0,0.0,0.0,0.0,0.0,0.0,0.0,0.0,0.0,0.0,0.0,0.0,0.0,0.0,0.0,0.0,0.0,0.0,0.0,0.0,0.0,0.0,0.0,0.0,0.0,0.0,0.0,0.0,0.0,0.0,0.0,0.0,0.0,0.0,0.0,0.0,0.0,0.0,-1.9494,-2.1577,-2.2814,-2.2527,-2.2096,-2.1417,-2.0281,-1.9105,-1.7382,-1.4983,0.0,0.0,0.0,0.0,0.0,0.0,0.0,0.0,0.0,0.0,0.0,0.0,0.0,0.0,0.0,0.0,0.0,0.0,0.0,0.0,0.0,0.0,0.0,0.0,0.0,0.0,0.0,0.0,0.0,0.0,0.0,0.0,0.0,0.0,0.0,0.0,0.0,0.0,0.0,0.0,0.0,0.0,0.0,0.0,0.0,0.0,0.0,0.0,0.0,0.0,0.0,0.0,0.0,0.0,0.0,0.0,0.0,0.0,0.0,0.0,0.0,0.0,0.0,0.0,0.0,0.0,0.0,0.0,0.0,0.0,0.0,0.0,0.0,0.0,0.0,0.0,0.0,0.0,0.0,0.0,0.0,0.0,0.0,0.0,0.0,0.0,0.0,0.0,0.0,0.0,0.0,0.0,0.0,0.0,0.0,0.0,0.0,0.0,0.0,0.0,0.0,0.0,-2.0789,-2.3081,-2.4563,-2.4641,-2.3665,-2.2566,-2.1289,-1.9768,-1.7889,-1.5464,0.0,0.0,0.0,0.0,0.0,0.0,0.0,0.0,0.0,0.0,0.0,0.0,0.0,0.0,0.0,0.0,0.0,0.0,0.0,0.0,0.0,0.0,0.0,0.0,0.0,0.0,0.0,0.0,0.0,0.0,0.0,0.0,0.0,0.0,0.0,0.0,0.0,0.0,0.0,0.0,0.0,0.0,0.0,0.0,0.0,0.0,0.0,0.0,0.0,0.0,0.0,0.0,0.0,0.0,0.0,0.0,0.0,0.0,0.0,0.0,0.0,0.0,0.0,0.0,0.0,0.0,0.0,0.0,0.0,0.0,0.0,0.0,0.0,0.0,0.0,0.0,0.0,0.0,0.0,0.0,0.0,0.0,0.0,0.0,0.0,0.0,0.0,0.0,0.0,0.0,0.0,0.0,0.0,0.0,0.0,0.0,0.0,0.0,0.0,0.0,0.0,0.0,-2.263,-2.4967,-2.6689,-2.7714,-2.6619,-2.4911,-2.2885,-2.0419,-1.809,-1.5991,0.0,0.0,0.0,0.0,0.0,0.0,0.0,0.0,0.0,0.0,0.0,0.0,0.0,0.0,0.0,0.0,0.0,0.0,0.0,0.0,0.0,0.0,0.0,0.0,0.0,0.0,0.0,0.0,0.0,0.0,0.0,0.0,0.0,0.0,0.0,0.0,0.0,0.0,0.0,0.0,0.0,0.0,0.0,0.0,0.0,0.0,0.0,0.0,0.0,0.0,0.0,0.0,0.0,0.0,0.0,0.0,0.0,0.0,0.0,0.0,-1.8057,-1.6846,0.0,0.0,0.0,0.0,0.0,0.0,0.0,0.0,0.0,0.0,0.0,0.0,0.0,0.0,0.0,0.0,0.0,0.0,0.0,0.0,0.0,0.0,0.0,0.0,0.0,0.0,0.0,0.0,0.0,0.0,0.0,0.0,0.0,0.0,0.0,0.0,0.0,0.0,0.0,0.0,-2.2765,-2.5048,-2.6819,-2.7683,-2.5605,-2.3726,-2.2766,-2.0616,-1.8484,-1.6633,-1.5304,0.0,0.0,0.0,0.0,0.0,0.0,0.0,0.0,0.0,0.0,0.0,0.0,0.0,0.0,0.0,0.0,0.0,0.0,0.0,0.0,0.0,0.0,0.0,0.0,0.0,0.0,0.0,0.0,0.0,0.0,0.0,0.0,0.0,0.0,0.0,0.0,0.0,0.0,0.0,0.0,0.0,0.0,0.0,0.0,0.0,0.0,0.0,0.0,0.0,0.0,0.0,0.0,0.0,0.0,0.0,0.0,0.0,0.0,0.0,-2.0957,-1.9775,0.0,0.0,0.0,0.0,0.0,0.0,0.0,0.0,0.0,0.0,0.0,0.0,0.0,0.0,0.0,0.0,0.0,0.0,0.0,0.0,0.0,0.0,0.0,0.0,0.0,0.0,0.0,0.0,0.0,0.0,0.0,0.0,0.0,0.0,0.0,0.0,0.0,0.0,0.0,0.0,-2.3978,-2.6294,-2.8071,-2.9168,-2.7278,-2.5644,-2.4986,-2.3045,-2.1245,-1.9783,-1.779,0.0,0.0,0.0,0.0,0.0,0.0,0.0,0.0,0.0,0.0,0.0,0.0,0.0,0.0,0.0,0.0,0.0,0.0,0.0,0.0,0.0,0.0,0.0,0.0,0.0,0.0,0.0,0.0,0.0,0.0,0.0,0.0,0.0,0.0,0.0,0.0,0.0,0.0,0.0,0.0,0.0,0.0,0.0,0.0,0.0,0.0,0.0,0.0,0.0,0.0,0.0,0.0,0.0,-2.3955,-2.459,-2.5215,-2.5654,-2.6055,-2.6289,-2.415,-2.3359,-2.3393,-2.1416,0.0,0.0,0.0,0.0,0.0,0.0,0.0,0.0,0.0,0.0,0.0,0.0,0.0,0.0,0.0,0.0,0.0,0.0,0.0,0.0,0.0,0.0,-2.3789,-2.4844,-2.5654,-2.5157,-2.1631,0.0,0.0,0.0,0.0,0.0,0.0,0.0,0.0,0.0,0.0,0.0,-2.5372,-2.7715,-2.9512,-3.0762,-2.9403,-2.8102,-2.7365,-2.5614,-2.4107,-2.3066,-2.0626,-1.8925,0.0,0.0,0.0,0.0,0.0,0.0,0.0,0.0,0.0,0.0,0.0,0.0,0.0,0.0,0.0,0.0,0.0,0.0,0.0,0.0,0.0,0.0,0.0,0.0,0.0,0.0,0.0,0.0,0.0,0.0,0.0,0.0,-1.3099,-1.516,0.0,0.0,0.0,0.0,0.0,0.0,0.0,0.0,0.0,0.0,0.0,0.0,0.0,-2.3198,-2.4375,-2.6006,-2.668,-2.6435,-2.7988,-2.8584,-2.834,-2.8779,-2.9068,-2.9053,-2.8701,0.0,-2.5235,-2.3867,0.0,0.0,0.0,0.0,0.0,0.0,0.0,0.0,0.0,0.0,0.0,0.0,0.0,0.0,0.0,0.0,0.0,0.0,0.0,0.0,0.0,0.0,-2.7578,-2.7744,-2.7871,-2.7803,-2.7226,-2.4219,-2.1299,-2.0224,-1.9111,-1.813,0.0,0.0,0.0,0.0,0.0,0.0,-2.5957,-2.8164,-2.9844,-3.0791,-2.9403,-2.8102,-2.7365,-2.5788,-2.4424,-2.3394,-2.2699,-2.2047,-2.1478,-2.0004,0.0,0.0,0.0,0.0,0.0,0.0,0.0,0.0,0.0,0.0,0.0,0.0,0.0,0.0,0.0,0.0,0.0,0.0,0.0,0.0,0.0,0.0,0.0,0.0,0.0,0.0,0.0,0.0,0.0,-1.3561,-1.5668,-1.6223,-1.699,-1.7211,0.0,0.0,0.0,0.0,0.0,0.0,0.0,0.0,0.0,-2.4365,-2.5292,-2.6191,-2.7226,-2.8232,-2.876,-2.8818,-2.956,-2.9961,-3.0029,-3.0225,-3.0312,-3.0312,-3.0312,-2.9531,-2.8125,-2.6602,-2.5832,-2.5487,0.0,0.0,0.0,0.0,-2.5779,-2.6832,-2.7005,-2.7628,-2.8199,-2.7238,0.0,0.0,0.0,0.0,0.0,0.0,0.0,-2.415,-2.5371,-2.7158,-2.8769,-2.9248,-2.956,-2.9687,-2.9414,-2.7695,-2.5586,-2.355,-2.2842,-2.1834,-1.9455,-1.9346,0.0,0.0,0.0,-2.4805,-2.7158,-2.8896,-3.0166,-3.082,-3.0265,-2.9494,-2.8644,-2.7937,-2.7167,-2.619,-2.5032,-2.4246,-2.3856,-2.2602,-2.1154,0.0,0.0,0.0,0.0,0.0,0.0,0.0,0.0,0.0,0.0,0.0,0.0,0.0,0.0,0.0,0.0,0.0,0.0,0.0,0.0,0.0,0.0,0.0,0.0,0.0,0.0,0.0,0.0,-1.6057,-1.7847,-1.7753,-1.9149,-1.9609,0.0,0.0,0.0,0.0,0.0,0.0,-2.3125,-2.4307,-2.5635,-2.7148,-2.8331,-2.9236,-2.9993,-3.0701,-3.1192,-3.1517,-3.1629,-3.1872,-3.2228,-3.2387,-3.2438,-3.2428,-3.2268,-3.2015,-3.1558,-2.9591,-2.8798,-2.8821,-2.8406,-2.8558,-2.9048,-2.9746,-3.0766,-3.1866,-3.2259,-3.3177,-3.3869,-3.228,-3.1354,-3.0578,-2.9099,0.0,0.0,0.0,0.0,-2.6297,-2.777,-2.8701,-2.9434,-3.0195,-3.0635,-3.0801,-3.0449,-3.0127,-2.915,-2.6553,-2.6152,-2.5234,-2.2109,-2.2119,0.0,-2.2516,-2.4365,-2.6485,-2.8369,-2.9541,-3.0371,-3.084,-3.0889,-3.0576,-2.9795,-2.9629,-2.9248,-2.8496,-2.7094,-2.6178,-2.5986,-2.5196,-2.3858,-2.2022,0.0,0.0,0.0,0.0,0.0,0.0,0.0,0.0,0.0,0.0,0.0,0.0,0.0,0.0,0.0,0.0,0.0,0.0,0.0,0.0,0.0,0.0,0.0,0.0,0.0,0.0,0.0,0.0,0.0,-2.1424,-2.2019,0.0,0.0,0.0,0.0,-2.2227,-2.3467,-2.4941,-2.666,-2.7588,-2.8476,-2.943,-3.1181,-3.2424,-3.2849,-3.4327,-3.5012,-3.5035,-3.5558,-3.5803,-3.5837,-3.6385,-3.6587,-3.6564,-3.6061,-3.5803,-3.5558,-3.2779,-3.1729,-3.2085,-3.2976,-3.371,-3.4239,-3.3657,-3.3791,-3.4156,-3.3485,-3.3311,-3.3458,-3.4192,-3.3587,-3.2624,-3.3065,-3.1891,0.0,0.0,-3.0283,-3.0099,-2.9604,-2.9805,-3.0254,-3.0742,-3.0869,-3.0889,-3.0859,-3.084,-3.041,-2.8994,-2.8096,-2.7246,-2.624,0.0,-2.6133,-2.6133,-2.6934,-2.807,-2.9391,-2.9912,-3.0371,-3.084,-3.0889,-3.0693,-3.0205,-2.9795,-2.9375,-2.8916,-2.8432,-2.8135,-2.8116,-2.775,-2.6832,-2.5499,-2.3397,0.0,0.0,0.0,0.0,0.0,0.0,0.0,0.0,0.0,0.0,0.0,0.0,0.0,0.0,0.0,0.0,0.0,0.0,0.0,0.0,0.0,0.0,0.0,0.0,0.0,0.0,0.0,0.0,-2.334,-2.4394,0.0,-2.3965,-2.4287,-2.5185,-2.6713,-2.7754,-2.9243,-3.1404,-3.204,-3.263,-3.3274,-3.3899,-3.4493,-3.5031,-3.5536,-3.5972,-3.632,-3.6499,-3.6635,-3.6646,-3.6804,-3.6882,-3.6871,-3.6714,-3.6635,-3.6601,-3.6517,-3.5611,-3.4224,-3.4573,-3.4861,-3.5055,-3.4814,-3.5416,-3.6343,-3.608,-3.6621,-3.7394,-3.7391,-3.7066,-3.6497,-3.543,-3.4653,-3.4018,-3.3401,-3.3182,-3.2964,-3.2093,-3.1943,-3.1879,-3.1073,-3.0889,-3.0889,-3.0889,-3.0889,-3.0752,-3.0283,-2.9707,-2.8848,-2.7503,-2.7656,-2.7832,-2.7295,-2.8227,-2.915,-2.9883,-3.0361,-3.0703,-3.0869,-3.0889,-3.0703,-3.0234,-2.9814,-2.9268,-2.8564,-2.8125,-2.7764,-2.748,-2.707,-2.6357,-2.5322,-2.4004,-2.1924,0.0,0.0,0.0,0.0,0.0,0.0,0.0,0.0,0.0,0.0,0.0,0.0,0.0,0.0,0.0,0.0,0.0,0.0,0.0,0.0,0.0,0.0,0.0,0.0,0.0,-2.1533,-2.3574,-2.468,-2.6566,-2.7332,-2.623,-2.7733,-2.9081,-3.0028,-3.1195,-3.2612,-3.4364,-3.4881,-3.5254,-3.559,-3.6257,-3.6773,-3.7105,-3.7629,-3.8015,-3.8386,-3.8618,-3.87,-3.87,-3.8876,-3.8958,-3.8946,-3.877,-3.87,-3.8744,-3.9494,-3.8861,-3.7348,-3.7348,-3.7189,-3.7025,-3.7025,-3.7578,-3.8243,-3.8243,-3.8856,-3.9634,-3.927,-3.9145,-3.8917,-3.7616,-3.7239,-3.7031,-3.5885,-3.5604,-3.5296,-3.4149,-3.3845,-3.3473,-3.1988,-3.1662,-3.1498,-3.1005,-3.0889,-3.0889,-3.0889,-3.0644,-3.0019,-2.874,-2.9111,-2.9336,-2.8623,-2.9375,-3.0117,-3.0391,-3.0703,-3.0889,-3.0889,-3.0889,-3.0703,-3.0234,-2.9678,-2.9053,-2.834,-2.7627,-2.7109,-2.6816,-2.6396,-2.582,-2.5135,-2.4092,-2.2588,-2.0576,0.0,0.0,0.0,0.0,0.0,0.0,0.0,0.0,0.0,0.0,0.0,0.0,0.0,0.0,0.0,0.0,0.0,0.0,0.0,0.0,0.0,0.0,0.0,-2.2024,-2.3447,-2.4853,-2.5801,-2.8665,-2.9704,-2.7464,-3.0976,-3.2952,-3.2028,-3.3669,-3.4904,-3.5453,-3.5948,-3.6274,-3.6274,-3.814,-3.9201,-3.9213,-4.0602,-4.1326,-4.1351,-4.1932,-4.2238,-4.225,-4.2791,-4.2974,-4.2949,-4.2464,-4.2238,-4.22,-4.1605,-4.1338,-4.1338,-4.13,-4.0962,-4.0538,-4.0538,-4.0199,-3.9722,-3.9697,-3.9697,-3.9697,-3.9697,-3.9697,-3.9697,-3.9697,-3.9697,-3.9413,-3.7967,-3.7571,-3.7252,-3.5727,-3.5343,-3.5013,-3.3519,-3.318,-3.2804,-3.1334,-3.1054,-3.0995,-3.1005,-3.0947,-3.08,-3.0293,-3.0596,-3.0742,-3.0283,-3.0605,0.0,-3.0889,-3.0889,-3.0889,-3.0889,-3.0889,-3.0703,-3.0234,-2.9414,-2.873,-2.8281,-2.707,-2.6367,-2.6367,-2.5947,-2.5518,-2.5125,-2.3902,-2.3203,-2.311,0.0,0.0,0.0,0.0,0.0,0.0,0.0,0.0,0.0,0.0,0.0,0.0,0.0,0.0,0.0,0.0,0.0,0.0,0.0,0.0,0.0,-2.5763,-2.6733,-2.454,-2.5732,-2.7597,-2.9858,-3.1143,-3.2166,-3.2955,-3.406,-3.5106,-3.5887,-3.675,-3.7827,-3.8997,-3.9562,-3.9855,-3.9855,-4.0395,-4.0896,-4.1335,-4.1755,-4.2133,-4.2522,-4.2685,-4.2748,-4.2816,-4.2911,-4.2974,-4.2974,-4.2823,-4.2748,-4.2791,-4.2585,-4.2522,-4.2446,-4.1589,-4.12,-4.1062,-4.1062,-4.0764,-4.0237,-3.9835,-3.9697,-3.9697,-3.9697,-3.9697,-3.9697,-3.9697,-3.9697,-3.9633,-3.9193,-3.9077,-3.8752,-3.7305,-3.6918,-3.6541,-3.5068,-3.4681,-3.457,-3.4191,-3.408,-3.3754,-3.2701,-3.2473,-3.2109,-3.0877,-3.0801,-3.085,-3.0723,-3.081,0.0,-3.0889,-3.0889,-3.0889,-3.0889,-3.0889,-3.0703,-3.0234,-2.9414,-2.8476,-2.7432,-2.6455,-2.5869,-2.5869,-2.5488,-2.5195,-2.5116,-2.4773,-2.4238,0.0,0.0,0.0,0.0,0.0,0.0,0.0,0.0,0.0,0.0,0.0,0.0,0.0,0.0,0.0,0.0,0.0,0.0,0.0,0.0,0.0,0.0,-2.9544,-3.0453,-2.9257,-2.9796,-3.0768,-3.1915,-3.3519,-3.4745,-3.5266,-3.6445,-3.7358,-3.7774,-3.87,-3.9701,-4.0799,-4.1379,-4.1681,-4.1681,-4.1907,-4.217,-4.2552,-4.2552,-4.2715,-4.2974,-4.2974,-4.2974,-4.2974,-4.2974,-4.2974,-4.2974,-4.2974,-4.2974,-4.2974,-4.2974,-4.2974,-4.2911,0.0,0.0,0.0,0.0,-4.1075,-4.0777,-4.0224,-4.0036,-3.9998,-3.9772,-3.9697,-3.9697,-3.9697,-3.9697,-3.9697,-3.9697,-3.9697,-3.9517,-3.8635,-3.8413,-3.8031,-3.6541,-3.6217,-3.6054,-3.5453,-3.5288,-3.5068,-3.4181,-3.3519,0.0,-3.1988,-3.1334,-3.0889,-3.0889,-3.0889,-3.0889,-3.0889,-3.0889,-3.0889,-3.0889,-3.0889,-3.0703,-3.0234,-2.9414,0.0,0.0,0.0,-2.6006,-2.6006,-2.5762,0.0,0.0,0.0,0.0,0.0,0.0,0.0,0.0,-2.5575,-2.5385,0.0,0.0,0.0,0.0,0.0,0.0,0.0,0.0,0.0,0.0,0.0,0.0,0.0,0.0,0.0,0.0,-3.258,-3.3657,-3.4747,-3.4767,-3.4229,-3.3102,-3.5648,-3.7037,-3.5902,-3.821,-3.9426,-3.8605,-3.9886,-4.0915,-4.1351,-4.1957,0.0,0.0,0.0,-4.2974,-4.2974,-4.2974,-4.2974,-4.2974,-4.2974,-4.3011,-4.3074,-4.2999,-4.3011,-4.3074,-4.3074,-4.3037,-4.2986,-4.3049,-4.3037,-4.2974,-4.2974,-4.274,-4.2238,-4.163,-4.1376,-4.13,-4.0802,0.0,0.0,-4.0036,-3.9835,-3.9785,-3.9785,-3.9747,-3.9697,-3.9697,-3.9697,-3.9697,-3.9697,-3.9697,-3.9362,-3.8072,-3.7743,-3.7412,-3.6054,-3.5793,-3.5727,-3.5563,-3.4515,-3.3508,-3.3191,-3.1872,-3.0889,-3.0889,-3.0889,-3.0889,-3.0889,-3.0889,-3.0889,-3.0889,-3.0889,0.0,-3.0234,-2.9453,-2.8789,-2.832,-2.7226,-2.6602,-2.6602,-2.6738,-2.7129,-2.7793,-2.8262,-2.8877,-2.9648,-3.0488,-3.1152,-3.1592,-2.8486,-2.8281,0.0,0.0,0.0,0.0,0.0,0.0,0.0,0.0,0.0,0.0,0.0,0.0,0.0,0.0,0.0,-3.4919,-3.6268,-3.6953,-3.6932,-3.7895,-3.8092,-3.6701,-3.7074,-3.7861,-3.8752,-3.976,-4.0282,-4.0106,-4.1222,-4.1936,-4.2049,-4.2577,-4.2879,-4.2879,-4.2924,-4.2974,-4.2974,-4.2974,-4.2974,-4.2974,-4.2974,0.0,-4.3627,-4.3187,-4.3225,-4.3639,-4.3639,-4.3388,-4.3011,-4.3463,-4.3376,-4.2974,-4.2974,-4.2911,-4.2748,-4.225,-4.2049,-4.1919,-4.1367,-4.1125,-4.1112,-4.1,-4.0727,-4.0362,-4.0362,-4.0049,0.0,-3.9697,-3.9697,-3.9697,-3.9697,-3.9697,-3.9633,-3.9349,-3.9245,-3.9193,-3.8921,-3.8868,-3.8477,-3.7305,-3.6865,-3.5868,-3.3519,-3.1872,-3.0889,-3.0889,-3.0889,-3.0889,-3.0889,-3.0889,-3.0889,-3.0889,-3.0889,-3.0703,-3.0234,-2.9736,-2.9111,-2.834,-2.8066,-2.792,-2.792,-2.8916,-2.9209,-2.8682,-2.9434,-2.9912,-3.0078,-3.0625,-3.1465,-3.2519,-3.1523,-3.1494,0.0,0.0,0.0,0.0,0.0,0.0,0.0,0.0,0.0,0.0,0.0,-2.9528,-3.1474,0.0,-3.5341,-3.7348,-3.8316,-3.8777,-3.8613,-3.9245,-3.9129,-3.769,-3.8137,-3.8908,-3.9633,-4.0199,-4.0626,-4.0862,-4.1693,-4.2338,-4.2602,-4.2823,-4.2974,-4.2974,-4.2974,-4.2974,-4.2974,-4.2974,-4.3112,-4.3388,-4.3388,-4.3677,-4.4204,-4.3928,-4.3953,-4.4217,-4.4217,-4.4053,-4.3802,-4.3802,-4.3639,-4.3363,-4.3087,-4.2974,-4.2949,-4.2728,-4.2627,-4.2539,-4.1944,-4.1743,-4.1706,-4.1376,-4.0912,-4.0513,-4.0513,-4.0136,-3.9697,-3.9697,-3.9697,-3.9697,-3.9697,-3.9697,-3.9697,-3.9697,-3.9697,-3.9697,-3.9697,-3.9697,-3.9465,-3.8739,-3.8019,-3.7026,-3.5551,-3.408,-3.2871,-3.2092,-3.1988,-3.1988,-3.1988,-3.1392,-3.0889,-3.0889,-3.0889,-3.0801,-3.0566,-3.0137,-2.9609,-2.8975,-2.8935,-2.9023,-2.9238,-2.9853,-3.0107,-2.9912,-3.0537,-3.0859,-3.0859,-3.1523,-3.2168,-3.2803,-3.3018,-3.3232,0.0,0.0,0.0,0.0,0.0,0.0,0.0,-2.6239,-2.7419,-2.9315,-3.1198,-3.3093,-3.5014,-3.6533,-3.7888,-3.8868,-3.9408,-3.9697,-3.9697,-3.9697,-3.9245,-3.8072,-3.8973,-3.9697,-3.9697,-4.0287,-4.0811,-4.125,-4.1944,-4.2564,-4.2949,-4.2974,-4.3024,-4.3137,-4.3137,-4.3187,-4.33,-4.33,-4.3526,-4.3966,-4.3966,-4.4254,-4.4782,-4.4669,-4.4681,-4.4782,-4.4669,-4.4681,-4.4744,-4.4192,-4.3966,-4.3915,-4.3476,-4.3237,-4.3124,-4.3024,-4.2974,-4.2911,-4.2527,-4.2363,-4.2301,-4.1806,-4.1291,-4.084,-4.084,-4.0375,-3.9848,-3.9848,-3.9772,-3.9697,-3.9697,-3.9697,-3.9697,-3.9697,-3.9697,-3.9697,-3.9697,-3.9697,-3.9697,-3.9697,-3.8739,-3.7849,-3.7571,-3.6757,-3.5563,-3.38,-3.3293,-3.3077,-3.3077,-3.1825,-3.0889,-3.0889,-3.0889,-3.0889,-3.0889,-3.0547,-3.0185,-2.9844,-2.9824,-2.998,-3.0322,-3.0332,-3.0547,-3.1006,-3.1348,-3.1601,-3.1768,-3.2461,-3.2881,-3.3066,-3.3828,-3.4189,-2.1832,-2.2406,-2.3647,-2.6703,-2.6427,-2.6954,0.0,-3.2724,-3.2227,-3.4934,-3.6065,-3.6759,-3.75,-3.8216,-3.8881,-3.9496,-3.9647,-3.9697,-3.9697,-3.9697,-3.9633,-3.9465,-3.9581,-3.9697,-3.9697,-4.0639,-4.1225,-4.1275,-4.2296,-4.2911,-4.2974,-4.2974,-4.32,-4.3689,-4.3714,-4.394,-4.443,-4.4443,-4.4468,-4.4531,-4.4531,-4.4832,-4.5372,-4.4857,-4.4895,-4.5359,-4.4844,-4.492,-4.5347,-4.4769,-4.4531,-4.4518,-4.4468,-4.4141,-4.3652,-4.3162,-4.2974,-4.2974,-4.2898,-4.2886,-4.2873,-4.2811,-4.2476,-4.2024,-4.2024,-4.1241,-4.0425,-4.0425,-4.0074,-3.9697,-3.9697,-3.9697,-3.9697,-3.9697,-3.9697,-3.9697,-3.9697,-3.9697,-3.9697,-3.9697,-3.9581,-3.9025,-3.7743,-3.8465,-3.8255,-3.5453,-3.3968,-3.3077,-3.3077,-3.1825,-3.0889,-3.0889,-3.0889,-3.0889,-3.0889,-3.084,-3.0791,-3.0752,-3.0742,-3.0762,-3.081,-3.081,-3.1016,-3.1435,-3.1494,-3.1885,-3.2646,-3.2744,-3.3184,-3.3945,-3.4404,-3.4629,-2.5661,-2.6543,-2.7494,-2.9515,-3.047,-3.1637,-3.4392,-3.4839,-3.514,-3.6948,-3.7776,-3.8329,-3.8881,-3.9182,-3.9421,-3.9647,-3.9697,-3.9697,-3.9697,-3.9697,-3.9572,-3.9245,-3.9496,-3.9697,-3.9697,-4.0689,-4.1288,-4.1288,-4.2359,-4.2974,-4.2974,-4.2974,-4.3237,-4.3777,-4.3802,-4.4066,-4.4618,-4.4618,-4.4794,-4.5121,-4.5121,-4.5422,-4.5962,-4.5711,-4.5736,-4.5949,-4.5711,-4.5736,-4.5924,-4.5359,-4.5121,-4.5095,-4.4756,-4.448,-4.4217,-4.3664,-4.3263,-4.2974,-4.2974,-4.2974,-4.2974,-4.2974,-4.2665,-4.2213,-4.2213,-4.1605,-4.099,-4.099,-4.0774,-4.0576,-4.0262,-4.0174,-4.0086,-3.9772,-3.9697,-3.9697,-3.9697,-3.9697,-3.9697,-3.9697,-3.9697,-3.9517,-3.8908,-3.9297,-3.9297,-3.8043,-3.6595,-3.5661,-3.5661,-3.3631,-3.1883,-3.0995,-3.0889,-3.0889,-3.0889,-3.0889,-3.0889,-3.0889,-3.0889,-3.0889,-3.0889,-3.1123,-3.1338,-3.1514,-3.2002,-3.2441,-3.2793,-3.3037,-3.3476,-3.4082,-3.4502,-3.4844,-2.8123,-2.9453,-3.057,-3.1964,-3.3759,-3.529,-3.5755,-3.6483,-3.7373,-3.8278,-3.8806,-3.917,-3.9421,-3.9597,-3.9647,-3.9484,-3.9597,-3.9697,-3.9697,-3.9559,-3.9371,-3.9132,-3.932,-3.9534,-3.9685,-4.0563,-4.1125,-4.1275,-4.2221,-4.2811,-4.2974,-4.3124,-4.3463,-4.4003,-4.4179,-4.4531,-4.5083,-4.5083,-4.5296,-4.5711,-4.5711,-4.5924,-4.6313,-4.6313,-4.6313,-4.6313,-4.6313,-4.6313,-4.6276,-4.5886,-4.5711,-4.5673,-4.5246,-4.4995,-4.4794,-4.4229,-4.3677,-4.3187,-4.3024,-4.2974,-4.2974,-4.2974,-4.2766,-4.2439,-4.2439,-4.1995,-4.1568,-4.1568,-4.1401,-4.12,-4.0852,-4.0626,-4.0413,-4.0011,-3.9798,-3.9697,-3.9697,-3.9697,-3.9697,-3.9697,-3.9697,-3.9697,-3.9697,-3.9697,-3.9697,-3.9697,-3.8804,-3.7967,-3.7571,-3.4936,-3.253,-3.1054,-3.0889,-3.0889,-3.0889,-3.0889,-3.0889,-3.0889,-3.0889,-3.0889,-3.0889,-3.1299,-3.1572,-3.1699,-3.2422,-3.2851,-3.2969,-3.3389,-3.3818,-3.4258,-3.4687,-3.5127,-2.8109,-2.9704,-3.1863,-3.4073,-3.5479,-3.6782,-3.8429,-3.8818,-3.9007,-3.9521,-3.9659,-3.9509,-3.9045,-3.9333,-3.9521,-3.8981,-3.9346,-3.9697,-3.9697,-3.9233,-3.9082,-3.9609,-3.9207,-3.9107,-3.9647,-4.0212,-4.0764,-4.125,-4.1856,-4.2464,-4.2949,-4.3489,-4.4028,-4.4581,-4.5146,-4.5698,-4.625,-4.6263,-4.6276,-4.6288,-4.6288,-4.6288,-4.6313,-4.6313,-4.6313,-4.6313,-4.6313,-4.6313,-4.6313,-4.6288,-4.6288,-4.6288,-4.6276,-4.5937,-4.5397,-4.4819,-4.4254,-4.3702,-4.3162,-4.2974,-4.2974,-4.2974,-4.2974,-4.2949,-4.2949,-4.2627,-4.2187,-4.2187,-4.1743,-4.1288,-4.1263,-4.0862,-4.0513,-4.0488,-4.0086,-3.9697,-3.9697,-3.9697,-3.9697,-3.9697,-3.9697,-3.9697,-3.9697,-3.9697,-3.9697,-3.9697,-3.9645,-3.9141,-3.7678,-3.4936,-3.253,-3.1054,-3.0889,-3.0889,-3.0889,-3.0889,-3.0889,-3.0889,-3.0889,-3.0889,-3.0889,-3.1299,-3.1719,-3.2139,-3.2578,-3.2998,-3.3408,-3.3838,-3.4267,-3.4687,-3.5156,-3.5596,-3.1126,-3.3281,-3.5309,-3.715,-3.8491,-3.9791,-4.1563,-4.1314,-4.083,-4.1439,-4.1224,-4.0708,-4.0087,-3.9493,-3.9139,-3.9333,-3.9244,-3.927,-3.9647,-3.9534,-3.9346,-3.917,-3.9308,-3.9346,-3.917,-3.9986,-4.0752,-4.125,-4.1844,-4.2615,-4.3476,-4.3702,-4.4229,-4.5171,-4.5384,-4.5748,-4.6301,-4.6313,-4.6313,-4.6313,-4.6313,-4.6313,-4.6313,-4.6313,-4.6313,-4.6313,-4.6313,-4.6313,-4.6313,-4.6313,-4.6313,-4.6313,-4.6313,-4.62,-4.5962,-4.5397,-4.4832,-4.4217,-4.33,-4.2974,-4.2974,-4.2974,-4.2974,-4.2974,-4.2974,-4.2848,-4.2753,-4.2753,-4.2572,-4.2346,-4.1969,-4.1743,-4.1517,-4.1153,-4.0862,-4.0689,-4.0325,-4.0237,-4.0136,-3.9772,-3.9697,-3.9697,-3.9697,-3.9697,-3.9697,-3.9697,-3.9697,-3.9193,-3.769,-3.6638,-3.5057,-3.2644,-3.2369,-3.1988,-3.1005,-3.0889,-3.0889,-3.0889,-3.1152,-3.1309,-3.1309,-3.1992,-3.2441,-3.2578,-3.2998,-3.3281,-3.3418,-3.3574,-3.4004,-3.4707,-3.4863,-3.5322,-3.45,-3.6627,-3.8276,-3.9968,-4.1059,-4.2085,-4.3217,-4.2671,-4.1908,-4.1786,-4.1265,-4.0464,-3.9333,-3.8421,-3.8214,-3.9441,-3.9268,-3.9301,-4.0223,-4.0185,-3.9944,-3.9497,-3.9597,-3.971,-3.9747,-4.0388,-4.0912,-4.1263,-4.1844,-4.269,-4.374,-4.3991,-4.4518,-4.546,-4.5686,-4.5949,-4.6313,-4.6313,-4.6313,-4.6313,-4.6313,-4.6313,-4.6313,-4.6313,-4.6313,-4.6313,-4.6313,-4.6313,-4.6313,-4.6313,-4.6313,-4.6313,-4.6313,-4.6313,-4.625,-4.5698,-4.5246,-4.4769,-4.3664,-4.3137,-4.2974,-4.2974,-4.2974,-4.2974,-4.2974,-4.2974,-4.2974,-4.2974,-4.2974,-4.2898,-4.2602,-4.2351,-4.2125,-4.1706,-4.148,-4.1137,-4.0639,-4.0513,-4.035,-3.9798,-3.9697,-3.9697,-3.9697,-3.9697,-3.9697,-3.9697,-3.9697,-3.9193,-3.769,-3.7518,-3.6584,-3.4125,-3.3406,-3.269,-3.1767,-3.1357,-3.1113,-3.1113,-3.1514,-3.1748,-3.1748,-3.2422,-3.2793,-3.2793,-3.3203,-3.3418,-3.3418,-3.373,-3.416,-3.4707,-3.5029,-3.5469,-3.7945,-3.9494,-4.0805,-4.2435,-4.3216,-4.3585,-4.361,-4.3031,-4.209,-4.0794,-3.9933,-3.8886,-3.6975,-3.6404,-3.6917,-3.918,-3.9303,-3.9719,-4.1308,-4.1133,-4.0718,-4.057,-4.0099,-4.0187,-4.1188,-4.1313,-4.1338,-4.1363,-4.1907,-4.274,-4.3777,-4.4367,-4.4932,-4.551,-4.6037,-4.6313,-4.6313,-4.6313,-4.6313,-4.6313,-4.6313,-4.6313,-4.6313,-4.6313,-4.6313,-4.6313,-4.6313,-4.6313,-4.6313,-4.6313,-4.6313,-4.6313,-4.6313,-4.6313,-4.625,-4.5723,-4.551,-4.5334,-4.4229,-4.3476,-4.3024,-4.2986,-4.2974,-4.2974,-4.2974,-4.2974,-4.2974,-4.2974,-4.2974,-4.2974,-4.2974,-4.264,-4.225,-4.225,-4.1794,-4.1213,-4.0714,-4.0601,-4.0425,-3.9848,-3.971,-3.9697,-3.9697,-3.9722,-3.9735,-3.9735,-3.976,-3.9256,-3.7808,-3.7624,-3.7049,-3.5597,-3.4112,-3.3222,-3.3197,-3.2151,-3.1553,-3.1553,-3.1963,-3.2207,-3.2207,-3.2607,-3.2832,-3.2832,-3.3223,-3.3418,-3.3418,-3.4258,-3.4678,-3.4717,-3.5586,-3.5996,-4.0645,-4.2396,-4.3684,-4.4507,-4.4804,-4.4903,-4.4865,-4.3603,-4.2038,-4.0698,-3.9481,-3.8106,-3.6169,-3.6625,-3.7318,-3.7386,-3.8662,-3.9886,-4.0644,-4.0669,-4.0691,-4.104,-4.1003,-4.0974,-4.1263,-4.1706,-4.212,-4.2534,-4.2685,-4.325,-4.4355,-4.4957,-4.5522,-4.6087,-4.6238,-4.6313,-4.6313,-4.6313,-4.6313,-4.6313,-4.6313,-4.6313,-4.6313,-4.6313,-4.6313,-4.6313,-4.6313,-4.6313,-4.6313,-4.6313,-4.6313,-4.6313,-4.6313,-4.6313,-4.6288,-4.615,-4.5836,-4.5384,-4.4669,-4.4053,-4.3526,-4.3112,-4.2974,-4.2974,-4.2974,-4.2974,-4.2974,-4.2974,-4.2974,-4.2974,-4.2974,-4.2873,-4.2828,-4.2828,-4.266,-4.2409,-4.1856,-4.1798,-4.1455,-4.0488,-3.9973,-3.9697,-3.9697,-4.0036,-4.0312,-4.0312,-4.0664,-4.0455,-3.9293,-3.9129,-3.8741,-3.7675,-3.616,-3.4899,-3.4228,-3.2844,-3.2002,-3.2002,-3.2402,-3.2637,-3.2637,-3.3037,-3.3262,-3.3262,-3.3369,-3.3418,-3.3418,-3.3965,-3.4394,-3.4707,-3.5293,-3.5723,-4.3566,-4.4936,-4.5859,-4.6167,-4.5991,-4.5477,-4.4314,-4.2706,-4.0725,-3.7938,-3.6761,-3.5564,-3.332,-3.4449,-3.578,-3.6133,-3.8053,-3.9741,-4.0525,-4.1042,-4.1307,-4.132,-4.1543,-4.1794,-4.2032,-4.2333,-4.2748,-4.33,-4.3338,-4.3827,-4.4945,-4.5309,-4.5748,-4.6288,-4.6313,-4.6313,-4.6313,-4.6313,-4.6313,-4.6313,-4.6313,-4.6313,-4.6313,-4.6313,-4.6313,-4.6313,-4.6313,-4.6313,-4.6313,-4.6313,-4.6313,-4.6313,-4.6313,-4.6313,-4.6313,-4.6313,-4.6112,-4.5761,-4.5196,-4.4631,-4.4028,-4.3237,-4.2974,-4.2974,-4.2974,-4.2974,-4.2974,-4.2974,-4.2974,-4.2974,-4.2974,-4.2974,-4.2974,-4.2974,-4.2974,-4.2823,-4.2326,-4.2213,-4.1949,-4.104,-4.0626,-4.0413,-4.0413,-4.0676,-4.0824,-4.0824,-4.1087,-4.1062,-4.0488,-4.0413,-4.0196,-3.9695,-3.8253,-3.7109,-3.6528,-3.5339,-3.425,-3.3548,-3.3892,-3.3773,-3.3066,-3.3301,-3.3516,-3.3701,-3.3711,-3.3799,-3.3984,-3.4434,-3.4775,-3.5019,-3.5459,-3.5791,-4.607,-4.6875,-4.7279,-4.7189,-4.6621,-4.5334,-4.2635,-4.0816,-3.8482,-3.4023,-3.2961,-3.2123,-2.9771,-3.135,-3.3556,-3.5282,-3.7538,-3.9573,-4.0914,-4.1875,-4.2215,-4.1717,-4.2028,-4.2502,-4.2924,-4.3037,-4.3313,-4.3865,-4.3978,-4.4455,-4.5434,-4.556,-4.5811,-4.6301,-4.6313,-4.6313,-4.6313,-4.6313,-4.6313,-4.6313,-4.6313,-4.6313,-4.6313,-4.6313,-4.6313,-4.6313,-4.6313,-4.6313,-4.6313,-4.6313,-4.6313,-4.6313,-4.6313,-4.6313,-4.6313,-4.6313,-4.6313,-4.6225,-4.5686,-4.5108,-4.4455,-4.3426,-4.3037,-4.2974,-4.2974,-4.2974,-4.2974,-4.2974,-4.2974,-4.2974,-4.2974,-4.2974,-4.2974,-4.2974,-4.2974,-4.2848,-4.2426,-4.2263,-4.2074,-4.1543,-4.1326,-4.1288,-4.1288,-4.1351,-4.1388,-4.1388,-4.1463,-4.1501,-4.1501,-4.1376,-4.1313,-4.1388,-4.0062,-3.9209,-3.928,-3.8275,-3.7067,-3.5699,-3.5707,-3.515,-3.3776,-3.3544,-3.3633,-3.4062,-3.4072,-3.4277,-3.4697,-3.5166,-3.5391,-3.54,-3.583,-3.6016,-4.692,-4.7219,-4.7174,-4.6636,-4.5574,-4.3838,-4.0651,-3.8078,-3.534,-3.1764,-3.0178,-2.9131,-2.8139,-3.0499,-3.3073,-3.4489,-3.7367,-4.021,-4.2546,-4.2547,-4.2653,-4.3506,-4.316,-4.2873,-4.2974,-4.3388,-4.3878,-4.4443,-4.492,-4.5284,-4.5485,-4.5924,-4.6213,-4.6313,-4.6313,-4.6313,-4.6313,-4.6313,-4.6313,-4.6313,-4.6313,-4.6313,-4.6313,-4.6313,-4.6313,-4.6313,-4.6313,-4.6313,-4.6313,-4.6313,-4.6313,-4.6313,-4.6313,-4.6313,-4.6313,-4.6313,-4.6313,-4.6225,-4.5686,-4.5108,-4.4518,-4.3865,-4.335,-4.2974,-4.2974,-4.2974,-4.2974,-4.2974,-4.2974,-4.2974,-4.2974,-4.2974,-4.2974,-4.2974,-4.2974,-4.2949,-4.2848,-4.2527,-4.2187,-4.2087,-4.1643,-4.1288,-4.1288,-4.1706,-4.2062,-4.2062,-4.2409,-4.2698,-4.2698,-4.1894,-4.1517,-4.1969,-4.0609,-3.9855,-4.0283,-3.8928,-3.7981,-3.7673,-3.6485,-3.5683,-3.5386,-3.4143,-3.3633,-3.4062,-3.4072,-3.4277,-3.4697,-3.5166,-3.5391,-3.54,-3.583,-3.6016,-4.7025,-4.7309,-4.7145,-4.6486,-4.5009,-4.2776,-3.8796,-3.5848,-3.2811,-2.8786,-2.747,-2.6737,-2.5704,-2.8502,-3.1235,-3.1954,-3.4825,-3.8014,-4.1018,-4.1002,-4.1476,-4.3375,-4.3243,-4.3087,-4.3376,-4.3639,-4.4154,-4.5008,-4.5334,-4.561,-4.5899,-4.6175,-4.6313,-4.6313,-4.6313,-4.6313,-4.6313,-4.6313,-4.6313,-4.6313,-4.6313,-4.6313,-4.6313,-4.6313,-4.6313,-4.6313,-4.6313,-4.6313,-4.6313,-4.6313,-4.6313,-4.6313,-4.6313,-4.6313,-4.6313,-4.6313,-4.6313,-4.6276,-4.6012,-4.5547,-4.4982,-4.4418,-4.3664,-4.2974,-4.2974,-4.2974,-4.2974,-4.2974,-4.2974,-4.2974,-4.2974,-4.2974,-4.2974,-4.2974,-4.2974,-4.2974,-4.2974,-4.2828,-4.264,-4.264,-4.2371,-4.2195,-4.2195,-4.2409,-4.264,-4.264,-4.2866,-4.2974,-4.2974,-4.2522,-4.2296,-4.2615,-4.1935,-4.156,-4.183,-4.1133,-4.0467,-3.9905,-3.8107,-3.6936,-3.6561,-3.4792,-3.4072,-3.4746,-3.4766,-3.4961,-3.5391,-3.5605,-3.5723,-3.5723,-3.5928,-3.6016,-4.677,-4.7189,-4.7115,-4.6307,-4.4496,-4.1743,-3.73,-3.3993,-3.0687,-2.6482,-2.5375,-2.4896,-2.3984,-2.6512,-2.904,-3.0011,-3.2522,-3.5666,-3.934,-3.9769,-4.0601,-4.2902,-4.3077,-4.315,-4.3576,-4.384,-4.4342,-4.5234,-4.5522,-4.5849,-4.6288,-4.6313,-4.6313,-4.6313,-4.6313,-4.6313,-4.6313,-4.6313,-4.6313,-4.6313,-4.6313,-4.6313,-4.6313,-4.6313,-4.6313,-4.6313,-4.6313,-4.6313,-4.6313,-4.6313,-4.6313,-4.6313,-4.6313,-4.6313,-4.6313,-4.6313,-4.6313,-4.6313,-4.6313,-4.5949,-4.5409,-4.4957,-4.4066,-4.3137,-4.3011,-4.2974,-4.2974,-4.2974,-4.2974,-4.2974,-4.2974,-4.2974,-4.2974,-4.2974,-4.2974,-4.2974,-4.2974,-4.2974,-4.2974,-4.2974,-4.2974,-4.2974,-4.2974,-4.2974,-4.2974,-4.2974,-4.2974,-4.2974,-4.2974,-4.2974,-4.2974,-4.2974,-4.2974,-4.2974,-4.2974,-4.2974,-4.268,-4.195,-4.0034,-3.858,-3.7846,-3.586,-3.4952,-3.5381,-3.5391,-3.5596,-3.6016,-3.6016,-3.6016,-3.6016,-3.6016,-3.6016,-4.6217,-4.686,-4.6995,-4.5708,-4.3464,-4.0516,-3.6507,-3.2617,-2.9041,-2.6198,-2.4642,-2.3939,-2.4425,-2.5307,-2.7151,-3.0741,-3.2601,-3.5196,-3.9788,-4.0766,-4.1571,-4.3056,-4.3077,-4.2999,-4.3049,-4.3953,-4.4593,-4.4694,-4.5648,-4.625,-4.6313,-4.6313,-4.6313,-4.6313,-4.6313,-4.6313,-4.6313,-4.6313,-4.6313,-4.6313,-4.6313,-4.6313,-4.6313,-4.6313,-4.6313,-4.6313,-4.6313,-4.6313,-4.6313,-4.6313,-4.6313,-4.6313,-4.6313,-4.6313,-4.6313,-4.6313,-4.6313,-4.6313,-4.6313,-4.5949,-4.5485,-4.5434,-4.4644,-4.3627,-4.3124,-4.2974,-4.2974,-4.2974,-4.2974,-4.2974,-4.2974,-4.2974,-4.2974,-4.2974,-4.2974,-4.2974,-4.2974,-4.2974,-4.2974,-4.2974,-4.2974,-4.2974,-4.2974,-4.2974,-4.2974,-4.2974,-4.2974,-4.2974,-4.2974,-4.2974,-4.2974,-4.2974,-4.2974,-4.2974,-4.2974,-4.2974,-4.3156,-4.3524,-4.1997,-4.0652,-3.9494,-3.7899,-3.651,-3.5448,-3.5391,-3.5596,-3.6016,-3.6016,-3.6016,-3.6016,-3.6016,-3.6016,-4.5095,-4.6202,-4.6486,-4.5529,-4.3314,-4.0352,-3.6402,-3.2437,-2.8858,-2.6153,-2.4537,-2.3684,-2.3954,-2.4545,-2.604,-2.925,-3.0208,-3.2333,-3.7369,-3.8214,-3.9224,-4.1713,-4.2276,-4.2856,-4.3859,-4.4367,-4.4907,-4.5585,-4.605,-4.6313,-4.6313,-4.6313,-4.6313,-4.6313,-4.6313,-4.6313,-4.6313,-4.6313,-4.6313,-4.6313,-4.6313,-4.6313,-4.6313,-4.6313,-4.6313,-4.6313,-4.6313,-4.6313,-4.6313,-4.6313,-4.6313,-4.6313,-4.6313,-4.6313,-4.6313,-4.6313,-4.6313,-4.6313,-4.6313,-4.6175,-4.5937,-4.5598,-4.4945,-4.4192,-4.3639,-4.3237,-4.2974,-4.2974,-4.2974,-4.2974,-4.2974,-4.2974,-4.2974,-4.2974,-4.2974,-4.2974,-4.2974,-4.2974,-4.2974,-4.2974,-4.2974,-4.2974,-4.2974,-4.2974,-4.2974,-4.2974,-4.2974,-4.2974,-4.2974,-4.2974,-4.2974,-4.2974,-4.2974,-4.2974,-4.2974,-4.3288,-4.3714,-4.4267,-4.2834,-4.1558,-4.0628,-3.8722,-3.7092,-3.5762,-3.5771,-3.585,-3.6016,-3.6016,-3.6016,-3.6016,-3.6016,-3.6162,-4.3344,-4.4781,-4.5233,-4.4586,-4.2447,-3.9514,-3.5774,-3.1988,-2.8532,-2.5869,-2.4403,-2.3595,-2.3595,-2.4141,-2.5352,-2.7634,-2.8502,-3.0544,-3.5267,-3.6368,-3.7735,-4.0621,-4.1649,-4.259,-4.3763,-4.4301,-4.5095,-4.6225,-4.6313,-4.6313,-4.6313,-4.6313,-4.6313,-4.6313,-4.6313,-4.6313,-4.6313,-4.6313,-4.6313,-4.6313,-4.6313,-4.6313,-4.6313,-4.6313,-4.6313,-4.6313,-4.6313,-4.6313,-4.6313,-4.6313,-4.6313,-4.6313,-4.6313,-4.6313,-4.6313,-4.6313,-4.6313,-4.6313,-4.6313,-4.6313,-4.6225,-4.566,-4.5095,-4.4518,-4.3966,-4.3413,-4.2974,-4.2974,-4.2974,-4.2974,-4.2974,-4.2974,-4.2974,-4.2974,-4.2974,-4.2974,-4.2974,-4.2974,-4.2974,-4.2974,-4.2974,-4.2974,-4.2974,-4.2974,-4.2974,-4.2974,-4.2974,-4.2974,-4.2974,-4.2974,-4.2974,-4.2974,-4.2974,-4.2974,-4.2974,-4.3338,-4.3865,-4.4581,-4.3588,-4.2649,-4.1965,-3.9949,-3.8196,-3.6789,-3.6278,-3.6016,-3.6016,-3.6016,-3.6016,-3.6025,-3.6152,-3.6514,-4.0876,-4.2372,-4.321,-4.259,-4.0419,-3.7554,-3.4262,-3.0971,-2.7859,-2.5158,-2.4066,-2.3595,-2.3595,-2.4141,-2.5038,-2.6393,-2.8304,-3.0777,-3.4145,-3.6148,-3.807,-4.0172,-4.1474,-4.2152,-4.2143,-4.3653,-4.5095,-4.6225,-4.6313,-4.6313,-4.6313,-4.6313,-4.6313,-4.6313,-4.6313,-4.6313,-4.6313,-4.6313,-4.6313,-4.6313,-4.6313,-4.6313,-4.6313,-4.6313,-4.6313,-4.6313,-4.6313,-4.6313,-4.6313,-4.6313,-4.6313,-4.6313,-4.6313,-4.6313,-4.6313,-4.6313,-4.6313,-4.6313,-4.6313,-4.6313,-4.6225,-4.566,-4.5095,-4.4518,-4.3966,-4.3413,-4.2974,-4.2974,-4.2974,-4.2974,-4.2974,-4.2974,-4.2974,-4.2974,-4.2974,-4.2974,-4.2974,-4.2974,-4.2974,-4.2974,-4.2974,-4.2974,-4.2974,-4.2974,-4.2974,-4.2974,-4.2974,-4.2974,-4.2974,-4.2974,-4.2974,-4.2974,-4.2974,-4.2974,-4.2974,-4.2986,-4.3451,-4.4556,-4.456,-4.4304,-4.3683,-4.2063,-4.0343,-3.8608,-3.6856,-3.6016,-3.6016,-3.6016,-3.6016,-3.6035,-3.6465,-3.7109,-3.6271,-3.7644,-3.8377,-3.7289,-3.6031,-3.4307,-3.1465,-2.9337,-2.73,-2.5053,-2.4066,-2.3595,-2.3595,-2.3774,-2.5091,-2.8682,-2.9804,-3.1558,-3.5351,-3.7192,-3.8823,-4.0802,-4.323,-4.4335,-4.3347,-4.4049,-4.4932,-4.5698,-4.5748,-4.5912,-4.6288,-4.6313,-4.6313,-4.6313,-4.6313,-4.6313,-4.6313,-4.6313,-4.6313,-4.6313,-4.6313,-4.6313,-4.6313,-4.6313,-4.6313,-4.6313,-4.6313,-4.6313,-4.6313,-4.6313,-4.6313,-4.6313,-4.6313,-4.6313,-4.6313,-4.6313,-4.6313,-4.6313,-4.6313,-4.6313,-4.6225,-4.566,-4.5095,-4.4518,-4.3966,-4.3413,-4.2974,-4.2974,-4.2974,-4.2974,-4.2974,-4.2974,-4.2974,-4.2974,-4.2974,-4.2974,-4.2974,-4.2974,-4.2974,-4.2974,-4.2974,-4.2974,-4.2974,-4.2974,-4.2974,-4.2974,-4.2974,-4.2974,-4.2974,-4.2974,-4.3124,-4.3501,-4.32,-4.2974,-4.2974,-4.3325,-4.3853,-4.4581,-4.4995,-4.4784,-4.3757,-4.2074,-4.0408,-3.8608,-3.6866,-3.6016,-3.6016,-3.6016,-3.6172,-3.6475,-3.6904,-3.7392,-3.1988,-3.3604,-3.4412,-3.3574,-3.2691,-3.145,-2.9337,-2.7824,-2.6333,-2.4575,-2.3894,-2.3595,-2.3595,-2.3819,-2.5016,-2.8143,-2.9505,-3.1465,-3.5237,-3.7296,-3.9358,-4.1751,-4.3939,-4.4904,-4.3921,-4.4137,-4.4556,-4.5121,-4.5158,-4.5309,-4.5648,-4.5673,-4.5673,-4.5673,-4.6087,-4.6313,-4.6313,-4.61,-4.5999,-4.5999,-4.5999,-4.5999,-4.6012,-4.6213,-4.6313,-4.6313,-4.6313,-4.6313,0.0,-4.6313,-4.6313,-4.6313,-4.6313,-4.6313,-4.6313,-4.6313,-4.6313,-4.6313,-4.6313,-4.6313,-4.6188,-4.5409,-4.4631,-4.394,-4.3589,-4.325,-4.2974,-4.2974,-4.2974,-4.2974,-4.2974,-4.2974,-4.2974,-4.2974,-4.2974,-4.2974,-4.2974,-4.2974,-4.2974,-4.2974,-4.2974,-4.2974,-4.2974,-4.2974,-4.2974,-4.2974,-4.2974,-4.3049,-4.3263,-4.3288,-4.3501,-4.4053,-4.3802,-4.3589,-4.3589,-4.3727,-4.4129,-4.4895,-4.5284,-4.5221,-4.467,-4.2454,-4.0666,-3.9573,-3.725,-3.6016,-3.6016,-3.6016,-3.6328,-3.6914,-3.7178,-3.7607,0.0,-2.9939,-3.0928,-3.0838,-2.9953,-2.8783,-2.748,-2.6243,0.0,-2.3789,-2.3535,-2.3595,-2.3774,-2.4276,-2.5008,-2.6078,-2.8308,-3.1119,-3.4459,-3.724,-4.0089,-4.3098,-4.3989,-4.4294,-4.3993,-4.3811,-4.3978,-4.4518,-4.4568,-4.4581,-4.4618,-4.4618,-4.4618,-4.4618,-4.5648,-4.6188,-4.6188,-4.5686,-4.5434,-4.5434,-4.5434,-4.5434,-4.5447,-4.5949,-4.6188,-4.6188,-4.6238,-4.625,-4.625,-4.6288,-4.6288,-4.625,-4.625,-4.6225,-4.6188,-4.6188,-4.6188,-4.6188,-4.6188,-4.6188,-4.6012,-4.492,-4.384,-4.2974,-4.2974,-4.2974,-4.2974,-4.2974,-4.2974,-4.2974,-4.2974,-4.2974,-4.2974,-4.2974,-4.2974,-4.2974,-4.2974,-4.2974,-4.2974,-4.2974,-4.2974,-4.2974,-4.2974,-4.2974,-4.2974,-4.2974,-4.3011,-4.3225,-4.374,-4.3827,-4.4066,-4.4631,-4.4656,-4.4656,-4.4731,-4.4204,-4.433,-4.5422,-4.5485,-4.5736,-4.6288,-4.3107,-4.1373,-4.1373,-3.7955,-3.6152,-3.6016,-3.6016,-3.6465,-3.7295,-3.7295,-3.7754,-2.2527,0.0,-2.5226,-2.4253,-2.4148,-2.411,0.0,-2.3242,-2.3302,-2.2987,-2.2912,-2.3526,-2.5525,-2.56,-2.6916,-3.1629,-3.2946,-3.4651,-3.8467,-4.2162,-4.4551,-4.4802,-4.5793,-4.597,-4.4864,-4.3793,-4.3401,-4.3953,-4.4003,-4.4179,-4.4606,-4.4618,-4.4618,-4.4618,-4.4882,-4.502,-4.502,-4.4882,-4.4832,-4.4832,-4.4832,-4.4832,-4.4832,-4.4957,-4.502,-4.5045,-4.5485,-4.5686,-4.5711,-4.6137,-4.6062,-4.5686,-4.5686,-4.5409,-4.502,-4.502,-4.502,-4.502,-4.502,-4.502,-4.4907,-4.4217,-4.3526,-4.2974,-4.2974,-4.2974,-4.2974,-4.2974,-4.2974,-4.2974,-4.2974,-4.2974,-4.2974,-4.2974,-4.2974,-4.2974,-4.2974,-4.2974,-4.2974,-4.2974,-4.2974,-4.2974,-4.2974,-4.2974,-4.2974,-4.2974,-4.3338,-4.3652,-4.3777,-4.4166,-4.4656,-4.5221,-4.4895,-4.497,-4.5836,-4.5008,-4.4731,-4.5447,-4.5485,-4.5736,-4.6288,-4.4251,-4.3083,-4.3083,-3.9758,-3.7317,-3.6016,-3.6016,-3.6465,-3.7295,-3.7295,-3.7754,-2.0831,-2.2631,-2.4358,-2.367,-2.3984,-2.4395,-2.4029,-2.3505,-2.3122,-2.3122,-2.3122,-2.3714,-2.5764,-2.6093,-2.7515,-3.1928,-3.371,-3.6178,-4.1055,-4.49,-4.6725,-4.5344,-4.6915,-4.6991,-4.4318,-4.3962,-4.4035,-4.4344,-4.3794,-4.3821,-4.475,-4.4181,-4.3865,-4.3865,-4.3865,-4.4116,-4.4618,-4.4367,-4.4242,-4.4242,-4.4242,-4.4242,-4.4254,-4.4505,-4.4618,-4.4644,-4.4957,-4.5095,-4.5121,-4.5409,-4.5359,-4.5095,-4.5095,-4.4895,-4.4618,-4.4618,-4.4618,-4.4618,-4.4618,-4.4455,-4.4204,-4.3903,-4.3426,-4.2974,-4.2974,-4.2974,-4.2974,-4.2974,-4.2974,-4.2974,-4.2974,-4.2974,-4.2974,-4.2974,-4.2974,-4.2974,-4.2974,-4.2974,-4.2974,-4.2974,-4.2974,-4.2974,-4.2974,-4.2974,-4.3062,-4.3313,-4.3614,-4.3991,-4.4505,-4.4832,-4.5234,-4.5811,-4.5585,-4.5648,-4.6263,-4.5748,-4.5535,-4.5849,-4.5861,-4.5999,-4.6301,-4.4632,-4.3345,-4.258,-3.9953,-3.8154,-3.7183,-3.6413,-3.6465,-3.7295,-3.7295,-3.7754,-2.1386,-2.3716,-2.5843,-2.5166,-2.5734,-2.6378,-2.6183,-2.4822,-2.3625,-2.3729,-2.3834,-2.4403,-2.6048,-2.6976,-2.8412,-3.1255,-3.4023,-3.7659,-4.2856,-4.6322,-4.7639,-4.5964,-4.7785,-4.7822,-4.4264,-4.4576,-4.5102,-4.5302,-4.3852,-4.3602,-4.4941,-4.3755,-4.2974,-4.2974,-4.2974,-4.3426,-4.4367,-4.3903,-4.3677,-4.3677,-4.3677,-4.3677,-4.3689,-4.4166,-4.4367,-4.438,-4.4455,-4.4505,-4.4505,-4.4593,-4.4568,-4.4505,-4.4505,-4.4443,-4.4367,-4.4367,-4.4367,-4.4367,-4.4367,-4.4066,-4.3677,-4.3677,-4.3363,-4.2974,-4.2974,-4.2974,-4.2974,-4.2974,-4.2974,-4.2974,-4.2974,-4.2974,-4.2974,-4.2974,-4.2974,-4.2974,-4.2974,-4.2974,-4.2974,-4.2974,-4.2974,-4.2974,-4.2974,-4.2974,-4.3137,-4.3601,-4.3815,-4.4267,-4.5234,-4.551,-4.5799,-4.6263,-4.6313,-4.6313,-4.6313,-4.6313,-4.6313,-4.6313,-4.6313,-4.6313,-4.6313,-4.489,-4.3283,-4.1629,-3.9888,-3.8861,-3.8608,-3.6856,-3.6465,-3.7295,-3.7295,-3.7754,-2.3185,-2.5749,-2.6923,-2.3221,-2.4044,-2.5465,-2.4313,-2.3819,-2.3759,-2.4335,-2.4889,-2.6213,-2.9205,-3.0776,-3.2826,-3.6567,-3.9873,-4.2647,-4.4706,-4.689,-4.8388,-4.8636,-4.9004,-4.895,-4.8339,-4.6279,-4.5502,-4.6695,-4.4427,-4.3602,-4.4941,-4.3755,-4.2974,-4.2974,-4.2974,-4.3062,-4.3225,-4.3137,-4.3099,-4.3099,-4.3099,-4.3099,-4.3112,-4.3187,-4.3237,-4.3263,-4.3727,-4.3928,-4.3966,-4.443,-4.4355,-4.3928,-4.3928,-4.3639,-4.3237,-4.3237,-4.3237,-4.3237,-4.3237,-4.3175,-4.3099,-4.3099,-4.3049,-4.2974,-4.2974,-4.2974,-4.2974,-4.2974,-4.2974,-4.2974,-4.2974,-4.2974,-4.2974,-4.2974,-4.2974,-4.2974,-4.2974,-4.2974,-4.2974,-4.2974,-4.2974,-4.2974,-4.2974,-4.2974,-4.2999,-4.3087,-4.3903,-4.4556,-4.4731,-4.5585,-4.6225,-4.6301,-4.6313,-4.6313,-4.6313,-4.6313,-4.6313,-4.6313,-4.6313,-4.6313,-4.6313,-4.6047,-4.5086,-4.3345,-4.1681,-4.0083,-3.8608,-3.6856,-3.6465,-3.7295,-3.7295,-3.7754,-2.2242,-2.4787,-2.6619,-2.4364,-2.6602,-2.9175,-2.8562,-2.759,-2.6916,-2.7245,-2.7545,-2.8427,-3.0629,-3.2437,-3.51,-3.982,-4.2701,-4.4736,-4.5708,-4.7264,-4.8283,-4.8194,-4.9104,-4.9286,-4.8197,-4.7568,-4.7568,-4.8175,-4.5661,-4.4684,-4.6069,-4.4113,-4.2974,-4.2974,-4.2974,-4.2974,-4.2974,-4.2974,-4.2974,-4.2974,-4.2974,-4.2974,-4.2974,-4.2974,-4.2974,-4.2986,-4.325,-4.3363,-4.3376,-4.3627,-4.3589,-4.3363,-4.3363,-4.32,-4.2974,-4.2974,-4.2974,-4.2974,-4.2974,-4.2974,-4.2974,-4.2974,-4.2974,-4.2974,-4.2974,-4.2974,-4.2974,-4.2974,-4.2974,-4.2974,-4.2974,-4.2974,-4.2974,-4.2974,-4.2974,-4.2974,-4.2974,-4.2974,-4.2974,-4.2974,-4.2974,-4.2974,-4.2974,-4.2974,-4.3187,-4.3777,-4.4305,-4.4844,-4.546,-4.5987,-4.6313,-4.6313,-4.6313,-4.6313,-4.6313,-4.6313,-4.6313,-4.6313,-4.6313,-4.6313,-4.6313,-4.6313,-4.5926,-4.5147,-4.3408,-4.1681,-4.0018,-3.8277,-3.7375,-3.7295,-3.7295,-3.7754,-2.1824,-2.4069,-2.6352,-2.6498,-2.9205,-3.1988,-3.2602,-3.1345,-3.0223,-3.0836,-3.1119,-3.1509,-3.2482,-3.4681,-3.7783,-4.2156,-4.4481,-4.5948,-4.6471,-4.7549,-4.8075,-4.7544,-4.8959,-4.9348,-4.7758,-4.8438,-4.9092,-4.9398,-4.6665,-4.5608,-4.6991,-4.4481,-4.2974,-4.2974,-4.2974,-4.2974,-4.2974,-4.2974,-4.2974,-4.2974,-4.2974,-4.2974,-4.2974,-4.2974,-4.2974,-4.2974,-4.2974,-4.2974,-4.2974,-4.2974,-4.2974,-4.2974,-4.2974,-4.2974,-4.2974,-4.2974,-4.2974,-4.2974,-4.2974,-4.2974,-4.2974,-4.2974,-4.2974,-4.2974,-4.2974,-4.2974,-4.2974,-4.2974,-4.2974,-4.2974,-4.2974,-4.2974,-4.2974,-4.2974,-4.2974,-4.2974,-4.2974,-4.2974,-4.2974,-4.2974,-4.2974,-4.2974,-4.2974,-4.2974,-4.3313,-4.4279,-4.4543,-4.4982,-4.5987,-4.6225,-4.6313,-4.6313,-4.6313,-4.6313,-4.6313,-4.6313,-4.6313,-4.6313,-4.6313,-4.6313,-4.6313,-4.6313,-4.6313,-4.6313,-4.4571,-4.2895,-4.1181,-3.9442,-3.8159,-3.7295,-3.7295,-3.7754,-2.3973,-2.5425,-2.6772,-2.8813,-2.9577,-3.0432,-3.2871,-3.2377,-3.2064,-3.4577,-3.5564,-3.6013,-3.6118,-3.9266,-4.2351,-4.3913,-4.5858,-4.7174,-4.7234,-4.7848,-4.8297,-4.8253,-4.8895,-4.9299,-4.9147,-4.8599,-4.8792,-5.0009,-4.6929,-4.5608,-4.6991,-4.4481,-4.2974,-4.2974,-4.2974,-4.2974,-4.2974,-4.2974,-4.2974,-4.2974,-4.2974,-4.2974,-4.2974,-4.2974,-4.2974,-4.2974,-4.2974,-4.2974,-4.2974,-4.2974,-4.2974,-4.2974,-4.2974,-4.2974,-4.2974,-4.2974,-4.2974,-4.2974,-4.2974,-4.2974,-4.2974,-4.2974,-4.2974,-4.2974,-4.2974,-4.2974,-4.2974,-4.2974,-4.2974,-4.2974,-4.2974,-4.2974,-4.2974,-4.2974,-4.2974,-4.2974,-4.2974,-4.2974,-4.2974,-4.2974,-4.2974,-4.2974,-4.2974,-4.2974,-4.3175,-4.3765,-4.4292,-4.4844,-4.546,-4.5999,-4.6313,-4.6313,-4.6313,-4.6313,-4.6313,-4.6313,-4.6313,-4.6313,-4.6313,-4.6313,-4.6313,-4.6313,-4.6313,-4.6313,-4.4571,-4.2895,-4.1181,-3.9442,-3.8159,-3.7295,-3.7295,-3.7754,-2.2201,-2.4436,-2.6799,-2.8055,-2.9879,-3.1988,-3.4233,-3.5295,-3.6327,-3.8167,-3.908,-3.9529,-3.9529,-4.1414,-4.3254,-4.4167,-4.5992,-4.7309,-4.7309,-4.7519,-4.7833,-4.8237,-4.8506,-4.8865,-4.9269,-4.9039,-4.9081,-4.9583,-4.7611,-4.6805,-4.7744,-4.598,-4.4732,-4.4264,-4.4289,-4.3878,-4.303,-4.2974,-4.2974,-4.2974,-4.2974,-4.2974,-4.2974,-4.2974,-4.2974,-4.2974,-4.2974,-4.2974,-4.2974,-4.2974,-4.2974,-4.2974,-4.2974,-4.2974,-4.2974,-4.2974,-4.2974,-4.2974,-4.2974,-4.2974,-4.2974,-4.2974,-4.2974,-4.2974,-4.2974,-4.2974,-4.2974,-4.2974,-4.2974,-4.2974,-4.2974,-4.2974,-4.2974,-4.2974,-4.2974,-4.2974,-4.2974,-4.2974,-4.2974,-4.2974,-4.2974,-4.2974,-4.2974,-4.2974,-4.3288,-4.4179,-4.4493,-4.4957,-4.5886,-4.6175,-4.6313,-4.6313,-4.6313,-4.6313,-4.6313,-4.6313,-4.6313,-4.6313,-4.6313,-4.6313,-4.6313,-4.6313,-4.6313,-4.6313,-4.5659,-4.4497,-4.2769,-4.2063,-4.0672,-3.8493,-3.8779,-3.8628,-2.1915,-2.4359,-2.7136,-2.8019,-3.0687,-3.3769,-3.6193,-3.7599,-3.9005,-4.119,-4.1669,-4.1856,-4.2222,-4.2865,-4.3574,-4.4481,-4.6142,-4.7309,-4.7309,-4.7309,-4.7474,-4.7923,-4.7982,-4.8147,-4.8596,-4.888,-4.9,-4.9,-4.7858,-4.7415,-4.7846,-4.6567,-4.5353,-4.4441,-4.4467,-4.3866,-4.2459,-4.2459,-4.2547,-4.2778,-4.2778,-4.2811,-4.2974,-4.2974,-4.2974,-4.2974,-4.2974,-4.2974,-4.2974,-4.2974,-4.2974,-4.2974,-4.2974,-4.2974,-4.2974,-4.2974,-4.2974,-4.2974,-4.2974,-4.2974,-4.2974,-4.2974,-4.2974,-4.2974,-4.2974,-4.2974,-4.2974,-4.2974,-4.2974,-4.2974,-4.2974,-4.2974,-4.2974,-4.2974,-4.2974,-4.2974,-4.2974,-4.2974,-4.2974,-4.2974,-4.2974,-4.2974,-4.2974,-4.3124,-4.3551,-4.448,-4.4782,-4.5234,-4.6188,-4.6313,-4.6313,-4.6313,-4.6313,-4.6313,-4.6313,-4.6313,-4.6313,-4.6313,-4.6313,-4.6313,-4.6313,-4.6313,-4.6313,-4.6313,-4.6313,-4.5464,-4.3719,-4.3719,-4.2123,-3.9223,-3.9694,-3.9206,-2.3887,-2.5718,-2.7944,-2.9277,-3.2107,-3.5402,-3.8676,-3.8916,-3.9559,-4.3524,-4.3299,-4.283,-4.4092,-4.3753,-4.3738,-4.5095,-4.6426,-4.7309,-4.7309,-4.7309,-4.7309,-4.7309,-4.7309,-4.7309,-4.7309,-4.7893,-4.8282,-4.8282,-4.7595,-4.7213,-4.7213,-4.5888,-4.4552,-4.3268,-4.3216,-4.2631,-4.1342,-4.1342,-4.1605,-4.22,-4.22,-4.2489,-4.2974,-4.2974,-4.2974,-4.2974,-4.2974,-4.2974,-4.2974,-4.2974,-4.2974,-4.2974,-4.2974,-4.2974,-4.2974,-4.2974,-4.2974,-4.2974,-4.2974,-4.2974,-4.2974,-4.2974,-4.2974,-4.2974,-4.2974,-4.2974,-4.2974,-4.2974,-4.2974,-4.2974,-4.2974,-4.2974,-4.2974,-4.2974,-4.2974,-4.2974,-4.2974,-4.2974,-4.2974,-4.2974,-4.2974,-4.2974,-4.2974,-4.3426,-4.3978,-4.4531,-4.5108,-4.5686,-4.6238,-4.6313,-4.6313,-4.6313,-4.6313,-4.6313,-4.6313,-4.6313,-4.6313,-4.6313,-4.6313,-4.6313,-4.6313,-4.6313,-4.6313,-4.6313,-4.6313,-4.5464,-4.3719,-4.3719,-4.2175,-3.9279,-3.9684,-3.9196,-2.3161,-2.5818,-2.9217,-3.0028,-3.3769,-3.7734,-3.9679,-4.1025,-4.2692,-4.5783,-4.5738,-4.5125,-4.502,-4.5244,-4.5409,-4.5304,-4.6426,-4.7309,-4.7309,-4.7309,-4.7309,-4.7309,-4.7309,-4.7309,-4.7309,-4.7474,-4.7593,-4.7593,-4.7392,-4.7466,-4.7954,-4.7592,-4.6922,-4.602,-4.5985,-4.5348,-4.3959,-4.3959,-4.3605,-4.2878,-4.2878,-4.2928,-4.2974,-4.2974,-4.2974,-4.2974,-4.2974,-4.2974,-4.2974,-4.2974,-4.2974,-4.2974,-4.2974,-4.2974,-4.2974,-4.2974,-4.2974,-4.2974,-4.2974,-4.2974,-4.2974,-4.2974,-4.2974,-4.2974,-4.2974,-4.2974,-4.2974,-4.2974,-4.2974,-4.2974,-4.2974,-4.2974,-4.2974,-4.2974,-4.2974,-4.2974,-4.2974,-4.2974,-4.2974,-4.2974,-4.2974,-4.2974,-4.2974,-4.3112,-4.3413,-4.3966,-4.4518,-4.5221,-4.6188,-4.6313,-4.6313,-4.6313,-4.6313,-4.6313,-4.6313,-4.6313,-4.6313,-4.6313,-4.6313,-4.6313,-4.6313,-4.6313,-4.6313,-4.6313,-4.6313,-4.6059,-4.5537,-4.5537,-4.4446,-4.2355,-4.1625,-4.0522,-2.553,-2.8228,-3.148,-3.2886,-3.6043,-3.9349,-4.1474,-4.3075,-4.4721,-4.686,-4.6561,-4.5948,-4.6067,-4.5992,-4.5948,-4.6067,-4.677,-4.7309,-4.7309,-4.7309,-4.7309,-4.7309,-4.7309,-4.7309,-4.7309,-4.7309,-4.7309,-4.7309,-4.7309,-4.7474,-4.7878,-4.7893,-4.7451,-4.6512,-4.648,-4.5855,-4.4483,-4.4435,-4.4165,-4.361,-4.313,-4.2971,-4.3048,-4.281,-4.2703,-4.266,-4.2942,-4.2974,-4.2974,-4.2974,-4.2974,-4.2974,-4.2974,-4.2974,-4.2974,-4.2974,-4.2974,-4.2974,-4.2974,-4.2974,-4.2974,-4.2974,-4.2974,-4.2974,-4.2974,-4.2974,-4.2974,-4.2974,-4.2974,-4.2974,-4.2974,-4.2974,-4.2974,-4.2974,-4.2974,-4.2974,-4.2974,-4.2974,-4.2974,-4.2974,-4.2974,-4.2974,-4.2974,-4.3162,-4.3413,-4.3752,-4.4468,-4.5221,-4.5899,-4.6175,-4.6313,-4.6313,-4.6313,-4.6313,-4.6313,-4.6313,-4.6313,-4.6313,-4.6313,-4.6313,-4.6313,-4.6313,-4.6313,-4.6313,-4.6313,-4.6313,-4.6313,-4.6313,-4.5403,-4.3669,-4.2374,-4.1109,-2.9329,-3.1548,-3.3963,-3.6656,-3.8512,-4.0502,-4.3614,-4.4781,-4.5589,-4.6935,-4.6247,-4.5783,-4.707,-4.6307,-4.5873,-4.71,-4.7309,-4.7309,-4.7309,-4.7309,-4.7309,-4.7309,-4.7309,-4.7309,-4.7309,-4.7309,-4.7309,-4.7309,-4.7309,-4.7309,-4.7309,-4.7309,-4.6785,-4.5584,-4.5584,-4.5024,-4.3882,-4.3834,-4.4018,-4.4367,-4.3107,-4.271,-4.3033,-4.2417,-4.2137,-4.2162,-4.261,-4.2836,-4.2836,-4.2836,-4.2836,-4.2836,-4.2886,-4.2898,-4.2911,-4.2961,-4.2974,-4.2974,-4.2974,-4.2974,-4.2974,-4.2974,-4.2974,-4.2974,-4.2974,-4.2974,-4.2974,-4.2974,-4.2974,-4.2974,-4.2974,-4.2974,-4.2974,-4.2974,-4.2974,-4.2974,-4.2974,-4.2974,-4.2974,-4.2974,-4.2974,-4.2974,-4.2974,-4.3388,-4.374,-4.379,-4.4681,-4.5347,-4.5397,-4.5849,-4.6175,-4.6225,-4.6238,-4.625,-4.6301,-4.6313,-4.6313,-4.6313,-4.6313,-4.6313,-4.6313,-4.6313,-4.6313,-4.6313,-4.6313,-4.6313,-4.6313,-4.6313,-4.5464,-4.3929,-4.2456,-4.111,-2.7148,-2.9474,-3.2691,-3.5893,-3.923,-4.2216,-4.3913,-4.4421,-4.4915,-4.6262,-4.6307,-4.6352,-4.716,-4.707,-4.6965,-4.7249,-4.7309,-4.7309,-4.7309,-4.7309,-4.7309,-4.7309,-4.7309,-4.7309,-4.7309,-4.7309,-4.7309,-4.7309,-4.7309,-4.7309,-4.7309,-4.7309,-4.7164,-4.6916,-4.6873,-4.6785,-4.6491,-4.6491,-4.6046,-4.5178,-4.3887,-4.2801,-4.19,-4.1599,-4.1517,-4.1517,-4.1643,-4.1693,-4.1693,-4.1693,-4.1693,-4.1731,-4.217,-4.2389,-4.2439,-4.2823,-4.2974,-4.2974,-4.2974,-4.2974,-4.2974,-4.2974,-4.2974,-4.2974,-4.2974,-4.2974,-4.2974,-4.2974,-4.2974,-4.2974,-4.2974,-4.2974,-4.2974,-4.2974,-4.2974,-4.2974,-4.2974,-4.2974,-4.2974,-4.2974,-4.2974,-4.2974,-4.2974,-4.3074,-4.33,-4.374,-4.4016,-4.4317,-4.4756,-4.4907,-4.5158,-4.561,-4.566,-4.5836,-4.6276,-4.6313,-4.6313,-4.6313,-4.6313,-4.6313,-4.6313,-4.6313,-4.6313,-4.6313,-4.6313,-4.6313,-4.6313,-4.6313,-4.612,-4.5671,-4.2696,-4.1336,-2.7868,-3.0232,-3.3245,-3.6963,-4.0179,-4.2575,-4.3225,-4.3614,-4.4097,-4.5155,-4.5618,-4.5933,-4.6277,-4.6606,-4.683,-4.683,-4.71,-4.7309,-4.7309,-4.7309,-4.7309,-4.7309,-4.7309,-4.7309,-4.7309,-4.7309,-4.7309,-4.7309,-4.7309,-4.7309,-4.7309,-4.7309,-4.7309,-4.7309,-4.7309,-4.7309,-4.7309,-4.7309,-4.6975,-4.6299,-4.5024,-4.3409,-4.1581,-4.1154,-4.1037,-4.1288,-4.1288,-4.1288,-4.1288,-4.1288,-4.1288,-4.1313,-4.1656,-4.1769,-4.1794,-4.2082,-4.2195,-4.2233,-4.2497,-4.264,-4.2678,-4.2898,-4.2974,-4.2974,-4.2974,-4.2974,-4.2974,-4.2974,-4.2974,-4.2974,-4.2974,-4.2974,-4.2974,-4.2974,-4.2974,-4.2974,-4.2974,-4.2974,-4.2974,-4.2974,-4.2974,-4.2974,-4.2974,-4.2974,-4.3074,-4.3363,-4.3627,-4.3903,-4.4192,-4.4455,-4.4731,-4.5045,-4.5321,-4.5598,-4.5886,-4.6163,-4.6313,-4.6313,-4.6313,-4.6313,-4.6313,-4.6313,-4.6313,-4.6313,-4.6313,-4.6313,-4.6313,-4.6313,-4.6313,-4.6253,-4.2781,-4.1439,-2.8475,-3.1289,-3.4377,-3.8277,-4.0636,-4.2096,-4.2201,-4.2701,-4.3314,-4.3868,-4.4586,-4.5155,-4.5274,-4.5753,-4.6142,-4.6142,-4.6606,-4.695,-4.695,-4.695,-4.701,-4.7115,-4.713,-4.7174,-4.7294,-4.7309,-4.7309,-4.7309,-4.7309,-4.7309,-4.7309,-4.7309,-4.7309,-4.7309,-4.7309,-4.7309,-4.7309,-4.7309,-4.7309,-4.7266,-4.6018,-4.4069,-4.1568,-4.0991,-4.0812,-4.1,-4.1,-4.1,-4.1,-4.1,-4.1,-4.1012,-4.1112,-4.115,-4.115,-4.125,-4.1288,-4.1351,-4.1856,-4.2125,-4.2288,-4.274,-4.2898,-4.2974,-4.2974,-4.2974,-4.2974,-4.2974,-4.2974,-4.2974,-4.2974,-4.2974,-4.2974,-4.2974,-4.2974,-4.2974,-4.2974,-4.2974,-4.2974,-4.2974,-4.2974,-4.2974,-4.2974,-4.2974,-4.2974,-4.2974,-4.3363,-4.3664,-4.3664,-4.4053,-4.438,-4.4468,-4.4907,-4.5234,-4.5334,-4.5761,-4.6062,-4.6163,-4.6175,-4.6213,-4.6313,-4.6313,-4.6313,-4.6313,-4.6313,-4.6313,-4.6313,-4.6313,-4.6313,-4.624,-4.3095,-4.1651,-2.4841,-2.9514,-3.4714,-3.7781,-3.9604,-4.0816,-4.1422,-4.2066,-4.256,-4.265,-4.3599,-4.4616,-4.5185,-4.5364,-4.5424,-4.5424,-4.5514,-4.5559,-4.5559,-4.5559,-4.5783,-4.6381,-4.6414,-4.6681,-4.7249,-4.7309,-4.7309,-4.7309,-4.7309,-4.7309,-4.7309,-4.7309,-4.7309,-4.7309,-4.7309,-4.7309,-4.7309,-4.7309,-4.7309,-4.7266,-4.6018,-4.4069,-4.1604,-4.1498,-4.0898,-3.991,-3.991,-3.991,-3.991,-3.991,-3.991,-3.9961,-4.0438,-4.0626,-4.0676,-4.1112,-4.1288,-4.13,-4.1363,-4.1756,-4.2213,-4.2288,-4.264,-4.2974,-4.2974,-4.2974,-4.2974,-4.2974,-4.2974,-4.2974,-4.2974,-4.2974,-4.2974,-4.2974,-4.2974,-4.2974,-4.2974,-4.2974,-4.2974,-4.2974,-4.2974,-4.2974,-4.2974,-4.2974,-4.2974,-4.2974,-4.3037,-4.3087,-4.3087,-4.315,-4.3376,-4.3865,-4.3978,-4.4217,-4.4694,-4.4807,-4.5058,-4.556,-4.5598,-4.5811,-4.6288,-4.6313,-4.6313,-4.6313,-4.6313,-4.6313,-4.6313,-4.6313,-4.6313,-4.624,-4.43,-4.2615,-2.5548,-2.9363,-3.316,-3.6069,-3.8033,-3.9454,-4.0127,-4.107,-4.1856,-4.1856,-4.2267,-4.2985,-4.4003,-4.4496,-4.4751,-4.4751,-4.505,-4.5289,-4.5289,-4.5289,-4.5409,-4.5708,-4.5753,-4.6007,-4.6696,-4.6756,-4.692,-4.7279,-4.7309,-4.7309,-4.7309,-4.7309,-4.7309,-4.7309,-4.7309,-4.7309,-4.7309,-4.7309,-4.7309,-4.7266,-4.6018,-4.4826,-4.3693,-4.2266,-4.0882,-3.9697,-3.9697,-3.9697,-3.9697,-3.9697,-3.9697,-3.9722,-3.9961,-4.0061,-4.0086,-4.0325,-4.0413,-4.0463,-4.0777,-4.104,-4.1342,-4.2011,-4.2376,-4.2627,-4.2886,-4.2974,-4.2974,-4.2974,-4.2974,-4.2974,-4.2974,-4.2974,-4.2974,-4.2974,-4.2974,-4.2974,-4.2974,-4.2974,-4.2974,-4.2974,-4.2974,-4.2974,-4.2974,-4.2974,-4.2974,-4.2974,-4.2974,-4.2974,-4.2974,-4.2974,-4.3074,-4.3313,-4.3614,-4.3903,-4.4141,-4.4443,-4.4731,-4.4982,-4.5008,-4.5259,-4.5824,-4.5849,-4.5999,-4.6301,-4.6313,-4.6313,-4.6313,-4.6313,-4.6313,-4.6253,-4.4497,-4.2769,-2.565,-2.8253,-3.0521,-3.3638,-3.5879,-3.7575,-3.8472,-3.9813,-4.0876,-4.0876,-4.1145,-4.1683,-4.2656,-4.3374,-4.3868,-4.4032,-4.4481,-4.4796,-4.4796,-4.4796,-4.4855,-4.5035,-4.505,-4.5319,-4.5992,-4.6067,-4.6337,-4.701,-4.7055,-4.713,-4.7294,-4.7309,-4.7309,-4.7309,-4.7309,-4.7309,-4.7309,-4.7309,-4.7309,-4.7309,-4.6344,-4.5734,-4.5358,-4.3456,-4.1887,-4.0655,-3.9981,-3.9697,-3.9697,-3.9697,-3.9697,-3.9697,-3.9697,-3.9697,-3.9697,-3.9697,-3.9697,-3.9747,-4.0162,-4.04,-4.0651,-4.1467,-4.1886,-4.202,-4.2434,-4.2559,-4.2585,-4.2723,-4.2828,-4.2798,-4.2936,-4.2974,-4.2974,-4.2974,-4.2974,-4.2974,-4.2974,-4.2974,-4.2974,-4.2974,-4.2974,-4.2974,-4.2974,-4.2974,-4.2974,-4.2974,-4.2974,-4.2974,-4.2974,-4.2974,-4.2974,-4.2974,-4.335,-4.3589,-4.3589,-4.3966,-4.4267,-4.4405,-4.4418,-4.4669,-4.5246,-4.5409,-4.5686,-4.61,-4.6238,-4.6313,-4.6313,-4.6313,-4.6313,-4.6253,-4.4951,-4.347,-2.2867,-2.4794,-2.6771,-3.0495,-3.2982,-3.4897,-3.631,-3.8138,-3.9514,-3.9514,-4.0516,-4.1399,-4.1474,-4.2066,-4.271,-4.3245,-4.3379,-4.3394,-4.3394,-4.3394,-4.3618,-4.4287,-4.4362,-4.4631,-4.5289,-4.5349,-4.5633,-4.6279,-4.6324,-4.6651,-4.7279,-4.7309,-4.7309,-4.7309,-4.7309,-4.7309,-4.7309,-4.7309,-4.7309,-4.7309,-4.7207,-4.6594,-4.5403,-4.5252,-4.4503,-4.317,-4.0743,-3.9697,-3.9697,-3.9697,-3.9697,-3.9697,-3.9697,-3.9697,-3.9697,-3.9697,-3.9697,-3.9697,-3.9722,-4.0074,-4.0526,-4.0588,-4.0953,-4.1326,-4.1363,-4.1376,-4.153,-4.2099,-4.225,-4.2376,-4.2891,-4.2974,-4.2974,-4.2974,-4.2974,-4.2974,-4.2974,-4.2974,-4.2974,-4.2974,-4.2974,-4.2974,-4.2974,-4.2974,-4.2974,-4.2974,-4.2974,-4.2974,-4.2974,-4.2974,-4.2974,-4.2974,-4.2999,-4.3024,-4.3024,-4.3049,-4.3288,-4.3815,-4.384,-4.4091,-4.4644,-4.5196,-4.5497,-4.5535,-4.605,-4.6313,-4.6313,-4.6313,-4.6313,-4.6313,-4.618,-4.5208,-2.1577,-2.345,-2.5505,-2.78,-3.0675,-3.3213,-3.4167,-3.6333,-3.8138,-3.8138,-3.8841,-3.9604,-4.0038,-4.101,-4.1841,-4.2043,-4.2432,-4.2701,-4.2701,-4.3075,-4.3379,-4.3618,-4.3648,-4.3902,-4.4601,-4.4661,-4.4945,-4.5618,-4.5663,-4.5768,-4.6007,-4.6441,-4.6681,-4.6681,-4.7085,-4.7309,-4.7309,-4.7309,-4.7309,-4.7309,-4.7309,-4.7062,-4.6594,-4.5779,-4.5161,-4.4642,-4.2882,-4.169,-4.0932,-4.0932,-4.0465,-3.9697,-3.9697,-3.9697,-3.9697,-3.9697,-3.9697,-3.9697,-3.9697,-3.9823,-4.0049,-4.04,-4.0651,-4.0824,-4.1175,-4.1288,-4.1401,-4.2049,-4.2213,-4.2338,-4.2836,-4.2974,-4.2974,-4.2974,-4.2974,-4.2974,-4.2974,-4.2974,-4.2974,-4.2974,-4.2974,-4.2974,-4.2974,-4.2974,-4.2974,-4.2974,-4.2974,-4.2974,-4.2974,-4.2974,-4.2974,-4.2974,-4.2974,-4.2974,-4.2974,-4.2974,-4.3062,-4.3263,-4.3275,-4.3526,-4.4066,-4.4292,-4.4744,-4.5472,-4.5686,-4.5962,-4.6313,-4.6313,-4.6313,-4.6313,-4.6313,-4.5342,-2.0584,-2.2273,-2.4374,-2.6611,-2.8761,-3.0861,-3.2859,-3.4699,-3.615,-3.6675,-3.7464,-3.8197,-3.8661,-3.9634,-4.0591,-4.1265,-4.1782,-4.2066,-4.2066,-4.2402,-4.2761,-4.2985,-4.3015,-4.3269,-4.3888,-4.3947,-4.4257,-4.4915,-4.496,-4.5065,-4.5289,-4.5723,-4.6082,-4.6264,-4.6756,-4.7085,-4.7309,-4.7309,-4.7309,-4.7309,-4.7309,-4.7309,-4.7266,-4.6403,-4.6018,-4.5973,-4.5161,-4.3834,-4.2217,-4.1789,-4.1082,-4.0313,-3.989,-3.9697,-3.9697,-3.9697,-3.9697,-3.9697,-3.9697,-3.9697,-3.9747,-4.0124,-4.0237,-4.0312,-4.0676,-4.0736,-4.094,-4.1668,-4.1882,-4.2057,-4.2785,-4.2974,-4.2974,-4.2974,-4.2974,-4.2974,-4.2974,-4.2974,-4.2974,-4.2974,-4.2974,-4.2974,-4.2974,-4.2974,-4.2974,-4.2974,-4.2974,-4.2974,-4.2974,-4.2974,-4.2974,-4.2974,-4.2974,-4.2974,-4.2974,-4.2974,-4.2974,-4.2974,-4.2974,-4.3137,-4.3514,-4.3702,-4.4242,-4.5183,-4.5397,-4.5761,-4.6313,-4.6313,-4.6313,-4.6313,-4.6313,-4.5086,0.0,0.0,0.0,-2.6813,-2.7176,-2.784,-3.2246,-3.3167,-3.3526,-3.5093,-3.6387,-3.7285,-3.736,-3.7913,-3.9005,-4.095,-4.1347,-4.1354,-4.1354,-4.1407,-4.1647,-4.2291,-4.2366,-4.262,-4.32,-4.326,-4.3544,-4.4242,-4.4287,-4.4556,-4.52,-4.5259,-4.5589,-4.6277,-4.6264,-4.6636,-4.7264,-4.7294,-4.7309,-4.7309,-4.7309,-4.7309,-4.7309,-4.7309,-4.7309,-4.7309,-4.7309,-4.5928,-4.3504,-4.2217,-4.1654,-4.1455,-4.0224,-3.9749,-3.9697,-3.9697,-3.9697,-3.9697,-3.9697,-3.9697,-3.9697,-3.9697,-3.9697,-3.9697,-3.9697,-3.9697,-3.9923,-4.0974,-4.1288,-4.1539,-4.2685,-4.2974,-4.2974,-4.2974,-4.2974,-4.2974,-4.2974,-4.2974,-4.2974,-4.2974,-4.2974,-4.2974,-4.2974,-4.2974,-4.2974,-4.2974,-4.2974,-4.2974,-4.2974,-4.2974,-4.2974,-4.2974,-4.2974,-4.2974,-4.2974,-4.2974,-4.2974,-4.2974,-4.2974,-4.2974,-4.2974,-4.3489,-4.4041,-4.4593,-4.5171,-4.5736,-4.6288,-4.6301,-4.6313,-4.6313,-4.6313,-4.4509,-2.0238,0.0,0.0,0.0,0.0,0.0,-2.7496,-2.8996,-3.066,-3.2699,-3.3772,-3.4848,-3.6454,-3.7255,-3.7853,-3.8422,-3.9723,-4.0666,-4.0666,-4.1085,-4.1444,-4.1662,-4.1692,-4.1946,-4.2566,-4.2626,-4.2895,-4.3514,-4.3559,-4.3648,-4.3828,-4.4332,-4.4885,-4.5559,-4.6067,-4.6369,-4.6591,-4.707,-4.7309,-4.7309,-4.7309,-4.7309,-4.7309,-4.7309,-4.7309,-4.7309,-4.7309,-4.6916,-4.6166,-4.4872,-4.3266,-4.1555,-4.1219,-4.0503,-3.9697,-3.9697,-3.9697,-3.9697,-3.9697,-3.9697,-3.9697,-3.9697,-3.9697,-3.9697,-3.9697,-3.9697,-3.9923,-4.0974,-4.1288,-4.1539,-4.2685,-4.2974,-4.2974,-4.2974,-4.2974,-4.2974,-4.2974,-4.2974,-4.2974,-4.2974,-4.2974,-4.2974,-4.2974,-4.2974,-4.2974,-4.2974,-4.2974,-4.2974,-4.2974,-4.2974,-4.2974,-4.2974,-4.2974,-4.2974,-4.2974,-4.2974,-4.2974,-4.2974,-4.2974,-4.2974,-4.2974,-4.3124,-4.3463,-4.4016,-4.4581,-4.5146,-4.5711,-4.6112,-4.6313,-4.6313,-4.6313,-4.5147,-2.2209,-2.3071,-2.434,-2.4423,0.0,0.0,-2.6859,-2.7429,-2.8318,-3.0628,-3.1635,-3.2625,-3.4505,-3.5579,-3.6282,-3.6567,-3.8048,-3.926,-3.9529,-4.0142,-4.0666,-4.0935,-4.0965,-4.1235,-4.1931,-4.1991,-4.2261,-4.288,-4.2925,-4.3045,-4.329,-4.3663,-4.4212,-4.487,-4.5274,-4.5711,-4.6279,-4.6711,-4.704,-4.7309,-4.7309,-4.7309,-4.7309,-4.7309,-4.7309,-4.7309,-4.7309,-4.7309,-4.7251,-4.6491,-4.4688,-4.2363,-4.1789,-4.0844,-3.9697,-3.9697,-3.9697,-3.9697,-3.9697,-3.9697,-3.9697,-3.9697,-3.9697,-3.9697,-3.9697,-3.9697,-3.9873,-4.0752,-4.1329,-4.1882,-4.2748,-4.2974,-4.2974,-4.2974,-4.2974,-4.2974,-4.2974,-4.2974,-4.2974,-4.2974,-4.2974,-4.2974,-4.2974,-4.2974,-4.2974,-4.2974,-4.2974,-4.2974,-4.2974,-4.2974,-4.2974,-4.2974,-4.2974,-4.2974,-4.2974,-4.2974,-4.2974,-4.2974,-4.2974,-4.2974,-4.2974,-4.2974,-4.3237,-4.379,-4.4116,-4.4681,-4.5485,-4.6037,-4.6313,-4.6313,-4.6313,-4.5342,-2.5218,-2.5608,-2.664,-2.8333,-2.6979,0.0,-2.819,-2.7315,-2.6593,-2.8713,-2.958,-3.0398,-3.1847,-3.3201,-3.4284,-3.4731,-3.6142,-3.7462,-3.8202,-3.8811,-3.9409,-4.0008,-4.0127,-4.0427,-4.11,-4.1235,-4.1587,-4.2246,-4.2366,-4.265,-4.3155,-4.3245,-4.3559,-4.4182,-4.4272,-4.4885,-4.6097,-4.6204,-4.6621,-4.7189,-4.7264,-4.7309,-4.7309,-4.7309,-4.7309,-4.7309,-4.7309,-4.7309,-4.7309,-4.7309,-4.5779,-4.3409,-4.2266,-4.0932,-3.9697,-3.9697,-3.9697,-3.9697,-3.9697,-3.9697,-3.9697,-3.9697,-3.9697,-3.9697,-3.9697,-3.9697,-3.981,-4.0362,-4.1266,-4.225,-4.2748,-4.2836,-4.2823,-4.2949,-4.2886,-4.2811,-4.2873,-4.2836,-4.2798,-4.2798,-4.2886,-4.2974,-4.2974,-4.2974,-4.2974,-4.2974,-4.2974,-4.2974,-4.2974,-4.2974,-4.2974,-4.2974,-4.2974,-4.2974,-4.2974,-4.2974,-4.2974,-4.2974,-4.2974,-4.2974,-4.2974,-4.2974,-4.3212,-4.3702,-4.3765,-4.4355,-4.5485,-4.6037,-4.6313,-4.6313,-4.6313,-4.5464,-2.8485,-2.9094,-2.9634,-2.7638,-2.8536,0.0,-2.538,-2.5597,-2.6501,-2.6406,-2.6461,-2.7174,-2.9216,-3.0791,-3.1456,-3.0586,-3.3459,-3.6222,-3.7413,-3.7719,-3.7853,-3.7973,-3.8452,-3.905,-3.9738,-4.0277,-4.0861,-4.1519,-4.2111,-4.2455,-4.259,-4.3045,-4.3349,-4.3484,-4.4032,-4.4451,-4.4706,-4.5741,-4.6396,-4.6516,-4.7055,-4.7309,-4.7309,-4.7309,-4.7309,-4.7309,-4.7309,-4.7309,-4.7309,-4.7309,-4.5779,-4.3504,-4.3218,-4.1739,-3.9697,-3.9697,-3.9697,-3.9697,-3.9697,-3.9697,-3.9697,-3.9697,-3.9697,-3.9697,-3.9697,-3.9697,-3.981,-4.0362,-4.099,-4.163,-4.217,-4.1995,-4.1882,-4.2773,-4.2308,-4.1781,-4.2275,-4.1969,-4.1601,-4.1601,-4.2371,-4.2974,-4.2974,-4.2974,-4.2974,-4.2974,-4.2974,-4.2974,-4.2974,-4.2974,-4.2974,-4.2974,-4.2974,-4.2974,-4.2974,-4.2974,-4.2974,-4.2974,-4.2974,-4.2974,-4.2974,-4.2974,-4.3024,-4.3137,-4.3576,-4.4355,-4.5485,-4.6037,-4.6313,-4.6313,-4.6313,-4.612,-3.1058,-3.1193,-3.1461,-3.0328,0.0,0.0,0.0,-2.6048,-2.609,-2.7291,-2.6373,-2.6234,-2.9116,-2.9903,-3.0006,-2.9699,-3.2315,-3.4402,-3.4425,-3.612,-3.7404,-3.7404,-3.7704,-3.8033,-3.8377,-3.902,-3.9813,-4.0816,-4.1542,-4.2051,-4.2381,-4.2671,-4.3,-4.329,-4.3618,-4.3947,-4.4317,-4.499,-4.5622,-4.6279,-4.6651,-4.6995,-4.7309,-4.7309,-4.7309,-4.7309,-4.7309,-4.7309,-4.7309,-4.7309,-4.6166,-4.4396,-4.374,-4.1936,-3.9697,-3.9697,-3.9697,-3.9697,-3.9697,-3.9697,-3.9697,-3.9697,-3.9697,-3.9697,-3.9697,-3.9697,-3.981,-4.0362,-4.0714,-4.1053,-4.1605,-4.1543,-4.1426,-4.2032,-4.1743,-4.1363,-4.1693,-4.153,-4.1288,-4.1288,-4.1781,-4.2246,-4.2577,-4.2798,-4.2974,-4.2974,-4.2974,-4.2974,-4.2974,-4.2974,-4.2974,-4.2974,-4.2974,-4.2974,-4.2974,-4.2974,-4.2974,-4.2974,-4.2974,-4.2974,-4.2974,-4.2974,-4.2974,-4.2974,-4.3526,-4.4079,-4.4644,-4.5485,-4.6037,-4.6313,-4.6313,-4.6313,0.0,0.0,-3.3529,0.0,0.0,-3.0184,0.0,0.0,0.0,-2.831,-2.6855,-2.6134,-2.9119,-2.9118,-2.873,-2.9038,-3.1127,-3.2178,-3.0566,-3.3649,-3.6054,-3.6058,-3.6537,-3.6851,-3.6851,-3.721,-3.8108,-3.9709,-4.0098,-4.0733,-4.1782,-4.2186,-4.2635,-4.3135,-4.323,-4.3544,-4.4122,-4.4257,-4.4855,-4.5906,-4.616,-4.6563,-4.7115,-4.7249,-4.7309,-4.7309,-4.7309,-4.7309,-4.7309,-4.7309,-4.6535,-4.5252,-4.4022,-4.207,-4.0032,-3.9788,-3.9697,-3.9697,-3.9697,-3.9697,-3.9697,-3.9697,-3.9697,-3.9697,-3.9697,-3.9697,-3.9785,-4.0237,-4.0362,-4.0488,-4.0987,-4.105,-4.1025,-4.1238,-4.1125,-4.1,-4.11,-4.105,-4.0962,-4.0962,-4.1062,-4.1392,-4.2099,-4.2577,-4.2848,-4.2961,-4.2974,-4.2974,-4.2974,-4.2974,-4.2974,-4.2974,-4.2974,-4.2974,-4.2974,-4.2974,-4.2974,-4.2974,-4.2974,-4.2974,-4.2974,-4.2974,-4.2974,-4.2974,-4.3413,-4.3689,-4.3802,-4.4719,-4.551,-4.615,-4.6263,-4.6313,0.0,0.0,0.0,0.0,-3.4189,0.0,0.0,0.0,-2.804,-2.6404,0.0,-2.5883,-2.6924,0.0,0.0,-2.5557,-2.8221,-2.9484,-2.6878,-2.9266,-3.1274,-3.1267,-3.3365,-3.4833,-3.4833,-3.4352,-3.507,-3.7554,-3.6776,-3.7225,-3.9619,-4.1414,-4.2425,-4.2515,-4.303,-4.3334,-4.3409,-4.4018,-4.4392,-4.4556,-4.5711,-4.6324,-4.6414,-4.704,-4.7309,-4.7309,-4.7309,-4.7309,-4.7309,-4.7309,-4.6535,-4.5252,-4.4022,-4.2641,-4.1269,-4.0121,-3.9697,-3.9697,-3.9697,-3.9697,-3.9697,-3.9697,-3.9697,-3.9697,-3.9697,-3.9697,-3.971,-3.9772,-3.9785,-3.991,-4.0463,-4.0249,-4.0124,-4.105,-4.0588,-4.0011,-4.0513,-4.0224,-3.9885,-3.9885,-4.0275,-4.094,-4.2024,-4.2263,-4.2476,-4.2898,-4.2974,-4.2974,-4.2974,-4.2974,-4.2974,-4.2974,-4.2974,-4.2974,-4.2974,-4.2974,-4.2974,-4.2974,-4.2974,-4.2974,-4.2974,-4.2974,-4.2974,-4.2974,-4.3037,-4.3313,-4.3802,-4.3928,-4.4543,-4.5598,-4.6087,-4.6313,0.0,0.0,0.0,0.0,0.0,0.0,-2.9127,0.0,-2.7893,0.0,0.0,0.0,0.0,0.0,0.0,0.0,-2.717,-2.7463,-2.5535,-2.7068,-2.8737,-2.965,-3.0524,-3.1659,-3.3185,-3.2736,-3.3455,-3.6103,-3.5085,-3.5654,-3.8661,-3.9993,-4.1175,-4.2366,-4.2626,-4.2955,-4.329,-4.3559,-4.3943,-4.4332,-4.4885,-4.5574,-4.6294,-4.6606,-4.695,-4.7309,-4.7309,-4.7309,-4.7309,-4.7309,-4.6975,-4.6403,-4.5115,-4.3834,-4.2544,-4.1269,-4.0794,-4.0693,-3.9981,-3.9697,-3.9697,-3.9697,-3.9697,-3.9697,-3.9697,-3.9697,-3.9697,-3.9697,-3.9697,-3.9747,-3.9986,-3.9873,-3.981,-4.0275,-4.0036,-3.976,-3.9986,-3.986,-3.9697,-3.9697,-3.9885,-4.0287,-4.1065,-4.1785,-4.2288,-4.2527,-4.2828,-4.2974,-4.2974,-4.2974,-4.2974,-4.2974,-4.2974,-4.2974,-4.2974,-4.2974,-4.2974,-4.2974,-4.2974,-4.2974,-4.2974,-4.2974,-4.2974,-4.2974,-4.2974,-4.3087,-4.3325,-4.3639,-4.4041,-4.4531,-4.507,-4.551,-3.8304,0.0,0.0,0.0,0.0,0.0,0.0,0.0,0.0,0.0,0.0,0.0,0.0,0.0,0.0,0.0,0.0,-2.6148,-2.4365,-2.5243,-2.6525,-2.7719,-2.8122,-2.9146,-3.124,-3.0315,-3.0943,-3.4173,-3.2841,-3.3544,-3.7389,-3.8571,-3.9963,-4.1796,-4.2216,-4.2671,-4.329,-4.329,-4.3529,-4.4047,-4.4227,-4.4825,-4.5741,-4.6115,-4.6591,-4.7055,-4.7234,-4.7309,-4.7309,-4.7309,-4.7309,-4.7207,-4.6299,-4.5358,-4.4349,-4.2738,-4.2119,-4.1936,-4.0642,-3.9981,-3.9697,-3.9697,-3.9697,-3.9697,-3.9697,-3.9697,-3.9697,-3.9697,-3.9697,-3.9697,-3.9697,-3.9697,-3.9697,-3.9697,-3.9697,-3.9697,-3.9697,-3.9697,-3.9697,-3.9697,-3.9697,-3.9823,-4.0224,-4.1078,-4.1756,-4.1907,-4.2451,-4.2748,-4.2748,-4.2886,-4.2974,-4.2974,-4.2974,-4.2974,-4.2974,-4.2974,-4.2974,-4.2974,-4.2974,-4.2974,-4.2974,-4.2974,-4.2974,-4.2974,-4.2974,-4.2974,-4.2974,-4.3376,-4.3576,-4.3589,-4.4292,-4.4844,0.0,0.0,0.0,-3.4573,0.0,0.0,0.0,0.0,-2.982,0.0,0.0,0.0,0.0,0.0,0.0,0.0,0.0,0.0,0.0,-2.3314,-2.4113,-2.442,-2.6341,-2.7929,-2.8652,-2.6353,-2.6712,-3.1286,-2.9235,-3.0086,-3.531,-3.7389,-3.905,-4.0412,-4.1737,-4.2671,-4.329,-4.329,-4.3305,-4.3334,-4.4003,-4.4332,-4.4421,-4.5696,-4.6294,-4.6396,-4.7025,-4.7309,-4.7309,-4.7309,-4.7309,-4.7309,-4.7251,-4.7207,-4.6873,-4.4349,-4.3456,-4.3266,-4.1985,-4.0743,-3.9697,-3.9697,-3.9697,-3.9697,-3.9697,-3.9697,-3.9697,-3.9697,-3.9697,-3.9697,-3.9697,-3.9697,-3.9697,-3.9697,-3.9697,-3.9697,-3.9697,-3.9697,-3.9697,-3.9697,-3.9697,-3.9697,-3.9722,-4.0187,-4.0752,-4.1225,-4.1831,-4.2238,-4.2238,-4.2703,-4.2974,-4.2974,-4.2974,-4.2974,-4.2974,-4.2974,-4.2974,-4.2974,-4.2974,-4.2974,-4.2974,-4.2974,-4.2974,-4.2974,-4.2974,-4.2974,-4.2974,-4.2999,-4.2999,-4.3024,-4.4116,-4.4631,0.0,0.0,-3.7965,-3.5497,0.0,0.0,0.0,0.0,0.0,0.0,0.0,0.0,0.0,0.0,0.0,0.0,0.0,0.0,0.0,-2.3032,-2.3063,-2.3161,-2.4896,-2.5864,-2.5338,-2.4859,-2.598,-2.9313,-2.8757,-3.0178,-3.4592,-3.6671,-3.8362,-3.9709,-4.1025,-4.2066,-4.2686,-4.312,-4.329,-4.329,-4.3514,-4.3858,-4.4347,-4.5244,-4.5888,-4.6324,-4.7025,-4.7309,-4.7309,-4.7309,-4.7309,-4.7309,-4.7309,-4.7309,-4.7062,-4.5403,-4.478,-4.4442,-4.2315,-4.0794,-3.9697,-3.9697,-3.9697,-3.9697,-3.9697,-3.9697,-3.9697,-3.9697,-3.9697,-3.9697,-3.9697,-3.9697,-3.9697,-3.9697,-3.9697,-3.9697,-3.9697,-3.9697,-3.9697,-3.9697,-3.9697,-3.9697,-3.9697,-3.9848,-4.0162,-4.0714,-4.1266,-4.1743,-4.2162,-4.2376,-4.2627,-4.2936,-4.2974,-4.2974,-4.2974,-4.2974,-4.2974,-4.2974,-4.2974,-4.2974,-4.2974,-4.2974,-4.2974,-4.2974,-4.2974,-4.2974,-4.2974,-4.2974,-4.2974,-4.2986,-4.3363,-4.3727,-3.7368,-3.7573,0.0,-3.5616,-3.4095,0.0,-3.0252,0.0,-3.0675,0.0,0.0,0.0,0.0,0.0,0.0,0.0,0.0,0.0,0.0,-2.2705,-2.2429,-2.2257,-2.3417,-2.4035,-2.3525,-2.332,-2.45,-2.7649,-2.7664,-2.9355,-3.3544,-3.5429,-3.7195,-3.899,-4.0113,-4.122,-4.2396,-4.2776,-4.3105,-4.329,-4.329,-4.3514,-4.3988,-4.4646,-4.5319,-4.5992,-4.6666,-4.7085,-4.7309,-4.7309,-4.7309,-4.7309,-4.7309,-4.7309,-4.7207,-4.6403,-4.5779,-4.5161,-4.3504,-4.1838,-4.0364,-4.0364,-4.0083,-3.9697,-3.9697,-3.9697,-3.9697,-3.9697,-3.9697,-3.9697,-3.9697,-3.9697,-3.9697,-3.9697,-3.9697,-3.9697,-3.9697,-3.9697,-3.9697,-3.9697,-3.9697,-3.9697,-3.9697,-3.9697,-3.9823,-4.0174,-4.0701,-4.1178,-4.153,-4.1743,-4.2007,-4.2359,-4.2396,-4.2472,-4.2728,-4.2861,-4.2974,-4.2974,-4.2974,-4.2974,-4.2974,-4.2974,-4.2974,-4.2974,-4.2974,-4.2974,-4.2974,-4.2974,-4.2974,-4.2974,-4.2974,-4.3175]},{"header":{"parameterUnit":"m.s-1","parameterCategory":1,"la1":30.6,"la2":29.2853,"lo1":-89.7004,"lo2":-87.6739,"dy":0.0162,"dx":0.0183,"nx":112,"ny":82,"refTime":"2024-08-31T18:00:00:Z","depth":0,"parameterNumber":3,"parameterNumberName":"V-component_of_WINDS"},"data":[0.0,0.0,0.0,0.0,0.0,0.0,0.0,0.0,0.0,0.0,0.0,0.0,0.0,0.0,0.0,0.0,0.0,0.0,0.0,0.0,0.0,0.0,0.0,0.0,0.0,0.0,0.0,0.0,0.0,0.0,0.0,0.0,0.0,0.0,0.0,0.0,0.0,0.0,0.0,0.0,0.0,0.0,0.0,0.0,0.0,0.0,0.0,0.0,0.0,0.0,0.0,0.0,0.0,0.0,0.0,0.0,0.0,0.0,0.0,0.0,0.0,0.0,0.0,0.0,0.0,0.0,0.0,0.0,0.0,0.0,0.0,0.0,0.0,0.0,0.0,0.0,0.0,0.0,0.0,0.0,0.0,0.0,0.0,0.0,0.0,0.0,0.0,0.0,0.0,0.0,4.1901,4.7608,5.4087,5.7721,5.7042,5.6547,5.3059,4.5535,0.0,0.0,0.0,0.0,0.0,0.0,0.0,0.0,0.0,0.0,0.0,0.0,0.0,0.0,0.0,0.0,0.0,0.0,0.0,0.0,0.0,0.0,0.0,0.0,0.0,0.0,0.0,0.0,0.0,0.0,0.0,0.0,0.0,0.0,0.0,0.0,0.0,0.0,0.0,0.0,0.0,0.0,0.0,0.0,0.0,0.0,0.0,0.0,0.0,0.0,0.0,0.0,0.0,0.0,0.0,0.0,0.0,0.0,0.0,0.0,0.0,0.0,0.0,0.0,0.0,0.0,0.0,0.0,0.0,0.0,0.0,0.0,0.0,0.0,0.0,0.0,0.0,0.0,0.0,0.0,0.0,0.0,0.0,0.0,0.0,0.0,0.0,0.0,0.0,0.0,0.0,0.0,0.0,0.0,0.0,0.0,0.0,0.0,0.0,0.0,0.0,0.0,0.0,0.0,4.258,5.227,5.6124,5.7941,5.7831,5.5317,5.1736,4.7021,0.0,0.0,0.0,0.0,0.0,0.0,0.0,0.0,0.0,0.0,0.0,0.0,0.0,0.0,0.0,0.0,0.0,0.0,0.0,0.0,0.0,0.0,0.0,0.0,0.0,0.0,0.0,0.0,0.0,0.0,0.0,0.0,0.0,0.0,0.0,0.0,0.0,0.0,0.0,0.0,0.0,0.0,0.0,0.0,0.0,0.0,0.0,0.0,0.0,0.0,0.0,0.0,0.0,0.0,0.0,0.0,0.0,0.0,0.0,0.0,0.0,0.0,0.0,0.0,0.0,0.0,0.0,0.0,0.0,0.0,0.0,0.0,0.0,0.0,0.0,0.0,0.0,0.0,0.0,0.0,0.0,0.0,0.0,0.0,0.0,0.0,0.0,0.0,0.0,0.0,0.0,0.0,0.0,0.0,0.0,0.0,0.0,0.0,0.0,0.0,0.0,0.0,0.0,4.1846,4.6287,5.4197,5.6822,5.7997,5.7997,5.5445,5.1738,4.6764,4.1497,0.0,0.0,0.0,0.0,0.0,0.0,0.0,0.0,0.0,0.0,0.0,0.0,0.0,0.0,0.0,0.0,0.0,0.0,0.0,0.0,0.0,0.0,0.0,0.0,0.0,0.0,0.0,0.0,0.0,0.0,0.0,0.0,0.0,0.0,0.0,0.0,0.0,0.0,0.0,0.0,0.0,0.0,0.0,0.0,0.0,0.0,0.0,0.0,0.0,0.0,0.0,0.0,0.0,0.0,0.0,0.0,0.0,0.0,0.0,0.0,0.0,0.0,0.0,0.0,0.0,0.0,0.0,0.0,0.0,0.0,0.0,0.0,0.0,0.0,0.0,0.0,0.0,0.0,0.0,0.0,0.0,0.0,0.0,0.0,0.0,0.0,0.0,0.0,0.0,0.0,0.0,0.0,0.0,0.0,0.0,0.0,0.0,0.0,0.0,0.0,0.0,0.0,4.6745,5.0141,5.506,5.7042,5.7923,5.7721,5.4785,5.0784,4.5663,3.9512,0.0,0.0,0.0,0.0,0.0,0.0,0.0,0.0,0.0,0.0,0.0,0.0,0.0,0.0,0.0,0.0,0.0,0.0,0.0,0.0,0.0,0.0,0.0,0.0,0.0,0.0,0.0,0.0,0.0,0.0,0.0,0.0,0.0,0.0,0.0,0.0,0.0,0.0,0.0,0.0,0.0,0.0,0.0,0.0,0.0,0.0,0.0,0.0,0.0,0.0,0.0,0.0,0.0,0.0,0.0,0.0,0.0,0.0,0.0,0.0,0.0,0.0,0.0,0.0,0.0,0.0,0.0,0.0,0.0,0.0,0.0,0.0,0.0,0.0,0.0,0.0,0.0,0.0,0.0,0.0,0.0,0.0,0.0,0.0,0.0,0.0,0.0,0.0,0.0,0.0,0.0,0.0,0.0,0.0,0.0,0.0,0.0,0.0,0.0,0.0,0.0,0.0,4.7198,5.2656,5.5339,5.7042,5.7703,5.695,5.1885,4.7278,4.3882,3.6225,0.0,0.0,0.0,0.0,0.0,0.0,0.0,0.0,0.0,0.0,0.0,0.0,0.0,0.0,0.0,0.0,0.0,0.0,0.0,0.0,0.0,0.0,0.0,0.0,0.0,0.0,0.0,0.0,0.0,0.0,0.0,0.0,0.0,0.0,0.0,0.0,0.0,0.0,0.0,0.0,0.0,0.0,0.0,0.0,0.0,0.0,0.0,0.0,0.0,0.0,0.0,0.0,0.0,0.0,0.0,0.0,0.0,0.0,0.0,0.0,0.0,0.0,0.0,0.0,0.0,0.0,0.0,0.0,0.0,0.0,0.0,0.0,0.0,0.0,0.0,0.0,0.0,0.0,0.0,0.0,0.0,0.0,0.0,0.0,0.0,0.0,0.0,0.0,0.0,0.0,0.0,0.0,0.0,0.0,0.0,0.0,0.0,0.0,0.0,0.0,0.0,0.0,4.5537,5.0797,5.5148,5.7042,5.7666,5.6877,5.3463,4.9114,4.3845,0.0,0.0,0.0,0.0,0.0,0.0,0.0,0.0,0.0,0.0,0.0,0.0,0.0,0.0,0.0,0.0,0.0,0.0,0.0,0.0,0.0,0.0,0.0,0.0,0.0,0.0,0.0,0.0,0.0,0.0,0.0,0.0,0.0,0.0,0.0,0.0,0.0,0.0,0.0,0.0,0.0,0.0,0.0,0.0,0.0,0.0,0.0,0.0,0.0,0.0,0.0,0.0,0.0,0.0,0.0,0.0,0.0,0.0,0.0,0.0,0.0,0.0,0.0,0.0,0.0,0.0,0.0,0.0,0.0,0.0,0.0,0.0,0.0,0.0,0.0,0.0,0.0,0.0,0.0,0.0,0.0,0.0,0.0,0.0,0.0,0.0,0.0,0.0,0.0,0.0,0.0,0.0,0.0,0.0,0.0,0.0,0.0,0.0,0.0,0.0,0.0,0.0,3.9243,4.5168,5.0502,5.4802,5.6711,5.7329,5.6487,5.3261,4.8728,4.2727,0.0,0.0,0.0,0.0,0.0,0.0,0.0,0.0,0.0,0.0,0.0,0.0,0.0,0.0,0.0,0.0,0.0,0.0,0.0,0.0,0.0,0.0,0.0,0.0,0.0,0.0,0.0,0.0,0.0,0.0,0.0,0.0,0.0,0.0,0.0,0.0,0.0,0.0,0.0,0.0,0.0,0.0,0.0,0.0,0.0,0.0,0.0,0.0,0.0,0.0,0.0,0.0,0.0,0.0,0.0,0.0,0.0,0.0,0.0,0.0,0.0,0.0,0.0,0.0,0.0,0.0,0.0,0.0,0.0,0.0,0.0,0.0,0.0,0.0,0.0,0.0,0.0,0.0,0.0,0.0,0.0,0.0,0.0,0.0,0.0,0.0,0.0,0.0,0.0,0.0,0.0,0.0,0.0,0.0,0.0,0.0,0.0,0.0,0.0,0.0,0.0,0.0,3.8576,4.6555,5.2654,5.4411,5.5999,5.6575,5.5658,5.0417,4.5076,0.0,0.0,0.0,0.0,0.0,0.0,0.0,0.0,0.0,0.0,0.0,0.0,0.0,0.0,0.0,0.0,0.0,0.0,0.0,0.0,0.0,0.0,0.0,0.0,0.0,0.0,0.0,0.0,0.0,0.0,0.0,0.0,0.0,0.0,0.0,0.0,0.0,0.0,0.0,0.0,0.0,0.0,0.0,0.0,0.0,0.0,0.0,0.0,0.0,0.0,0.0,0.0,0.0,0.0,0.0,0.0,0.0,0.0,0.0,0.0,0.0,0.0,0.0,0.0,0.0,0.0,0.0,0.0,0.0,0.0,0.0,0.0,0.0,0.0,0.0,0.0,0.0,0.0,0.0,0.0,0.0,0.0,0.0,0.0,0.0,0.0,0.0,0.0,0.0,0.0,0.0,0.0,0.0,0.0,0.0,0.0,0.0,0.0,0.0,0.0,0.0,0.0,0.0,3.8467,4.6271,5.2312,5.4386,5.6455,5.7092,5.5721,5.2491,4.7755,4.1167,0.0,0.0,0.0,0.0,0.0,0.0,0.0,0.0,0.0,0.0,0.0,0.0,0.0,0.0,0.0,0.0,0.0,0.0,0.0,0.0,0.0,0.0,0.0,0.0,0.0,0.0,0.0,0.0,0.0,0.0,0.0,0.0,0.0,0.0,0.0,0.0,0.0,0.0,0.0,0.0,0.0,0.0,0.0,0.0,0.0,0.0,0.0,0.0,0.0,0.0,0.0,0.0,0.0,0.0,0.0,0.0,0.0,0.0,0.0,0.0,0.0,0.0,0.0,0.0,0.0,0.0,0.0,0.0,0.0,0.0,0.0,0.0,0.0,0.0,0.0,0.0,0.0,0.0,0.0,0.0,0.0,0.0,0.0,0.0,0.0,0.0,0.0,0.0,0.0,0.0,0.0,0.0,0.0,0.0,0.0,0.0,0.0,0.0,0.0,0.0,0.0,0.0,3.8894,4.6042,5.1643,5.3913,5.5921,5.6563,5.528,5.3225,4.915,4.2488,0.0,0.0,0.0,0.0,0.0,0.0,0.0,0.0,0.0,0.0,0.0,0.0,0.0,0.0,0.0,0.0,0.0,0.0,0.0,0.0,0.0,0.0,0.0,0.0,0.0,0.0,0.0,0.0,0.0,0.0,0.0,0.0,0.0,0.0,0.0,0.0,0.0,0.0,0.0,0.0,0.0,0.0,0.0,0.0,0.0,0.0,0.0,0.0,0.0,0.0,0.0,0.0,0.0,0.0,0.0,0.0,0.0,0.0,0.0,0.0,0.0,0.0,0.0,0.0,0.0,0.0,0.0,0.0,0.0,0.0,0.0,0.0,0.0,0.0,0.0,0.0,0.0,0.0,0.0,0.0,0.0,0.0,0.0,0.0,0.0,0.0,0.0,0.0,0.0,0.0,0.0,0.0,0.0,0.0,0.0,0.0,0.0,0.0,0.0,0.0,0.0,0.0,3.9595,4.5983,5.0997,5.3238,5.4881,5.5463,5.4575,5.302,4.9701,4.4084,0.0,0.0,0.0,0.0,0.0,0.0,0.0,0.0,0.0,0.0,0.0,0.0,0.0,0.0,0.0,0.0,0.0,0.0,0.0,0.0,0.0,0.0,0.0,0.0,0.0,0.0,0.0,0.0,0.0,0.0,0.0,0.0,0.0,0.0,0.0,0.0,0.0,0.0,0.0,0.0,0.0,0.0,0.0,0.0,0.0,0.0,0.0,0.0,0.0,0.0,0.0,0.0,0.0,0.0,0.0,0.0,0.0,0.0,0.0,0.0,3.1275,2.9178,0.0,0.0,0.0,0.0,0.0,0.0,0.0,0.0,0.0,0.0,0.0,0.0,0.0,0.0,0.0,0.0,0.0,0.0,0.0,0.0,0.0,0.0,0.0,0.0,0.0,0.0,0.0,0.0,0.0,0.0,0.0,0.0,0.0,0.0,0.0,0.0,0.0,0.0,0.0,0.0,3.963,4.6495,5.1656,5.332,5.5383,5.6065,5.4625,5.3531,5.0784,4.57,4.2047,0.0,0.0,0.0,0.0,0.0,0.0,0.0,0.0,0.0,0.0,0.0,0.0,0.0,0.0,0.0,0.0,0.0,0.0,0.0,0.0,0.0,0.0,0.0,0.0,0.0,0.0,0.0,0.0,0.0,0.0,0.0,0.0,0.0,0.0,0.0,0.0,0.0,0.0,0.0,0.0,0.0,0.0,0.0,0.0,0.0,0.0,0.0,0.0,0.0,0.0,0.0,0.0,0.0,0.0,0.0,0.0,0.0,0.0,0.0,3.6299,3.4252,0.0,0.0,0.0,0.0,0.0,0.0,0.0,0.0,0.0,0.0,0.0,0.0,0.0,0.0,0.0,0.0,0.0,0.0,0.0,0.0,0.0,0.0,0.0,0.0,0.0,0.0,0.0,0.0,0.0,0.0,0.0,0.0,0.0,0.0,0.0,0.0,0.0,0.0,0.0,0.0,4.1636,4.7193,5.1432,5.3303,5.4862,5.515,5.3582,5.3,5.1133,4.7468,4.4169,0.0,0.0,0.0,0.0,0.0,0.0,0.0,0.0,0.0,0.0,0.0,0.0,0.0,0.0,0.0,0.0,0.0,0.0,0.0,0.0,0.0,0.0,0.0,0.0,0.0,0.0,0.0,0.0,0.0,0.0,0.0,0.0,0.0,0.0,0.0,0.0,0.0,0.0,0.0,0.0,0.0,0.0,0.0,0.0,0.0,0.0,0.0,0.0,0.0,0.0,0.0,0.0,0.0,4.1491,4.2591,4.3673,4.4434,4.5128,4.5534,4.183,4.046,4.062,3.7094,0.0,0.0,0.0,0.0,0.0,0.0,0.0,0.0,0.0,0.0,0.0,0.0,0.0,0.0,0.0,0.0,0.0,0.0,0.0,0.0,0.0,0.0,4.1204,4.3031,4.4434,4.3684,3.7466,0.0,0.0,0.0,0.0,0.0,0.0,0.0,0.0,0.0,0.0,0.0,4.4056,4.8003,5.1116,5.3281,5.4154,5.3983,5.2428,5.2372,5.1405,4.9046,4.619,4.3524,0.0,0.0,0.0,0.0,0.0,0.0,0.0,0.0,0.0,0.0,0.0,0.0,0.0,0.0,0.0,0.0,0.0,0.0,0.0,0.0,0.0,0.0,0.0,0.0,0.0,0.0,0.0,0.0,0.0,0.0,0.0,0.0,2.6489,2.9122,0.0,0.0,0.0,0.0,0.0,0.0,0.0,0.0,0.0,0.0,0.0,0.0,0.0,4.0079,4.2219,4.5043,4.621,4.5788,4.8477,4.9509,4.9086,4.9847,5.0221,5.0321,4.9712,0.0,4.3819,4.1339,0.0,0.0,0.0,0.0,0.0,0.0,0.0,0.0,0.0,0.0,0.0,0.0,0.0,0.0,0.0,0.0,0.0,0.0,0.0,0.0,0.0,0.0,4.7767,4.8054,4.8274,4.8156,4.7158,4.1948,3.6891,3.494,3.3102,3.1481,0.0,0.0,0.0,0.0,0.0,0.0,4.4959,4.8781,5.1691,5.3331,5.4154,5.3983,5.2428,5.2874,5.2228,4.9884,4.8679,4.728,4.5541,4.1938,0.0,0.0,0.0,0.0,0.0,0.0,0.0,0.0,0.0,0.0,0.0,0.0,0.0,0.0,0.0,0.0,0.0,0.0,0.0,0.0,0.0,0.0,0.0,0.0,0.0,0.0,0.0,0.0,0.0,2.5572,2.9008,3.035,3.0889,3.0498,0.0,0.0,0.0,0.0,0.0,0.0,0.0,0.0,0.0,4.2202,4.3696,4.5365,4.7158,4.89,4.9813,4.9915,5.12,5.1894,5.2012,5.235,5.2503,5.2503,5.2503,5.115,4.8714,4.6075,4.3311,4.0591,0.0,0.0,0.0,0.0,3.7597,3.8054,4.0704,4.1251,4.0744,4.0572,0.0,0.0,0.0,0.0,0.0,0.0,0.0,4.183,4.3944,4.7039,4.983,5.0659,5.12,5.142,5.0947,4.797,4.4316,4.0688,3.9563,3.7912,3.3783,3.3508,0.0,0.0,0.0,4.2963,4.7039,5.005,5.2249,5.3382,5.3766,5.3346,5.1808,5.1993,5.1363,4.9516,4.8995,4.8233,4.7074,4.46,4.1742,0.0,0.0,0.0,0.0,0.0,0.0,0.0,0.0,0.0,0.0,0.0,0.0,0.0,0.0,0.0,0.0,0.0,0.0,0.0,0.0,0.0,0.0,0.0,0.0,0.0,0.0,0.0,0.0,2.8526,3.1305,3.2276,3.3845,3.3964,0.0,0.0,0.0,0.0,0.0,0.0,4.0054,4.21,4.4401,4.7022,4.8096,4.9263,5.054,5.0844,5.1277,5.1811,5.1995,5.2395,5.2979,5.3111,5.3194,5.3178,5.3046,5.2629,5.1878,4.937,4.711,4.5022,4.343,4.1943,4.0912,4.2285,4.2444,4.2384,4.5435,4.5979,4.5253,4.4531,4.2958,4.0763,3.7667,0.0,0.0,0.0,0.0,4.4421,4.7858,4.9712,5.098,5.23,5.3061,5.3348,5.2739,5.2181,5.049,4.5991,4.5297,4.3707,3.8294,3.8311,0.0,3.9097,4.2202,4.5759,4.9137,5.1166,5.2604,5.3416,5.3501,5.2959,5.1606,5.1319,5.0659,4.9357,4.9005,4.8592,4.7986,4.677,4.4518,4.1092,0.0,0.0,0.0,0.0,0.0,0.0,0.0,0.0,0.0,0.0,0.0,0.0,0.0,0.0,0.0,0.0,0.0,0.0,0.0,0.0,0.0,0.0,0.0,0.0,0.0,0.0,0.0,0.0,0.0,3.7202,3.8234,0.0,0.0,0.0,0.0,3.8497,4.0646,4.32,4.6177,4.7784,4.9323,5.0847,5.0758,5.1018,5.1812,5.0892,5.047,5.0502,5.1138,5.149,5.1538,5.2085,5.2373,5.2341,5.174,5.149,5.1376,5.0115,4.828,4.6035,4.4261,4.2665,4.1535,4.3079,4.4037,4.4816,4.6407,4.6916,4.7123,4.8493,4.7415,4.5318,4.378,4.2805,0.0,0.0,4.5537,4.782,5.0384,5.1623,5.2401,5.3247,5.3467,5.3501,5.345,5.3416,5.2672,5.0219,4.8663,4.7192,4.5449,0.0,4.5263,4.5263,4.665,4.8497,5.0779,5.1809,5.2604,5.3416,5.3501,5.3162,5.2317,5.1606,5.0879,5.0084,4.9371,4.8978,4.8944,4.8186,4.6709,4.4389,4.0731,0.0,0.0,0.0,0.0,0.0,0.0,0.0,0.0,0.0,0.0,0.0,0.0,0.0,0.0,0.0,0.0,0.0,0.0,0.0,0.0,0.0,0.0,0.0,0.0,0.0,0.0,0.0,0.0,4.0426,4.2252,0.0,4.1508,4.2066,4.265,4.2958,4.4633,4.6235,4.7559,4.8637,4.9651,5.0631,5.0614,5.0898,5.1571,5.1224,5.1254,5.163,5.1885,5.1957,5.1973,5.2197,5.2308,5.2292,5.2069,5.1957,5.1909,5.0842,4.981,4.8877,4.8247,4.7653,4.7267,4.7808,4.7753,4.747,4.7989,4.7725,4.7221,4.7324,4.6808,4.6088,4.5758,4.5468,4.5556,4.7044,4.8055,4.9102,5.1111,5.1871,5.2277,5.3281,5.3501,5.3501,5.3501,5.3501,5.3264,5.2452,5.1454,4.9965,4.7517,4.7902,4.8206,4.7276,4.8768,5.049,5.1758,5.2587,5.3179,5.3467,5.3501,5.3179,5.2367,5.164,5.0693,4.9475,4.8714,4.8088,4.7597,4.6887,4.5652,4.3859,4.1576,3.7973,0.0,0.0,0.0,0.0,0.0,0.0,0.0,0.0,0.0,0.0,0.0,0.0,0.0,0.0,0.0,0.0,0.0,0.0,0.0,0.0,0.0,0.0,0.0,0.0,0.0,3.7297,4.0832,4.2855,4.4988,4.6055,4.5432,4.5815,4.6314,4.6684,4.758,4.835,4.885,4.9585,5.0231,5.071,5.0596,5.073,5.1189,5.0853,5.0908,5.1288,5.1481,5.159,5.159,5.1825,5.1934,5.1918,5.1684,5.159,5.1532,5.0663,5.019,5.0016,5.0016,4.9915,4.9696,4.9696,4.9083,4.8293,4.8293,4.7876,4.7234,4.68,4.6651,4.6689,4.6869,4.6921,4.7184,4.8718,4.9117,4.9483,5.0988,5.1377,5.1667,5.2714,5.2956,5.3076,5.3433,5.3501,5.3501,5.3501,5.3078,5.1995,4.9779,5.0422,5.0811,4.9576,5.0879,5.2164,5.2638,5.3179,5.3501,5.3501,5.3501,5.3179,5.2367,5.1403,5.0321,4.9086,4.7851,4.6955,4.6447,4.572,4.4722,4.3426,4.1728,3.9123,3.5639,0.0,0.0,0.0,0.0,0.0,0.0,0.0,0.0,0.0,0.0,0.0,0.0,0.0,0.0,0.0,0.0,0.0,0.0,0.0,0.0,0.0,0.0,0.0,3.8051,4.0612,4.3047,4.4575,4.6435,4.7422,4.6975,4.7023,4.7834,4.9555,4.945,4.9617,5.0281,5.0984,5.1327,5.1327,5.096,5.0743,5.0758,4.9805,4.9359,4.9389,4.9972,5.0226,5.024,5.0883,5.1214,5.1184,5.0495,5.0226,5.0181,4.9583,4.9374,4.9374,4.9329,4.8925,4.8312,4.8312,4.7908,4.7339,4.7309,4.7309,4.7309,4.7309,4.7309,4.7309,4.7309,4.7309,4.7495,4.8486,4.8743,4.8988,5.0087,5.0358,5.0589,5.1614,5.1832,5.2117,5.3195,5.3382,5.3416,5.3433,5.3467,5.3213,5.2469,5.2993,5.3247,5.2452,5.301,0.0,5.3501,5.3501,5.3501,5.3501,5.3501,5.3179,5.2367,5.0947,4.9763,4.8984,4.6887,4.5669,4.5669,4.4942,4.4198,4.3409,4.1296,4.0189,4.013,0.0,0.0,0.0,0.0,0.0,0.0,0.0,0.0,0.0,0.0,0.0,0.0,0.0,0.0,0.0,0.0,0.0,0.0,0.0,0.0,0.0,3.637,3.9263,4.1557,4.4457,4.6851,4.8132,4.9239,4.9768,4.9437,4.9443,4.933,4.9056,4.9439,4.9409,4.8916,4.9515,4.9881,4.9881,4.9772,4.9943,5.0366,5.0094,5.0212,5.0676,5.087,5.0945,5.0913,5.1139,5.1214,5.1214,5.1035,5.0945,5.0883,5.075,5.0676,5.0586,4.9674,4.9209,4.9045,4.9045,4.8581,4.7952,4.7474,4.7309,4.7309,4.7309,4.7309,4.7309,4.7309,4.7309,4.7337,4.7651,4.7722,4.7961,4.8948,4.9215,4.9496,5.055,5.0817,5.0892,5.1171,5.1245,5.1484,5.2205,5.2348,5.2526,5.3078,5.3348,5.3433,5.3213,5.3365,0.0,5.3501,5.3501,5.3501,5.3501,5.3501,5.3179,5.2367,5.0947,4.9323,4.7513,4.5821,4.4919,4.4919,4.4147,4.3639,4.3392,4.2801,4.1982,0.0,0.0,0.0,0.0,0.0,0.0,0.0,0.0,0.0,0.0,0.0,0.0,0.0,0.0,0.0,0.0,0.0,0.0,0.0,0.0,0.0,0.0,3.9926,4.2693,4.5485,4.711,4.8529,4.9976,5.0046,5.0085,5.0365,4.9591,4.9128,4.9228,4.9201,4.9027,4.873,4.9314,4.9673,4.9673,4.9942,5.0257,5.0599,5.0599,5.0794,5.1214,5.1214,5.1214,5.1214,5.1214,5.1214,5.1214,5.1214,5.1214,5.1214,5.1214,5.1214,5.1139,0.0,0.0,0.0,0.0,4.906,4.8596,4.7938,4.7713,4.7668,4.7399,4.7309,4.7309,4.7309,4.7309,4.7309,4.7309,4.7309,4.7409,4.803,4.8183,4.846,4.9496,4.9734,4.9852,5.0281,5.0397,5.055,5.1155,5.1614,0.0,5.2714,5.3195,5.3501,5.3501,5.3501,5.3501,5.3501,5.3501,5.3501,5.3501,5.3501,5.3179,5.2367,5.0947,0.0,0.0,0.0,4.5043,4.5043,4.4621,0.0,0.0,0.0,0.0,0.0,0.0,0.0,0.0,4.6497,4.6512,0.0,0.0,0.0,0.0,0.0,0.0,0.0,0.0,0.0,0.0,0.0,0.0,0.0,0.0,0.0,0.0,4.3729,4.6645,4.8939,4.8517,4.8658,5.037,4.9519,4.915,4.9986,4.8469,4.8041,4.9524,4.8927,4.876,4.9389,5.0002,0.0,0.0,0.0,5.1214,5.1214,5.1214,5.1214,5.1214,5.1214,5.1259,5.1334,5.1244,5.1259,5.1334,5.1334,5.1289,5.1229,5.1304,5.1289,5.1214,5.1214,5.0823,5.0226,4.9613,4.9419,4.9329,4.8626,0.0,0.0,4.7713,4.7474,4.7414,4.7414,4.7369,4.7309,4.7309,4.7309,4.7309,4.7309,4.7309,4.7538,4.8403,4.8636,4.8866,4.9852,5.0064,5.0087,5.0204,5.093,5.1598,5.1849,5.2784,5.3501,5.3501,5.3501,5.3501,5.3501,5.3501,5.3501,5.3501,5.3501,0.0,5.2367,5.1014,4.9864,4.9052,4.7158,4.6075,4.6075,4.6312,4.6989,4.8139,4.8951,5.0016,5.1352,5.2807,5.3957,5.4718,4.934,4.8984,0.0,0.0,0.0,0.0,0.0,0.0,0.0,0.0,0.0,0.0,0.0,0.0,0.0,0.0,0.0,4.2266,4.4291,4.6249,4.8568,4.807,4.7889,4.9037,4.8976,4.8569,4.7961,4.8019,4.822,4.8544,4.9344,4.9867,5.0001,5.0629,5.0988,5.0988,5.1154,5.1214,5.1214,5.1214,5.1214,5.1214,5.1214,0.0,5.1992,5.1468,5.1513,5.2007,5.2007,5.1708,5.1259,5.1798,5.1693,5.1214,5.1214,5.1139,5.0945,5.024,5.0001,4.9957,4.9299,4.912,4.9105,4.897,4.8536,4.8102,4.8102,4.7728,0.0,4.7309,4.7309,4.7309,4.7309,4.7309,4.7337,4.7523,4.7609,4.7651,4.7849,4.7892,4.8157,4.8948,4.9256,4.9938,5.1614,5.2784,5.3501,5.3501,5.3501,5.3501,5.3501,5.3501,5.3501,5.3501,5.3501,5.3179,5.2367,5.1505,5.0422,4.9086,4.8612,4.8359,4.8359,5.0084,5.0591,4.9678,5.098,5.1809,5.2097,5.3044,5.4499,5.6325,5.46,5.4549,0.0,0.0,0.0,0.0,0.0,0.0,0.0,0.0,0.0,0.0,0.0,3.519,3.7509,0.0,4.2117,4.4411,4.5663,4.6728,4.7897,4.7609,4.7679,4.8677,4.8377,4.7834,4.7337,4.7908,4.8416,4.8805,4.9688,5.0345,5.0659,5.1035,5.1214,5.1214,5.1214,5.1214,5.1214,5.1214,5.1379,5.1708,5.1708,5.2052,5.268,5.2351,5.2381,5.2695,5.2695,5.2501,5.2202,5.2202,5.2007,5.1678,5.1349,5.1214,5.1184,5.0808,5.0689,5.0584,4.9987,4.9748,4.9703,4.9419,4.8865,4.8282,4.8282,4.7833,4.7309,4.7309,4.7309,4.7309,4.7309,4.7309,4.7309,4.7309,4.7309,4.7309,4.7309,4.7309,4.7452,4.7946,4.8444,4.9135,5.0188,5.1245,5.2098,5.2627,5.2714,5.2714,5.2714,5.3161,5.3501,5.3501,5.3501,5.3348,5.2942,5.2198,5.1285,5.0185,5.0118,5.027,5.0642,5.1708,5.2147,5.1809,5.2892,5.345,5.345,5.46,5.5716,5.6816,5.7188,5.756,0.0,0.0,0.0,0.0,0.0,0.0,0.0,3.127,3.2677,3.4936,3.718,3.9439,4.1728,4.3539,4.5053,4.6322,4.6965,4.7309,4.7309,4.7309,4.7609,4.8403,4.7807,4.7309,4.7309,4.8012,4.8745,4.9269,4.9987,5.0614,5.1184,5.1214,5.1274,5.1409,5.1409,5.1468,5.1603,5.1603,5.1872,5.2396,5.2396,5.274,5.3369,5.3234,5.3249,5.3369,5.3234,5.3249,5.3324,5.2665,5.2396,5.2336,5.1813,5.1528,5.1394,5.1274,5.1214,5.1139,5.0569,5.0375,5.03,4.9823,4.9209,4.8671,4.8671,4.8117,4.7489,4.7489,4.7399,4.7309,4.7309,4.7309,4.7309,4.7309,4.7309,4.7309,4.7309,4.7309,4.7309,4.7309,4.7946,4.8553,4.8743,4.9336,5.0204,5.1431,5.176,5.1921,5.1921,5.2835,5.3501,5.3501,5.3501,5.3501,5.3501,5.2909,5.2283,5.1691,5.1657,5.1928,5.252,5.2536,5.2909,5.3704,5.4296,5.4735,5.5023,5.6224,5.6951,5.7273,5.8592,5.9218,2.6019,2.6761,2.8244,3.1824,3.1495,3.2123,0.0,3.9086,3.8407,4.1541,4.2886,4.3808,4.4691,4.5544,4.6337,4.707,4.7249,4.7309,4.7309,4.7309,4.7337,4.7452,4.7381,4.7309,4.7309,4.8431,4.9239,4.9299,5.0406,5.1139,5.1214,5.1214,5.1483,5.2067,5.2097,5.2366,5.295,5.2965,5.2995,5.3069,5.3069,5.3428,5.4072,5.3458,5.3503,5.4057,5.3443,5.3533,5.4042,5.3354,5.3069,5.3054,5.2995,5.2606,5.2022,5.1439,5.1214,5.1214,5.1124,5.1109,5.1094,5.102,5.051,4.9971,4.9971,4.9149,4.8177,4.8177,4.7758,4.7309,4.7309,4.7309,4.7309,4.7309,4.7309,4.7309,4.7309,4.7309,4.7309,4.7309,4.7381,4.7764,4.8636,4.8141,4.8309,5.0281,5.132,5.1921,5.1921,5.2835,5.3501,5.3501,5.3501,5.3501,5.3501,5.3416,5.3331,5.3264,5.3247,5.3281,5.3365,5.3365,5.3721,5.4448,5.4549,5.5226,5.6545,5.6714,5.7476,5.8795,5.959,5.9979,3.0582,3.1703,3.2766,3.5175,3.6312,3.7704,4.1078,4.1519,4.1878,4.4032,4.502,4.5678,4.6337,4.6696,4.698,4.7249,4.7309,4.7309,4.7309,4.7309,4.716,4.677,4.707,4.7309,4.7309,4.8491,4.9314,4.9314,5.0481,5.1214,5.1214,5.1214,5.1528,5.2172,5.2202,5.2516,5.3174,5.3174,5.3384,5.3773,5.3773,5.4132,5.4775,5.4476,5.4506,5.476,5.4476,5.4506,5.473,5.4057,5.3773,5.3743,5.3339,5.301,5.2695,5.2037,5.1558,5.1214,5.1214,5.1214,5.1214,5.1214,5.0734,5.0196,5.0196,4.9583,4.885,4.885,4.87,4.8356,4.7982,4.7878,4.7773,4.7399,4.7309,4.7309,4.7309,4.7309,4.7309,4.7309,4.7309,4.7409,4.7834,4.7566,4.7566,4.8475,4.9456,5.011,5.011,5.1541,5.28,5.3416,5.3501,5.3501,5.3501,5.3501,5.3501,5.3501,5.3501,5.3501,5.3501,5.3907,5.4279,5.4583,5.5429,5.619,5.6799,5.7222,5.7983,5.9032,5.9759,6.0351,3.359,3.51,3.6432,3.8093,4.0232,4.2058,4.2611,4.3479,4.4441,4.5618,4.6247,4.6681,4.698,4.7189,4.7249,4.7055,4.7189,4.7309,4.7309,4.7145,4.692,4.6636,4.686,4.7115,4.7294,4.8341,4.912,4.9299,5.0316,5.102,5.1214,5.1394,5.1798,5.2441,5.265,5.3069,5.3728,5.3728,5.3982,5.4476,5.4476,5.473,5.5194,5.5194,5.5194,5.5194,5.5194,5.5194,5.5149,5.4685,5.4476,5.4431,5.3922,5.3623,5.3384,5.271,5.2052,5.1468,5.1274,5.1214,5.1214,5.1214,5.0853,5.0465,5.0465,5.0047,4.9538,4.9538,4.9449,4.9209,4.8686,4.8416,4.8162,4.7683,4.7429,4.7309,4.7309,4.7309,4.7309,4.7309,4.7309,4.7309,4.7309,4.7309,4.7309,4.7309,4.7919,4.8486,4.8743,5.0595,5.2312,5.3382,5.3501,5.3501,5.3501,5.3501,5.3501,5.3501,5.3501,5.3501,5.3501,5.4211,5.4685,5.4905,5.6156,5.69,5.7103,5.7831,5.8575,5.9336,6.008,6.0842,3.3499,3.54,3.7973,4.0606,4.2282,4.3738,4.5696,4.616,4.6384,4.71,4.7264,4.7085,4.6429,4.6875,4.71,4.6456,4.689,4.7309,4.7309,4.6756,4.6576,4.7204,4.6726,4.6606,4.7249,4.7923,4.8581,4.9269,4.9883,5.0495,5.1184,5.1828,5.2471,5.3129,5.3803,5.4461,5.5119,5.5134,5.5149,5.5164,5.5164,5.5164,5.5194,5.5194,5.5194,5.5194,5.5194,5.5194,5.5194,5.5164,5.5164,5.5164,5.5149,5.4745,5.4102,5.3414,5.274,5.2082,5.1439,5.1214,5.1214,5.1214,5.1214,5.1184,5.1184,5.0689,5.0166,5.0166,4.9748,4.9314,4.9284,4.8805,4.8282,4.8252,4.7773,4.7309,4.7309,4.7309,4.7309,4.7309,4.7309,4.7309,4.7309,4.7309,4.7309,4.7309,4.7352,4.7694,4.8661,5.0595,5.2312,5.3382,5.3501,5.3501,5.3501,5.3501,5.3501,5.3501,5.3501,5.3501,5.3501,5.4211,5.4938,5.5666,5.6427,5.7154,5.7865,5.8609,5.9353,6.008,6.0892,6.1653,3.5414,3.7288,3.93,4.1532,4.3031,4.4095,4.4376,4.5086,4.5446,4.4438,4.3918,4.3464,4.2895,4.3574,4.4336,4.4556,4.5747,4.68,4.7249,4.7115,4.689,4.6681,4.6845,4.689,4.6681,4.7653,4.8566,4.9269,4.9868,5.0674,5.1813,5.2082,5.271,5.3832,5.4087,5.4521,5.5179,5.5194,5.5194,5.5194,5.5194,5.5194,5.5194,5.5194,5.5194,5.5194,5.5194,5.5194,5.5194,5.5194,5.5194,5.5194,5.5194,5.5059,5.4775,5.4102,5.3428,5.2695,5.1603,5.1214,5.1214,5.1214,5.1214,5.1214,5.1214,5.1065,5.0838,5.0838,5.0735,5.0466,5.0017,4.9748,4.9479,4.9045,4.8805,4.8491,4.8057,4.7952,4.7833,4.7399,4.7309,4.7309,4.7309,4.7309,4.7309,4.7309,4.7309,4.7651,4.8677,4.94,5.0534,5.2241,5.2435,5.2714,5.3433,5.3501,5.3501,5.3501,5.3957,5.4228,5.4228,5.5412,5.619,5.6427,5.7154,5.7645,5.7881,5.8152,5.8896,6.0114,6.0385,6.118,3.6594,3.8345,3.9984,4.1934,4.3267,4.3963,4.3596,4.3995,4.3969,4.2429,4.1626,4.0907,3.9938,4.0843,4.1886,4.2296,4.3803,4.5311,4.6476,4.6432,4.6459,4.6967,4.7189,4.7324,4.7369,4.8132,4.8865,4.9284,4.9868,5.0764,5.2127,5.2426,5.3054,5.4177,5.4446,5.476,5.5194,5.5194,5.5194,5.5194,5.5194,5.5194,5.5194,5.5194,5.5194,5.5194,5.5194,5.5194,5.5194,5.5194,5.5194,5.5194,5.5194,5.5194,5.5119,5.4461,5.3922,5.3354,5.2037,5.1409,5.1214,5.1214,5.1214,5.1214,5.1214,5.1214,5.1214,5.1214,5.1214,5.1124,5.0659,5.036,5.0091,4.9703,4.9434,4.9134,4.8431,4.8282,4.8087,4.7429,4.7309,4.7309,4.7309,4.7309,4.7309,4.7309,4.7309,4.7651,4.8677,4.8784,4.944,5.1192,5.1687,5.2189,5.287,5.35,5.389,5.389,5.4583,5.4989,5.4989,5.6156,5.6799,5.6799,5.7509,5.7881,5.7881,5.8423,5.9167,6.0114,6.0672,6.1434,3.7126,3.8642,4.0011,4.1975,4.2934,4.3395,4.3231,4.2844,4.2182,4.0883,4.0196,3.9227,3.7462,3.853,3.9762,3.9869,4.1326,4.3156,4.5277,4.4987,4.552,4.8029,4.7788,4.7893,4.9194,4.9344,4.9374,4.9404,4.9942,5.0823,5.2172,5.2875,5.3548,5.4236,5.4865,5.5194,5.5194,5.5194,5.5194,5.5194,5.5194,5.5194,5.5194,5.5194,5.5194,5.5194,5.5194,5.5194,5.5194,5.5194,5.5194,5.5194,5.5194,5.5194,5.5119,5.4491,5.4236,5.4027,5.271,5.1813,5.1274,5.1229,5.1214,5.1214,5.1214,5.1214,5.1214,5.1214,5.1214,5.1214,5.1214,5.0704,5.024,5.024,4.9808,4.9224,4.8521,4.8386,4.8177,4.7489,4.7324,4.7309,4.7309,4.7339,4.7354,4.7354,4.7384,4.7727,4.861,4.8702,4.9166,5.0252,5.1294,5.1898,5.1984,5.3641,5.4651,5.4651,5.5361,5.5784,5.5784,5.6478,5.6867,5.6867,5.7543,5.7881,5.7881,5.9336,6.0063,6.0131,6.1637,6.2347,3.8403,3.9535,4.0558,4.1594,4.1963,4.1599,3.978,3.9694,3.9201,3.6324,3.493,3.3713,3.207,3.4153,3.6593,3.8045,4.1099,4.4298,4.717,4.7407,4.7748,4.891,4.8865,4.894,4.9284,4.9703,5.0197,5.069,5.087,5.1543,5.286,5.3578,5.4251,5.4925,5.5104,5.5194,5.5194,5.5194,5.5194,5.5194,5.5194,5.5194,5.5194,5.5194,5.5194,5.5194,5.5194,5.5194,5.5194,5.5194,5.5194,5.5194,5.5194,5.5194,5.5164,5.4999,5.4625,5.4087,5.3234,5.2501,5.1872,5.1379,5.1214,5.1214,5.1214,5.1214,5.1214,5.1214,5.1214,5.1214,5.1214,5.1094,5.0928,5.0928,5.084,5.0541,4.9883,4.9702,4.9404,4.8252,4.7638,4.7309,4.7309,4.7713,4.8042,4.8042,4.8461,4.8534,4.7772,4.7679,4.827,4.977,5.0929,5.2107,5.3341,5.4661,5.5429,5.5429,5.6122,5.6528,5.6528,5.7222,5.7611,5.7611,5.7797,5.7881,5.7881,5.8829,5.9573,6.0114,6.1129,6.1873,3.8713,3.9582,4.0306,4.0666,4.06,3.9794,3.7432,3.6879,3.5793,3.2117,3.0846,2.9842,2.7959,3.0478,3.3512,3.543,3.8977,4.271,4.6109,4.711,4.794,4.9134,4.9508,4.9808,5.0092,5.0451,5.0945,5.1603,5.1648,5.2232,5.3563,5.3997,5.4521,5.5164,5.5194,5.5194,5.5194,5.5194,5.5194,5.5194,5.5194,5.5194,5.5194,5.5194,5.5194,5.5194,5.5194,5.5194,5.5194,5.5194,5.5194,5.5194,5.5194,5.5194,5.5194,5.5194,5.4955,5.4536,5.3862,5.3189,5.2471,5.1528,5.1214,5.1214,5.1214,5.1214,5.1214,5.1214,5.1214,5.1214,5.1214,5.1214,5.1214,5.1214,5.1214,5.1035,5.033,5.0196,4.9882,4.891,4.8416,4.8162,4.8162,4.8476,4.876,4.876,4.9075,4.9045,4.8252,4.8162,4.8546,4.9459,5.0533,5.1548,5.2533,5.3901,5.4945,5.5422,5.6127,5.6768,5.7273,5.7679,5.8051,5.8372,5.8389,5.8541,5.8863,5.9641,6.0233,6.0655,6.1417,6.1992,3.8743,3.9333,3.9672,3.9597,3.912,3.804,3.5696,3.4248,3.229,2.8549,2.7657,2.6954,2.4926,2.7554,3.0682,3.2758,3.6171,3.992,4.3779,4.5499,4.709,4.8952,4.9866,5.0539,5.1154,5.1289,5.1618,5.2276,5.2411,5.298,5.4147,5.4296,5.4596,5.5179,5.5194,5.5194,5.5194,5.5194,5.5194,5.5194,5.5194,5.5194,5.5194,5.5194,5.5194,5.5194,5.5194,5.5194,5.5194,5.5194,5.5194,5.5194,5.5194,5.5194,5.5194,5.5194,5.5194,5.5089,5.4446,5.3758,5.298,5.1753,5.1289,5.1214,5.1214,5.1214,5.1214,5.1214,5.1214,5.1214,5.1214,5.1214,5.1214,5.1214,5.1214,5.1065,5.045,5.0255,5.0031,4.9508,4.9359,4.9314,4.9314,4.9389,4.9434,4.9434,4.9524,4.9569,4.9569,4.9419,4.9344,4.9434,5.0365,5.0983,5.1076,5.2681,5.4059,5.4972,5.578,5.6663,5.7628,5.7808,5.8254,5.8998,5.9015,5.937,6.0097,6.0909,6.1298,6.1315,6.2059,6.2381,3.9371,3.9622,3.9584,3.9132,3.8241,3.6784,3.411,3.1951,2.9654,2.6653,2.5322,2.4443,2.3559,2.582,2.8877,3.2091,3.5075,3.8577,4.3106,4.5328,4.6957,4.8319,4.9979,5.1094,5.1214,5.1708,5.2291,5.2965,5.3533,5.3967,5.4206,5.473,5.5074,5.5194,5.5194,5.5194,5.5194,5.5194,5.5194,5.5194,5.5194,5.5194,5.5194,5.5194,5.5194,5.5194,5.5194,5.5194,5.5194,5.5194,5.5194,5.5194,5.5194,5.5194,5.5194,5.5194,5.5194,5.5089,5.4446,5.3758,5.3054,5.2276,5.1663,5.1214,5.1214,5.1214,5.1214,5.1214,5.1214,5.1214,5.1214,5.1214,5.1214,5.1214,5.1214,5.1184,5.1065,5.0569,5.0166,5.0046,4.9628,4.9314,4.9314,4.9703,5.0016,5.0016,5.0541,5.0885,5.0885,4.9927,4.9479,5.0017,5.1053,5.194,5.2498,5.3703,5.4496,5.4686,5.5649,5.6282,5.6492,5.7389,5.8254,5.8998,5.9015,5.937,6.0097,6.0909,6.1298,6.1315,6.2059,6.2381,3.9459,3.9697,3.9559,3.9007,3.785,3.5893,3.2554,3.008,2.7532,2.4155,2.305,2.2435,2.1568,2.3916,2.6914,2.9797,3.2617,3.6153,4.1018,4.3777,4.5863,4.7648,4.9855,5.1349,5.1693,5.2007,5.2621,5.3638,5.4027,5.4356,5.47,5.5029,5.5194,5.5194,5.5194,5.5194,5.5194,5.5194,5.5194,5.5194,5.5194,5.5194,5.5194,5.5194,5.5194,5.5194,5.5194,5.5194,5.5194,5.5194,5.5194,5.5194,5.5194,5.5194,5.5194,5.5194,5.5194,5.5149,5.4835,5.4281,5.3608,5.2935,5.2037,5.1214,5.1214,5.1214,5.1214,5.1214,5.1214,5.1214,5.1214,5.1214,5.1214,5.1214,5.1214,5.1214,5.1214,5.0928,5.0704,5.0704,5.0496,5.0287,5.0287,5.0541,5.0704,5.0704,5.0973,5.1214,5.1214,5.0676,5.0406,5.0674,5.1212,5.1668,5.2002,5.253,5.3217,5.4175,5.4931,5.5937,5.7251,5.8047,5.9015,6.0182,6.0216,6.0554,6.1298,6.167,6.1873,6.1873,6.2229,6.2381,3.9245,3.9597,3.9534,3.8856,3.7337,3.5027,3.1298,2.8524,2.5749,2.2221,2.1292,2.0891,2.0125,2.2246,2.4912,2.7439,2.9932,3.3405,3.8743,4.1907,4.46,4.7128,4.9663,5.1424,5.1932,5.2247,5.2845,5.3907,5.4251,5.464,5.5164,5.5194,5.5194,5.5194,5.5194,5.5194,5.5194,5.5194,5.5194,5.5194,5.5194,5.5194,5.5194,5.5194,5.5194,5.5194,5.5194,5.5194,5.5194,5.5194,5.5194,5.5194,5.5194,5.5194,5.5194,5.5194,5.5194,5.5194,5.5194,5.476,5.4117,5.3578,5.2516,5.1409,5.1259,5.1214,5.1214,5.1214,5.1214,5.1214,5.1214,5.1214,5.1214,5.1214,5.1214,5.1214,5.1214,5.1214,5.1214,5.1214,5.1214,5.1214,5.1214,5.1214,5.1214,5.1214,5.1214,5.1214,5.1214,5.1214,5.1214,5.1214,5.1214,5.1214,5.1214,5.1214,5.189,5.3453,5.4103,5.5483,5.7863,5.8519,5.9633,6.1281,6.1298,6.1653,6.2381,6.2381,6.2381,6.2381,6.2381,6.2381,3.8781,3.932,3.9433,3.8354,3.6471,3.3997,3.0633,2.7369,2.4368,2.1983,2.0677,2.0087,2.0541,2.1282,2.2883,2.6139,2.7721,3.0663,3.686,4.0412,4.3616,4.6987,4.9663,5.1244,5.1304,5.2381,5.3144,5.3264,5.4401,5.5119,5.5194,5.5194,5.5194,5.5194,5.5194,5.5194,5.5194,5.5194,5.5194,5.5194,5.5194,5.5194,5.5194,5.5194,5.5194,5.5194,5.5194,5.5194,5.5194,5.5194,5.5194,5.5194,5.5194,5.5194,5.5194,5.5194,5.5194,5.5194,5.5194,5.476,5.4206,5.4147,5.3204,5.1992,5.1394,5.1214,5.1214,5.1214,5.1214,5.1214,5.1214,5.1214,5.1214,5.1214,5.1214,5.1214,5.1214,5.1214,5.1214,5.1214,5.1214,5.1214,5.1214,5.1214,5.1214,5.1214,5.1214,5.1214,5.1214,5.1214,5.1214,5.1214,5.1214,5.1214,5.1214,5.1214,5.1546,5.2332,5.3392,5.4813,5.6798,5.7805,5.9289,6.1243,6.1298,6.1653,6.2381,6.2381,6.2381,6.2381,6.2381,6.2381,3.7839,3.8768,3.9007,3.8203,3.6345,3.3859,3.0545,2.7218,2.4161,2.1945,2.0589,1.9874,2.01,2.0641,2.1898,2.4544,2.5347,2.7432,3.2628,3.5713,3.9138,4.3669,4.6746,4.9518,5.2154,5.2875,5.3518,5.4326,5.488,5.5194,5.5194,5.5194,5.5194,5.5194,5.5194,5.5194,5.5194,5.5194,5.5194,5.5194,5.5194,5.5194,5.5194,5.5194,5.5194,5.5194,5.5194,5.5194,5.5194,5.5194,5.5194,5.5194,5.5194,5.5194,5.5194,5.5194,5.5194,5.5194,5.5194,5.5029,5.4745,5.4341,5.3563,5.2665,5.2007,5.1528,5.1214,5.1214,5.1214,5.1214,5.1214,5.1214,5.1214,5.1214,5.1214,5.1214,5.1214,5.1214,5.1214,5.1214,5.1214,5.1214,5.1214,5.1214,5.1214,5.1214,5.1214,5.1214,5.1214,5.1214,5.1214,5.1214,5.1214,5.1214,5.1214,5.1588,5.2097,5.2755,5.385,5.5526,5.7888,5.8642,5.994,6.1941,6.1958,6.2093,6.2381,6.2381,6.2381,6.2381,6.2381,6.2634,3.637,3.7575,3.8039,3.7412,3.5617,3.3156,3.0018,2.6841,2.3941,2.1707,2.0476,1.9798,1.9798,2.0302,2.132,2.3188,2.3916,2.5858,3.0522,3.3106,3.6361,4.1246,4.4081,4.7094,5.0902,5.2446,5.3743,5.5089,5.5194,5.5194,5.5194,5.5194,5.5194,5.5194,5.5194,5.5194,5.5194,5.5194,5.5194,5.5194,5.5194,5.5194,5.5194,5.5194,5.5194,5.5194,5.5194,5.5194,5.5194,5.5194,5.5194,5.5194,5.5194,5.5194,5.5194,5.5194,5.5194,5.5194,5.5194,5.5194,5.5089,5.4416,5.3743,5.3054,5.2396,5.1738,5.1214,5.1214,5.1214,5.1214,5.1214,5.1214,5.1214,5.1214,5.1214,5.1214,5.1214,5.1214,5.1214,5.1214,5.1214,5.1214,5.1214,5.1214,5.1214,5.1214,5.1214,5.1214,5.1214,5.1214,5.1214,5.1214,5.1214,5.1214,5.1214,5.1648,5.2276,5.3129,5.3947,5.5581,5.8159,5.8949,6.01,6.1837,6.2206,6.2381,6.2381,6.2381,6.2381,6.2398,6.2618,6.3243,3.4299,3.5554,3.6257,3.5658,3.384,3.1512,2.875,2.5988,2.3376,2.1157,2.0239,1.9798,1.9798,2.0302,2.1056,2.2146,2.3697,2.6577,3.1772,3.4005,3.6604,4.0701,4.2297,4.4033,4.6497,5.0662,5.3743,5.5089,5.5194,5.5194,5.5194,5.5194,5.5194,5.5194,5.5194,5.5194,5.5194,5.5194,5.5194,5.5194,5.5194,5.5194,5.5194,5.5194,5.5194,5.5194,5.5194,5.5194,5.5194,5.5194,5.5194,5.5194,5.5194,5.5194,5.5194,5.5194,5.5194,5.5194,5.5194,5.5194,5.5089,5.4416,5.3743,5.3054,5.2396,5.1738,5.1214,5.1214,5.1214,5.1214,5.1214,5.1214,5.1214,5.1214,5.1214,5.1214,5.1214,5.1214,5.1214,5.1214,5.1214,5.1214,5.1214,5.1214,5.1214,5.1214,5.1214,5.1214,5.1214,5.1214,5.1214,5.1214,5.1214,5.1214,5.1214,5.1229,5.1783,5.3099,5.3223,5.4346,5.6929,5.8161,5.939,6.0602,6.1797,6.2381,6.2381,6.2381,6.2381,6.2415,6.3159,6.4275,3.0367,3.1587,3.2202,3.122,3.0167,2.8787,2.6402,2.4562,2.2857,2.1069,2.0239,1.9798,1.9798,1.9949,2.1054,2.4067,2.5008,2.6716,3.0663,3.3709,3.6521,3.8975,4.4377,4.8596,5.0307,5.2148,5.3548,5.4461,5.4521,5.4715,5.5164,5.5194,5.5194,5.5194,5.5194,5.5194,5.5194,5.5194,5.5194,5.5194,5.5194,5.5194,5.5194,5.5194,5.5194,5.5194,5.5194,5.5194,5.5194,5.5194,5.5194,5.5194,5.5194,5.5194,5.5194,5.5194,5.5194,5.5194,5.5194,5.5194,5.5089,5.4416,5.3743,5.3054,5.2396,5.1738,5.1214,5.1214,5.1214,5.1214,5.1214,5.1214,5.1214,5.1214,5.1214,5.1214,5.1214,5.1214,5.1214,5.1214,5.1214,5.1214,5.1214,5.1214,5.1214,5.1214,5.1214,5.1214,5.1214,5.1214,5.1394,5.1843,5.1483,5.1214,5.1214,5.1633,5.2261,5.3129,5.3623,5.4812,5.6897,5.8177,5.9346,6.0602,6.1813,6.2381,6.2381,6.2381,6.2651,6.3176,6.392,6.4766,2.6841,2.8197,2.8875,2.8172,2.7431,2.6389,2.4562,2.3296,2.2096,2.0666,2.0049,1.9798,1.9798,1.9987,2.0991,2.3615,2.4757,2.6402,2.9502,3.2564,3.5594,3.8679,4.4421,4.879,5.0637,5.2022,5.3099,5.3773,5.3817,5.3997,5.4401,5.4431,5.4431,5.4431,5.4925,5.5194,5.5194,5.494,5.482,5.482,5.482,5.482,5.4835,5.5074,5.5194,5.5194,5.5194,5.5194,0.0,5.5194,5.5194,5.5194,5.5194,5.5194,5.5194,5.5194,5.5194,5.5194,5.5194,5.5194,5.5044,5.4117,5.3189,5.2366,5.1947,5.1543,5.1214,5.1214,5.1214,5.1214,5.1214,5.1214,5.1214,5.1214,5.1214,5.1214,5.1214,5.1214,5.1214,5.1214,5.1214,5.1214,5.1214,5.1214,5.1214,5.1214,5.1214,5.1304,5.1558,5.1588,5.1843,5.2501,5.2202,5.1947,5.1947,5.2112,5.2591,5.3503,5.3967,5.4858,5.6283,5.79,5.917,5.993,6.1537,6.2381,6.2381,6.2381,6.2922,6.3937,6.4394,6.5138,0.0,2.5121,2.6009,2.5933,2.5134,2.4098,2.3007,2.202,0.0,1.9962,1.9748,1.9798,1.9949,2.0415,2.1031,2.1882,2.3753,2.6054,2.885,3.1248,3.462,3.984,4.304,4.5767,4.8326,5.0733,5.2411,5.3054,5.3114,5.3129,5.3174,5.3174,5.3174,5.3174,5.4401,5.5044,5.5044,5.4446,5.4147,5.4147,5.4147,5.4147,5.4162,5.476,5.5044,5.5044,5.5104,5.5119,5.5119,5.5164,5.5164,5.5119,5.5119,5.5089,5.5044,5.5044,5.5044,5.5044,5.5044,5.5044,5.4835,5.3533,5.2247,5.1214,5.1214,5.1214,5.1214,5.1214,5.1214,5.1214,5.1214,5.1214,5.1214,5.1214,5.1214,5.1214,5.1214,5.1214,5.1214,5.1214,5.1214,5.1214,5.1214,5.1214,5.1214,5.1214,5.1259,5.1513,5.2127,5.2232,5.2516,5.3189,5.3219,5.3219,5.3309,5.268,5.283,5.4132,5.4206,5.4506,5.5164,5.7465,5.8677,5.8677,6.1036,6.2302,6.2381,6.2381,6.3159,6.4597,6.4597,6.5392,1.8944,0.0,2.1167,2.0351,2.0263,2.0186,0.0,1.9459,1.9509,1.9246,1.9183,1.9697,2.1418,2.1481,2.2585,2.654,2.7584,2.9076,3.2277,3.5378,3.8984,4.3549,4.5495,4.7189,4.8853,5.0489,5.1723,5.2381,5.2441,5.265,5.3159,5.3174,5.3174,5.3174,5.3488,5.3653,5.3653,5.3488,5.3428,5.3428,5.3428,5.3428,5.3428,5.3578,5.3653,5.3683,5.4206,5.4446,5.4476,5.4985,5.4895,5.4446,5.4446,5.4117,5.3653,5.3653,5.3653,5.3653,5.3653,5.3653,5.3518,5.2695,5.1872,5.1214,5.1214,5.1214,5.1214,5.1214,5.1214,5.1214,5.1214,5.1214,5.1214,5.1214,5.1214,5.1214,5.1214,5.1214,5.1214,5.1214,5.1214,5.1214,5.1214,5.1214,5.1214,5.1214,5.1648,5.2022,5.2172,5.2636,5.3219,5.3892,5.3503,5.3593,5.4625,5.3638,5.3309,5.4162,5.4206,5.4506,5.5164,5.6638,5.7434,5.7434,5.9784,6.1497,6.2381,6.2381,6.3159,6.4597,6.4597,6.5392,1.6165,1.8326,2.0439,1.9861,2.0125,2.0425,2.0162,1.9723,1.9359,1.9359,1.9359,1.9899,2.1619,2.1895,2.3088,2.6791,2.8223,3.0357,3.4449,3.7676,4.1067,4.495,4.5803,4.7197,4.9873,5.0239,5.0434,5.0787,5.139,5.1649,5.1366,5.1958,5.2276,5.2276,5.2276,5.2576,5.3174,5.2875,5.2725,5.2725,5.2725,5.2725,5.274,5.3039,5.3174,5.3204,5.3578,5.3743,5.3773,5.4117,5.4057,5.3743,5.3743,5.3503,5.3174,5.3174,5.3174,5.3174,5.3174,5.298,5.268,5.2321,5.1753,5.1214,5.1214,5.1214,5.1214,5.1214,5.1214,5.1214,5.1214,5.1214,5.1214,5.1214,5.1214,5.1214,5.1214,5.1214,5.1214,5.1214,5.1214,5.1214,5.1214,5.1214,5.1319,5.1618,5.1977,5.2426,5.3039,5.3428,5.3907,5.4596,5.4326,5.4401,5.5134,5.4521,5.4266,5.464,5.4655,5.482,5.5179,5.6363,5.7261,5.7807,5.9653,6.0912,6.1578,6.2127,6.3159,6.4597,6.4597,6.5392,1.5255,1.8404,2.1494,2.1117,2.1594,2.2133,2.197,2.0828,1.9823,1.9911,1.9999,2.0476,2.1857,2.2636,2.3841,2.6226,2.8549,3.1599,3.604,3.8868,4.1595,4.4484,4.4952,4.6383,4.9921,4.9616,4.9112,4.8901,5.0335,5.0603,4.9259,5.0445,5.1214,5.1214,5.1214,5.1753,5.2875,5.2321,5.2052,5.2052,5.2052,5.2052,5.2067,5.2636,5.2875,5.289,5.298,5.3039,5.3039,5.3144,5.3114,5.3039,5.3039,5.2965,5.2875,5.2875,5.2875,5.2875,5.2875,5.2516,5.2052,5.2052,5.1678,5.1214,5.1214,5.1214,5.1214,5.1214,5.1214,5.1214,5.1214,5.1214,5.1214,5.1214,5.1214,5.1214,5.1214,5.1214,5.1214,5.1214,5.1214,5.1214,5.1214,5.1214,5.1409,5.1962,5.2217,5.2755,5.3907,5.4236,5.4581,5.5134,5.5194,5.5194,5.5194,5.5194,5.5194,5.5194,5.5194,5.5194,5.5194,5.6183,5.7308,5.8496,5.9697,6.0417,6.0602,6.1797,6.3159,6.4597,6.4597,6.5392,1.775,2.0117,2.156,1.927,2.0175,2.1368,2.0401,1.9987,1.9936,2.0465,2.093,2.1995,2.4506,2.5824,2.7544,3.0683,3.3458,3.5864,3.7513,3.9346,4.0873,4.1815,4.3737,4.5249,4.5872,4.7923,4.8688,4.7517,4.9776,5.0603,4.9259,5.0445,5.1214,5.1214,5.1214,5.1319,5.1513,5.1409,5.1364,5.1364,5.1364,5.1364,5.1379,5.1468,5.1528,5.1558,5.2112,5.2351,5.2396,5.295,5.286,5.2351,5.2351,5.2007,5.1528,5.1528,5.1528,5.1528,5.1528,5.1454,5.1364,5.1364,5.1304,5.1214,5.1214,5.1214,5.1214,5.1214,5.1214,5.1214,5.1214,5.1214,5.1214,5.1214,5.1214,5.1214,5.1214,5.1214,5.1214,5.1214,5.1214,5.1214,5.1214,5.1214,5.1244,5.1349,5.2321,5.3099,5.3309,5.4326,5.5089,5.5179,5.5194,5.5194,5.5194,5.5194,5.5194,5.5194,5.5194,5.5194,5.5194,5.5365,5.6051,5.7261,5.8435,5.9566,6.0602,6.1797,6.3159,6.4597,6.4597,6.5392,1.6271,1.8934,2.1127,2.0218,2.2322,2.4481,2.3966,2.315,2.2585,2.2862,2.3113,2.3853,2.5757,2.7218,2.9453,3.3339,3.583,3.7538,3.8354,3.9659,4.0965,4.2265,4.3063,4.4183,4.5937,4.6643,4.6643,4.6017,4.8539,4.9518,4.8125,5.008,5.1214,5.1214,5.1214,5.1214,5.1214,5.1214,5.1214,5.1214,5.1214,5.1214,5.1214,5.1214,5.1214,5.1229,5.1543,5.1678,5.1693,5.1992,5.1947,5.1678,5.1678,5.1483,5.1214,5.1214,5.1214,5.1214,5.1214,5.1214,5.1214,5.1214,5.1214,5.1214,5.1214,5.1214,5.1214,5.1214,5.1214,5.1214,5.1214,5.1214,5.1214,5.1214,5.1214,5.1214,5.1214,5.1214,5.1214,5.1214,5.1214,5.1214,5.1214,5.1214,5.1468,5.2172,5.28,5.3443,5.4177,5.4805,5.5194,5.5194,5.5194,5.5194,5.5194,5.5194,5.5194,5.5194,5.5194,5.5194,5.5194,5.5194,5.5466,5.6001,5.7213,5.8435,5.961,6.0812,6.2511,6.4597,6.4597,6.5392,1.521,1.7973,2.0867,2.1989,2.4506,2.6841,2.7356,2.6302,2.536,2.5875,2.6054,2.644,2.7316,2.9101,3.1634,3.5295,3.7324,3.8555,3.8994,3.9898,4.106,4.2528,4.2279,4.2992,4.5519,4.5169,4.469,4.438,4.7383,4.8589,4.7197,4.9727,5.1214,5.1214,5.1214,5.1214,5.1214,5.1214,5.1214,5.1214,5.1214,5.1214,5.1214,5.1214,5.1214,5.1214,5.1214,5.1214,5.1214,5.1214,5.1214,5.1214,5.1214,5.1214,5.1214,5.1214,5.1214,5.1214,5.1214,5.1214,5.1214,5.1214,5.1214,5.1214,5.1214,5.1214,5.1214,5.1214,5.1214,5.1214,5.1214,5.1214,5.1214,5.1214,5.1214,5.1214,5.1214,5.1214,5.1214,5.1214,5.1214,5.1214,5.1214,5.1214,5.1618,5.277,5.3084,5.3608,5.4805,5.5089,5.5194,5.5194,5.5194,5.5194,5.5194,5.5194,5.5194,5.5194,5.5194,5.5194,5.5194,5.5194,5.5194,5.5194,5.6411,5.7574,5.8812,6.0016,6.1966,6.4597,6.4597,6.5392,1.7179,1.9159,2.1248,2.391,2.4763,2.5536,2.7582,2.7168,2.6964,2.9013,2.9842,3.0218,3.0306,3.2875,3.5458,3.6847,3.8479,3.9584,3.9634,4.0149,4.0526,4.0669,4.1119,4.1458,4.1698,4.3281,4.374,4.2524,4.6623,4.8589,4.7197,4.9727,5.1214,5.1214,5.1214,5.1214,5.1214,5.1214,5.1214,5.1214,5.1214,5.1214,5.1214,5.1214,5.1214,5.1214,5.1214,5.1214,5.1214,5.1214,5.1214,5.1214,5.1214,5.1214,5.1214,5.1214,5.1214,5.1214,5.1214,5.1214,5.1214,5.1214,5.1214,5.1214,5.1214,5.1214,5.1214,5.1214,5.1214,5.1214,5.1214,5.1214,5.1214,5.1214,5.1214,5.1214,5.1214,5.1214,5.1214,5.1214,5.1214,5.1214,5.1214,5.1214,5.1454,5.2157,5.2785,5.3443,5.4177,5.482,5.5194,5.5194,5.5194,5.5194,5.5194,5.5194,5.5194,5.5194,5.5194,5.5194,5.5194,5.5194,5.5194,5.5194,5.6411,5.7574,5.8812,6.0016,6.1966,6.4597,6.4597,6.5392,1.5727,1.875,2.1993,2.3385,2.5071,2.6841,2.8725,2.9616,3.0482,3.2026,3.2792,3.3169,3.3169,3.4751,3.6295,3.7061,3.8592,3.9697,3.9697,3.9873,4.0136,4.0475,4.0701,4.0912,4.125,4.1976,4.2197,4.1697,4.4108,4.5496,4.5308,4.7097,4.8709,4.9921,4.995,5.0364,5.1167,5.1214,5.1214,5.1214,5.1214,5.1214,5.1214,5.1214,5.1214,5.1214,5.1214,5.1214,5.1214,5.1214,5.1214,5.1214,5.1214,5.1214,5.1214,5.1214,5.1214,5.1214,5.1214,5.1214,5.1214,5.1214,5.1214,5.1214,5.1214,5.1214,5.1214,5.1214,5.1214,5.1214,5.1214,5.1214,5.1214,5.1214,5.1214,5.1214,5.1214,5.1214,5.1214,5.1214,5.1214,5.1214,5.1214,5.1214,5.1588,5.265,5.3025,5.3578,5.4685,5.5029,5.5194,5.5194,5.5194,5.5194,5.5194,5.5194,5.5194,5.5194,5.5194,5.5194,5.5194,5.5194,5.5194,5.5194,5.5635,5.6445,5.7668,5.8161,5.9875,6.2815,6.3282,6.4447,1.5488,1.8946,2.2719,2.3459,2.5749,2.8335,3.0369,3.1549,3.2729,3.4562,3.4964,3.5044,3.5429,3.5968,3.6644,3.7324,3.8718,3.9697,3.9697,3.9697,3.9835,4.0212,4.0262,4.04,4.0777,4.0924,4.1025,4.1025,4.2528,4.3543,4.3939,4.5265,4.6862,4.8605,4.8634,4.9255,5.0601,5.0601,5.0705,5.0868,5.0868,5.102,5.1214,5.1214,5.1214,5.1214,5.1214,5.1214,5.1214,5.1214,5.1214,5.1214,5.1214,5.1214,5.1214,5.1214,5.1214,5.1214,5.1214,5.1214,5.1214,5.1214,5.1214,5.1214,5.1214,5.1214,5.1214,5.1214,5.1214,5.1214,5.1214,5.1214,5.1214,5.1214,5.1214,5.1214,5.1214,5.1214,5.1214,5.1214,5.1214,5.1214,5.1214,5.1394,5.1902,5.301,5.3369,5.3907,5.5044,5.5194,5.5194,5.5194,5.5194,5.5194,5.5194,5.5194,5.5194,5.5194,5.5194,5.5194,5.5194,5.5194,5.5194,5.5194,5.5194,5.5769,5.6976,5.6976,5.8647,6.1716,6.2457,6.3822,1.7197,2.0093,2.3396,2.4512,2.6882,2.964,3.2453,3.2654,3.3194,3.6521,3.6332,3.5859,3.6998,3.6795,3.6782,3.7839,3.8956,3.9697,3.9697,3.9697,3.9697,3.9697,3.9697,3.9697,3.9697,4.0187,4.0513,4.0513,4.2294,4.3358,4.3358,4.4702,4.6034,4.7322,4.7369,4.7975,4.9269,4.9269,4.9583,5.0181,5.0181,5.0524,5.1214,5.1214,5.1214,5.1214,5.1214,5.1214,5.1214,5.1214,5.1214,5.1214,5.1214,5.1214,5.1214,5.1214,5.1214,5.1214,5.1214,5.1214,5.1214,5.1214,5.1214,5.1214,5.1214,5.1214,5.1214,5.1214,5.1214,5.1214,5.1214,5.1214,5.1214,5.1214,5.1214,5.1214,5.1214,5.1214,5.1214,5.1214,5.1214,5.1214,5.1214,5.1753,5.2411,5.3069,5.3758,5.4446,5.5104,5.5194,5.5194,5.5194,5.5194,5.5194,5.5194,5.5194,5.5194,5.5194,5.5194,5.5194,5.5194,5.5194,5.5194,5.5194,5.5194,5.5769,5.6976,5.6976,5.8585,6.1656,6.2441,6.3805,1.7295,2.0721,2.4462,2.5197,2.8335,3.1662,3.3294,3.4424,3.5902,3.8417,3.8379,3.7864,3.7776,3.7965,3.8103,3.8015,3.8956,3.9697,3.9697,3.9697,3.9697,3.9697,3.9697,3.9697,3.9697,3.9835,3.9936,3.9936,4.0476,4.0989,4.132,4.1737,4.2808,4.4538,4.4602,4.5249,4.6627,4.6627,4.7172,4.8252,4.8252,4.9275,5.1214,5.1214,5.1214,5.1214,5.1214,5.1214,5.1214,5.1214,5.1214,5.1214,5.1214,5.1214,5.1214,5.1214,5.1214,5.1214,5.1214,5.1214,5.1214,5.1214,5.1214,5.1214,5.1214,5.1214,5.1214,5.1214,5.1214,5.1214,5.1214,5.1214,5.1214,5.1214,5.1214,5.1214,5.1214,5.1214,5.1214,5.1214,5.1214,5.1214,5.1214,5.1379,5.1738,5.2396,5.3054,5.3892,5.5044,5.5194,5.5194,5.5194,5.5194,5.5194,5.5194,5.5194,5.5194,5.5194,5.5194,5.5194,5.5194,5.5194,5.5194,5.5194,5.5194,5.5381,5.5735,5.5735,5.6634,5.8431,6.0003,6.1807,1.9634,2.296,2.6414,2.7595,3.0244,3.3018,3.4801,3.6144,3.7525,3.932,3.9069,3.8555,3.8655,3.8592,3.8555,3.8655,3.9245,3.9697,3.9697,3.9697,3.9697,3.9697,3.9697,3.9697,3.9697,3.9697,3.9697,3.9697,3.9697,3.9835,4.0174,4.0187,4.0977,4.262,4.2684,4.3325,4.4678,4.4726,4.5238,4.6258,4.676,4.7934,4.974,5.0458,5.0779,5.084,5.1063,5.1214,5.1214,5.1214,5.1214,5.1214,5.1214,5.1214,5.1214,5.1214,5.1214,5.1214,5.1214,5.1214,5.1214,5.1214,5.1214,5.1214,5.1214,5.1214,5.1214,5.1214,5.1214,5.1214,5.1214,5.1214,5.1214,5.1214,5.1214,5.1214,5.1214,5.1214,5.1214,5.1214,5.1214,5.1214,5.1214,5.1439,5.1738,5.2142,5.2995,5.3892,5.47,5.5029,5.5194,5.5194,5.5194,5.5194,5.5194,5.5194,5.5194,5.5194,5.5194,5.5194,5.5194,5.5194,5.5194,5.5194,5.5194,5.5194,5.5194,5.5194,5.5819,5.7039,5.8996,6.0947,2.2863,2.5719,2.8499,3.0758,3.2315,3.3985,3.6596,3.7575,3.8253,3.9383,3.8806,3.8417,3.9496,3.8856,3.8492,3.9521,3.9697,3.9697,3.9697,3.9697,3.9697,3.9697,3.9697,3.9697,3.9697,3.9697,3.9697,3.9697,3.9697,3.9697,3.9697,3.9697,4.0224,4.1406,4.1406,4.1985,4.3122,4.317,4.354,4.427,4.5525,4.6508,4.7272,4.9227,5.0106,5.0136,5.078,5.105,5.105,5.105,5.105,5.105,5.1109,5.1124,5.1139,5.1199,5.1214,5.1214,5.1214,5.1214,5.1214,5.1214,5.1214,5.1214,5.1214,5.1214,5.1214,5.1214,5.1214,5.1214,5.1214,5.1214,5.1214,5.1214,5.1214,5.1214,5.1214,5.1214,5.1214,5.1214,5.1214,5.1214,5.1214,5.1708,5.2127,5.2187,5.3249,5.4042,5.4102,5.464,5.5029,5.5089,5.5104,5.5119,5.5179,5.5194,5.5194,5.5194,5.5194,5.5194,5.5194,5.5194,5.5194,5.5194,5.5194,5.5194,5.5194,5.5194,5.5769,5.6863,5.884,6.0805,2.0926,2.4028,2.7492,3.0118,3.2918,3.5345,3.6847,3.7274,3.7688,3.8818,3.8856,3.8894,3.9572,3.9496,3.9408,3.9647,3.9697,3.9697,3.9697,3.9697,3.9697,3.9697,3.9697,3.9697,3.9697,3.9697,3.9697,3.9697,3.9697,3.9697,3.9697,3.9697,3.9839,4.007,4.0121,4.0224,4.0503,4.0503,4.1097,4.2221,4.3506,4.471,4.5926,4.8384,4.9479,4.9479,4.9628,4.9688,4.9688,4.9688,4.9688,4.9733,5.0257,5.0405,5.0465,5.1035,5.1214,5.1214,5.1214,5.1214,5.1214,5.1214,5.1214,5.1214,5.1214,5.1214,5.1214,5.1214,5.1214,5.1214,5.1214,5.1214,5.1214,5.1214,5.1214,5.1214,5.1214,5.1214,5.1214,5.1214,5.1214,5.1214,5.1214,5.1334,5.1603,5.2127,5.2456,5.2815,5.3339,5.3518,5.3817,5.4356,5.4416,5.4625,5.5149,5.5194,5.5194,5.5194,5.5194,5.5194,5.5194,5.5194,5.5194,5.5194,5.5194,5.5194,5.5194,5.5194,5.533,5.5651,5.7965,5.9585,2.1432,2.4209,2.7223,3.0879,3.364,3.5646,3.627,3.6596,3.7084,3.7889,3.8278,3.8542,3.8831,3.9107,3.9295,3.9295,3.9521,3.9697,3.9697,3.9697,3.9697,3.9697,3.9697,3.9697,3.9697,3.9697,3.9697,3.9697,3.9697,3.9697,3.9697,3.9697,3.9697,3.9697,3.9697,3.9697,3.9697,3.9697,4.0032,4.0693,4.1985,4.3598,4.5477,4.7762,4.9015,4.9314,4.9314,4.9314,4.9314,4.9314,4.9314,4.9344,4.9643,4.9778,4.9808,5.0152,5.0287,5.0331,5.0646,5.0704,5.0749,5.1124,5.1214,5.1214,5.1214,5.1214,5.1214,5.1214,5.1214,5.1214,5.1214,5.1214,5.1214,5.1214,5.1214,5.1214,5.1214,5.1214,5.1214,5.1214,5.1214,5.1214,5.1214,5.1214,5.1334,5.1678,5.1992,5.2321,5.2665,5.298,5.3309,5.3683,5.4012,5.4341,5.4685,5.5014,5.5194,5.5194,5.5194,5.5194,5.5194,5.5194,5.5194,5.5194,5.5194,5.5194,5.5194,5.5194,5.5194,5.5244,5.7683,5.918,2.1506,2.4446,2.7406,3.1834,3.4098,3.5245,3.5332,3.583,3.6345,3.681,3.7412,3.7889,3.799,3.8391,3.8718,3.8718,3.9107,3.9396,3.9396,3.9396,3.9446,3.9534,3.9546,3.9584,3.9685,3.9697,3.9697,3.9697,3.9697,3.9697,3.9697,3.9697,3.9697,3.9697,3.9697,3.9697,3.9697,3.9697,3.9697,3.9749,4.0982,4.293,4.5463,4.7051,4.8209,4.897,4.897,4.897,4.897,4.897,4.897,4.8985,4.9105,4.9149,4.9149,4.9269,4.9314,4.9389,4.9883,5.0091,5.0285,5.0823,5.1124,5.1214,5.1214,5.1214,5.1214,5.1214,5.1214,5.1214,5.1214,5.1214,5.1214,5.1214,5.1214,5.1214,5.1214,5.1214,5.1214,5.1214,5.1214,5.1214,5.1214,5.1214,5.1214,5.1214,5.1678,5.2037,5.2037,5.2501,5.289,5.2995,5.3518,5.3907,5.4027,5.4536,5.4895,5.5014,5.5029,5.5074,5.5194,5.5194,5.5194,5.5194,5.5194,5.5194,5.5194,5.5194,5.5194,5.5229,5.7449,5.8935,1.6993,2.2139,2.7923,3.1422,3.3232,3.4248,3.468,3.5219,3.5633,3.5708,3.6584,3.7437,3.7914,3.8065,3.8115,3.8115,3.8191,3.8228,3.8228,3.8228,3.8417,3.8919,3.9032,3.917,3.9647,3.9697,3.9697,3.9697,3.9697,3.9697,3.9697,3.9697,3.9697,3.9697,3.9697,3.9697,3.9697,3.9697,3.9697,3.9749,4.0982,4.293,4.5403,4.5685,4.6431,4.7563,4.7563,4.7563,4.7563,4.7563,4.7563,4.7623,4.8192,4.8416,4.8476,4.9105,4.9314,4.9329,4.9404,4.9763,5.0196,5.0285,5.0704,5.1214,5.1214,5.1214,5.1214,5.1214,5.1214,5.1214,5.1214,5.1214,5.1214,5.1214,5.1214,5.1214,5.1214,5.1214,5.1214,5.1214,5.1214,5.1214,5.1214,5.1214,5.1214,5.1214,5.1289,5.1349,5.1349,5.1424,5.1693,5.2276,5.2411,5.2695,5.3264,5.3399,5.3698,5.4296,5.4341,5.4596,5.5164,5.5194,5.5194,5.5194,5.5194,5.5194,5.5194,5.5194,5.5194,5.5229,5.6574,5.7854,1.7723,2.2177,2.6614,2.9999,3.1913,3.3106,3.3671,3.4462,3.5044,3.5044,3.5466,3.6069,3.6923,3.7337,3.755,3.755,3.7801,3.8002,3.8002,3.8002,3.8103,3.8354,3.8391,3.8605,3.9182,3.9233,3.9371,3.9672,3.9697,3.9697,3.9697,3.9697,3.9697,3.9697,3.9697,3.9697,3.9697,3.9697,3.9697,3.9749,4.0982,4.2168,4.3313,4.4734,4.6107,4.7309,4.7309,4.7309,4.7309,4.7309,4.7309,4.7339,4.7623,4.7743,4.7773,4.8057,4.8162,4.8222,4.8596,4.891,4.9269,4.9956,5.039,5.0689,5.1109,5.1214,5.1214,5.1214,5.1214,5.1214,5.1214,5.1214,5.1214,5.1214,5.1214,5.1214,5.1214,5.1214,5.1214,5.1214,5.1214,5.1214,5.1214,5.1214,5.1214,5.1214,5.1214,5.1214,5.1214,5.1214,5.1334,5.1618,5.1977,5.2321,5.2606,5.2965,5.3309,5.3608,5.3638,5.3937,5.461,5.464,5.482,5.5179,5.5194,5.5194,5.5194,5.5194,5.5194,5.5244,5.6445,5.7668,1.7919,2.0954,2.3685,2.7544,2.9708,3.1182,3.221,3.3407,3.4299,3.4299,3.4525,3.4977,3.5793,3.6395,3.681,3.6948,3.7324,3.7588,3.7588,3.7588,3.7638,3.7789,3.7801,3.8027,3.8592,3.8655,3.8881,3.9446,3.9484,3.9546,3.9685,3.9697,3.9697,3.9697,3.9697,3.9697,3.9697,3.9697,3.9697,3.9697,4.0642,4.1269,4.1654,4.3551,4.5115,4.6358,4.7019,4.7309,4.7309,4.7309,4.7309,4.7309,4.7309,4.7309,4.7309,4.7309,4.7309,4.7369,4.7863,4.8147,4.8446,4.9419,4.9807,5.0077,5.0571,5.072,5.075,5.0915,5.0928,5.1005,5.1169,5.1214,5.1214,5.1214,5.1214,5.1214,5.1214,5.1214,5.1214,5.1214,5.1214,5.1214,5.1214,5.1214,5.1214,5.1214,5.1214,5.1214,5.1214,5.1214,5.1214,5.1214,5.1663,5.1947,5.1947,5.2396,5.2755,5.292,5.2935,5.3234,5.3922,5.4117,5.4446,5.494,5.5104,5.5194,5.5194,5.5194,5.5194,5.5244,5.6134,5.7166,1.4957,1.6645,1.8702,2.3718,2.6117,2.7883,3.0198,3.2001,3.3156,3.3156,3.3997,3.4738,3.4801,3.5219,3.5759,3.6367,3.648,3.6493,3.6493,3.6493,3.6681,3.7161,3.7224,3.745,3.8002,3.8052,3.8291,3.8919,3.8957,3.9145,3.9672,3.9697,3.9697,3.9697,3.9697,3.9697,3.9697,3.9697,3.9697,3.9697,3.9788,4.0415,4.1604,4.1739,4.2509,4.3834,4.6255,4.7309,4.7309,4.7309,4.7309,4.7309,4.7309,4.7309,4.7309,4.7309,4.7309,4.7309,4.7339,4.7758,4.8297,4.8371,4.8805,4.9359,4.9404,4.9419,4.9494,5.0061,5.024,5.039,5.1003,5.1214,5.1214,5.1214,5.1214,5.1214,5.1214,5.1214,5.1214,5.1214,5.1214,5.1214,5.1214,5.1214,5.1214,5.1214,5.1214,5.1214,5.1214,5.1214,5.1214,5.1214,5.1244,5.1274,5.1274,5.1304,5.1588,5.2217,5.2247,5.2546,5.3204,5.3862,5.4221,5.4266,5.488,5.5194,5.5194,5.5194,5.5194,5.5194,5.528,5.5952,1.4146,1.5669,1.7407,2.0712,2.3805,2.636,2.7606,3.0017,3.2001,3.2001,3.2591,3.3232,3.3596,3.4412,3.5031,3.5278,3.5604,3.583,3.583,3.6144,3.648,3.6681,3.6707,3.692,3.7425,3.7475,3.7713,3.8278,3.8316,3.8404,3.8605,3.8969,3.917,3.917,3.9509,3.9697,3.9697,3.9697,3.9697,3.9697,3.9697,3.9929,4.0415,4.1219,4.1838,4.2363,4.4116,4.5298,4.6062,4.6062,4.655,4.7309,4.7309,4.7309,4.7309,4.7309,4.7309,4.7309,4.7309,4.7459,4.7728,4.8147,4.8446,4.876,4.9179,4.9314,4.9449,5.0001,5.0196,5.0345,5.105,5.1214,5.1214,5.1214,5.1214,5.1214,5.1214,5.1214,5.1214,5.1214,5.1214,5.1214,5.1214,5.1214,5.1214,5.1214,5.1214,5.1214,5.1214,5.1214,5.1214,5.1214,5.1214,5.1214,5.1214,5.1214,5.1319,5.1558,5.1573,5.1872,5.2516,5.2785,5.3324,5.4192,5.4446,5.4775,5.5194,5.5194,5.5194,5.5194,5.5194,5.5869,1.3019,1.4258,1.5829,1.859,2.1088,2.3467,2.5673,2.8036,2.9932,3.0706,3.1436,3.2051,3.2441,3.3257,3.406,3.4625,3.4981,3.5219,3.5219,3.5579,3.5881,3.6069,3.6094,3.6307,3.6908,3.6958,3.7136,3.7688,3.7726,3.7814,3.8002,3.8366,3.8668,3.8906,3.9233,3.9509,3.9697,3.9697,3.9697,3.9697,3.9697,3.9697,3.9749,4.0605,4.0982,4.1032,4.1838,4.317,4.478,4.5207,4.5928,4.6682,4.7121,4.7309,4.7309,4.7309,4.7309,4.7309,4.7309,4.7309,4.7369,4.7818,4.7952,4.8042,4.8476,4.8655,4.879,4.9658,4.9912,5.0122,5.099,5.1214,5.1214,5.1214,5.1214,5.1214,5.1214,5.1214,5.1214,5.1214,5.1214,5.1214,5.1214,5.1214,5.1214,5.1214,5.1214,5.1214,5.1214,5.1214,5.1214,5.1214,5.1214,5.1214,5.1214,5.1214,5.1214,5.1214,5.1214,5.1409,5.1858,5.2082,5.2725,5.3847,5.4102,5.4536,5.5194,5.5194,5.5194,5.5194,5.5194,5.6051,0.0,0.0,0.0,1.7164,1.786,1.9044,2.4355,2.5913,2.6907,2.9187,3.0532,3.1286,3.1348,3.1813,3.2729,3.4361,3.4618,3.47,3.47,3.4668,3.4868,3.5408,3.547,3.5683,3.6329,3.638,3.6619,3.7123,3.7161,3.7387,3.7927,3.7977,3.8253,3.8831,3.8906,3.9132,3.9659,3.9685,3.9697,3.9697,3.9697,3.9697,3.9697,3.9697,3.9697,3.9697,3.9697,4.1082,4.3504,4.478,4.5358,4.5539,4.6785,4.7266,4.7309,4.7309,4.7309,4.7309,4.7309,4.7309,4.7309,4.7309,4.7309,4.7309,4.7309,4.7309,4.7578,4.894,4.9314,4.9614,5.087,5.1214,5.1214,5.1214,5.1214,5.1214,5.1214,5.1214,5.1214,5.1214,5.1214,5.1214,5.1214,5.1214,5.1214,5.1214,5.1214,5.1214,5.1214,5.1214,5.1214,5.1214,5.1214,5.1214,5.1214,5.1214,5.1214,5.1214,5.1214,5.1214,5.1214,5.1828,5.2486,5.3144,5.3832,5.4506,5.5164,5.5179,5.5194,5.5194,5.5194,5.646,1.1743,0.0,0.0,0.0,0.0,0.0,1.9164,2.1164,2.3473,2.6127,2.7287,2.8409,3.0453,3.126,3.1763,3.224,3.3332,3.4123,3.4123,3.4474,3.4776,3.4881,3.4906,3.5119,3.5717,3.5768,3.5994,3.6593,3.6631,3.6707,3.6857,3.7199,3.7663,3.8228,3.8655,3.8994,3.9094,3.9496,3.9697,3.9697,3.9697,3.9697,3.9697,3.9697,3.9697,3.9697,3.9697,4.007,4.0844,4.2119,4.374,4.5448,4.5779,4.6491,4.7309,4.7309,4.7309,4.7309,4.7309,4.7309,4.7309,4.7309,4.7309,4.7309,4.7309,4.7309,4.7578,4.894,4.9314,4.9614,5.087,5.1214,5.1214,5.1214,5.1214,5.1214,5.1214,5.1214,5.1214,5.1214,5.1214,5.1214,5.1214,5.1214,5.1214,5.1214,5.1214,5.1214,5.1214,5.1214,5.1214,5.1214,5.1214,5.1214,5.1214,5.1214,5.1214,5.1214,5.1214,5.1214,5.1214,5.1394,5.1798,5.2456,5.3129,5.3803,5.4476,5.4955,5.5194,5.5194,5.5194,5.6001,1.2822,1.332,1.4053,1.4065,0.0,0.0,1.8159,1.943,2.1194,2.4527,2.5674,2.6715,2.8825,2.9854,3.0444,3.0683,3.1926,3.2943,3.3169,3.3684,3.4123,3.4349,3.4374,3.46,3.5107,3.5157,3.5382,3.5981,3.6019,3.6119,3.6405,3.6719,3.7098,3.7651,3.799,3.8441,3.8919,3.9195,3.9471,3.9697,3.9697,3.9697,3.9697,3.9697,3.9697,3.9697,3.9697,3.9697,3.9736,4.0503,4.2315,4.4642,4.5207,4.6166,4.7309,4.7309,4.7309,4.7309,4.7309,4.7309,4.7309,4.7309,4.7309,4.7309,4.7309,4.7309,4.7519,4.8566,4.9254,4.9912,5.0945,5.1214,5.1214,5.1214,5.1214,5.1214,5.1214,5.1214,5.1214,5.1214,5.1214,5.1214,5.1214,5.1214,5.1214,5.1214,5.1214,5.1214,5.1214,5.1214,5.1214,5.1214,5.1214,5.1214,5.1214,5.1214,5.1214,5.1214,5.1214,5.1214,5.1214,5.1214,5.1528,5.2187,5.2576,5.3249,5.4206,5.4865,5.5194,5.5194,5.5194,5.5869,1.4523,1.4747,1.5381,1.6317,1.5537,0.0,1.9015,1.9082,1.9454,2.3199,2.433,2.5058,2.637,2.7491,2.8388,2.895,3.0125,3.1226,3.1985,3.2566,3.3068,3.3571,3.3671,3.3922,3.4487,3.46,3.4818,3.537,3.547,3.5708,3.6292,3.6367,3.6631,3.7073,3.7149,3.7663,3.868,3.8856,3.912,3.9597,3.9659,3.9697,3.9697,3.9697,3.9697,3.9697,3.9697,3.9697,3.9697,3.9697,4.1219,4.3598,4.4734,4.6062,4.7309,4.7309,4.7309,4.7309,4.7309,4.7309,4.7309,4.7309,4.7309,4.7309,4.7309,4.7309,4.7444,4.8102,4.9179,5.024,5.0945,5.105,5.1035,5.1184,5.1109,5.102,5.1094,5.105,5.1005,5.1005,5.1109,5.1214,5.1214,5.1214,5.1214,5.1214,5.1214,5.1214,5.1214,5.1214,5.1214,5.1214,5.1214,5.1214,5.1214,5.1214,5.1214,5.1214,5.1214,5.1214,5.1214,5.1214,5.1498,5.2082,5.2157,5.286,5.4206,5.4865,5.5194,5.5194,5.5194,5.5769,1.6404,1.6755,1.7109,1.5957,1.6434,0.0,1.525,1.5495,1.656,1.8233,1.8701,1.9518,2.2016,2.3203,2.3974,2.4329,2.6615,2.9071,3.1254,3.165,3.1763,3.1863,3.2265,3.2767,3.3345,3.3796,3.4286,3.4839,3.5257,3.5545,3.5658,3.6119,3.6455,3.6568,3.6948,3.7299,3.7513,3.8466,3.8931,3.9032,3.9484,3.9697,3.9697,3.9697,3.9697,3.9697,3.9697,3.9697,3.9697,3.9697,4.1219,4.3504,4.3787,4.5252,4.7309,4.7309,4.7309,4.7309,4.7309,4.7309,4.7309,4.7309,4.7309,4.7309,4.7309,4.7309,4.7444,4.8102,4.885,4.9613,5.0257,5.0047,4.9912,5.0975,5.0421,4.9793,5.027,5.0017,4.9689,4.9689,5.0496,5.1214,5.1214,5.1214,5.1214,5.1214,5.1214,5.1214,5.1214,5.1214,5.1214,5.1214,5.1214,5.1214,5.1214,5.1214,5.1214,5.1214,5.1214,5.1214,5.1214,5.1214,5.1274,5.1409,5.1932,5.286,5.4206,5.4865,5.5194,5.5194,5.5194,5.533,1.7886,1.7964,1.8164,1.751,0.0,0.0,0.0,1.5806,1.6224,1.8322,1.8041,1.8242,2.0864,2.1577,2.1901,2.238,2.4908,2.706,2.7753,2.9907,3.1386,3.1386,3.1637,3.1913,3.2202,3.2742,3.3407,3.4248,3.4781,3.5207,3.5483,3.5805,3.6081,3.6405,3.6681,3.6958,3.7186,3.7751,3.8366,3.8919,3.9145,3.9433,3.9697,3.9697,3.9697,3.9697,3.9697,3.9697,3.9697,3.9697,4.0844,4.2593,4.3266,4.507,4.7309,4.7309,4.7309,4.7309,4.7309,4.7309,4.7309,4.7309,4.7309,4.7309,4.7309,4.7309,4.7444,4.8102,4.8521,4.8925,4.9583,4.9508,4.9479,5.0092,4.9748,4.9404,4.9688,4.9494,4.9314,4.9314,4.9793,5.0346,5.0629,5.1005,5.1214,5.1214,5.1214,5.1214,5.1214,5.1214,5.1214,5.1214,5.1214,5.1214,5.1214,5.1214,5.1214,5.1214,5.1214,5.1214,5.1214,5.1214,5.1214,5.1214,5.1872,5.2531,5.3204,5.4206,5.4865,5.5194,5.5194,5.5194,0.0,0.0,1.9309,0.0,0.0,1.7603,0.0,0.0,0.0,1.8871,1.82,1.7836,1.9873,2.0012,2.0024,2.057,2.2981,2.4413,2.3402,2.7066,2.9986,3.0256,3.0658,3.0922,3.0922,3.1223,3.1976,3.3319,3.3646,3.4104,3.4981,3.532,3.5696,3.6194,3.6355,3.6619,3.7023,3.7136,3.7638,3.8605,3.8818,3.9158,3.9534,3.9647,3.9697,3.9697,3.9697,3.9697,3.9697,3.9697,4.0453,4.1739,4.2978,4.4918,4.6975,4.7207,4.7309,4.7309,4.7309,4.7309,4.7309,4.7309,4.7309,4.7309,4.7309,4.7309,4.7414,4.7952,4.8102,4.8252,4.8955,4.903,4.9,4.9254,4.912,4.897,4.909,4.903,4.8925,4.8925,4.9045,4.9329,5.0061,5.0629,5.1065,5.1199,5.1214,5.1214,5.1214,5.1214,5.1214,5.1214,5.1214,5.1214,5.1214,5.1214,5.1214,5.1214,5.1214,5.1214,5.1214,5.1214,5.1214,5.1214,5.1738,5.2067,5.2202,5.3294,5.4236,5.4999,5.5134,5.5194,0.0,0.0,0.0,0.0,1.9689,0.0,0.0,0.0,1.6393,1.5592,0.0,1.5322,1.5978,0.0,0.0,1.6517,1.8723,2.0169,1.9528,2.2305,2.4876,2.612,2.7996,2.9164,2.9164,2.8825,2.9428,3.1512,3.0859,3.1235,3.3244,3.4751,3.552,3.5596,3.6107,3.6443,3.6505,3.6935,3.7249,3.7387,3.8441,3.8957,3.9032,3.9471,3.9697,3.9697,3.9697,3.9697,3.9697,3.9697,4.0453,4.1739,4.2978,4.4349,4.5734,4.6873,4.7309,4.7309,4.7309,4.7309,4.7309,4.7309,4.7309,4.7309,4.7309,4.7309,4.7324,4.7399,4.7414,4.7563,4.8222,4.7967,4.7818,4.903,4.8371,4.7683,4.8282,4.7938,4.7534,4.7534,4.7997,4.879,4.9971,5.0255,5.051,5.1124,5.1214,5.1214,5.1214,5.1214,5.1214,5.1214,5.1214,5.1214,5.1214,5.1214,5.1214,5.1214,5.1214,5.1214,5.1214,5.1214,5.1214,5.1214,5.1289,5.1618,5.2202,5.2351,5.3084,5.4341,5.4925,5.5194,0.0,0.0,0.0,0.0,0.0,0.0,1.6816,0.0,1.6063,0.0,0.0,0.0,0.0,0.0,0.0,0.0,1.7184,1.8134,1.7224,1.9531,2.2001,2.3904,2.5274,2.6565,2.7846,2.7469,2.8072,3.0294,2.944,2.9917,3.2441,3.3558,3.455,3.547,3.5768,3.6044,3.6405,3.6631,3.6872,3.7199,3.7663,3.8241,3.8932,3.9107,3.9396,3.9697,3.9697,3.9697,3.9697,3.9697,4.0032,4.0605,4.1887,4.317,4.4442,4.5734,4.6211,4.6299,4.7019,4.7309,4.7309,4.7309,4.7309,4.7309,4.7309,4.7309,4.7309,4.7309,4.7309,4.7369,4.7653,4.7519,4.7444,4.7997,4.7713,4.7384,4.7653,4.7504,4.7309,4.7309,4.7534,4.8012,4.894,4.9687,5.0285,5.0569,5.0928,5.1214,5.1214,5.1214,5.1214,5.1214,5.1214,5.1214,5.1214,5.1214,5.1214,5.1214,5.1214,5.1214,5.1214,5.1214,5.1214,5.1214,5.1214,5.1349,5.1633,5.2007,5.2486,5.3069,5.3713,5.4236,2.2788,0.0,0.0,0.0,0.0,0.0,0.0,0.0,0.0,0.0,0.0,0.0,0.0,0.0,0.0,0.0,0.0,1.6498,1.5262,1.7027,1.9316,2.1656,2.3028,2.4456,2.6214,2.5493,2.6021,2.8674,2.7557,2.8147,3.1373,3.2365,3.3533,3.4994,3.5345,3.5805,3.6405,3.6405,3.6606,3.696,3.7111,3.7613,3.8466,3.8781,3.9094,3.9484,3.9634,3.9697,3.9697,3.9697,3.9697,3.9788,4.0693,4.1654,4.2641,4.4256,4.4872,4.507,4.6344,4.7019,4.7309,4.7309,4.7309,4.7309,4.7309,4.7309,4.7309,4.7309,4.7309,4.7309,4.7309,4.7309,4.7309,4.7309,4.7309,4.7309,4.7309,4.7309,4.7309,4.7309,4.7309,4.7459,4.7938,4.8955,4.9763,4.9942,5.048,5.0945,5.0945,5.1109,5.1214,5.1214,5.1214,5.1214,5.1214,5.1214,5.1214,5.1214,5.1214,5.1214,5.1214,5.1214,5.1214,5.1214,5.1214,5.1214,5.1214,5.1693,5.1932,5.1947,5.2785,5.3443,0.0,0.0,0.0,1.9961,0.0,0.0,0.0,0.0,1.7217,0.0,0.0,0.0,0.0,0.0,0.0,0.0,0.0,0.0,0.0,1.4287,1.6188,1.8738,2.1473,2.3384,2.4042,2.2162,2.2464,2.6311,2.4531,2.5189,2.9628,3.1373,3.2767,3.3909,3.4944,3.5805,3.6405,3.6405,3.6417,3.6443,3.6923,3.7199,3.7274,3.8429,3.8932,3.8931,3.9459,3.9697,3.9697,3.9697,3.9697,3.9697,3.9736,3.9788,4.0121,4.2641,4.3551,4.374,4.5024,4.6255,4.7309,4.7309,4.7309,4.7309,4.7309,4.7309,4.7309,4.7309,4.7309,4.7309,4.7309,4.7309,4.7309,4.7309,4.7309,4.7309,4.7309,4.7309,4.7309,4.7309,4.7309,4.7309,4.7339,4.7893,4.8566,4.9239,4.9853,5.0226,5.0226,5.0779,5.1214,5.1214,5.1214,5.1214,5.1214,5.1214,5.1214,5.1214,5.1214,5.1214,5.1214,5.1214,5.1214,5.1214,5.1214,5.1214,5.1214,5.1244,5.1244,5.1274,5.2576,5.3189,0.0,0.0,2.4772,2.2289,0.0,0.0,0.0,0.0,0.0,0.0,0.0,0.0,0.0,0.0,0.0,0.0,0.0,0.0,0.0,1.4149,1.5085,1.5955,1.8888,2.0945,2.1214,2.0905,2.1848,2.4651,2.413,2.5322,2.9026,3.0771,3.219,3.3319,3.4424,3.5219,3.5818,3.6182,3.6405,3.6405,3.6593,3.6883,3.7211,3.7965,3.8504,3.8957,3.9459,3.9697,3.9697,3.9697,3.9697,3.9697,3.9697,3.9697,3.9929,4.1604,4.2217,4.2544,4.4688,4.6211,4.7309,4.7309,4.7309,4.7309,4.7309,4.7309,4.7309,4.7309,4.7309,4.7309,4.7309,4.7309,4.7309,4.7309,4.7309,4.7309,4.7309,4.7309,4.7309,4.7309,4.7309,4.7309,4.7309,4.7489,4.7863,4.8521,4.9179,4.9748,5.0136,5.039,5.0689,5.1169,5.1214,5.1214,5.1214,5.1214,5.1214,5.1214,5.1214,5.1214,5.1214,5.1214,5.1214,5.1214,5.1214,5.1214,5.1214,5.1214,5.1214,5.1229,5.1678,5.2112,2.7087,2.6801,0.0,2.3967,2.2835,0.0,1.918,0.0,1.9168,0.0,0.0,0.0,0.0,0.0,0.0,0.0,0.0,0.0,0.0,1.371,1.4084,1.4282,1.7014,1.8948,1.9178,1.9395,2.0603,2.3201,2.3213,2.4632,2.8147,2.9729,3.121,3.2717,3.3658,3.4587,3.5495,3.5893,3.6169,3.6405,3.6405,3.6593,3.691,3.7462,3.8027,3.8592,3.9157,3.9509,3.9697,3.9697,3.9697,3.9697,3.9697,3.9697,3.9788,4.0605,4.1219,4.1838,4.3504,4.5161,4.6638,4.6638,4.6931,4.7309,4.7309,4.7309,4.7309,4.7309,4.7309,4.7309,4.7309,4.7309,4.7309,4.7309,4.7309,4.7309,4.7309,4.7309,4.7309,4.7309,4.7309,4.7309,4.7309,4.7309,4.7459,4.7878,4.8506,4.9075,4.9494,4.9748,5.0062,5.0481,5.0526,5.0616,5.0808,5.1079,5.1214,5.1214,5.1214,5.1214,5.1214,5.1214,5.1214,5.1214,5.1214,5.1214,5.1214,5.1214,5.1214,5.1214,5.1214,5.1454]}]]